     2.11           OBSERVATION DATA    G (GPS)             RINEX VERSION / TYPE
teqc 2007Jun25 20080610 12:46:50UTC                         PGM / RUN BY / DATE
MSXP|IAx86-PII|bcc32 5.0|MSWin95->XP|486/DX+                COMMENT
2.10 OBSERVATION DATA G (GPS)                               COMMENT
JPS2RIN 1.40 RUN BY 03-JUN-08 14:36                         COMMENT
build Feb 6 2004 (c) Javad Navigation Systems               COMMENT
Use -p (profile) switch to override ANTENNA TYPE and DELTA  COMMENT
and other fields                                            COMMENT
sfj10513a.jps                                               COMMENT
SE TPS 00000000                                             COMMENT
sfj10513a_AOSG                                              MARKER NAME
OBSERVER AGENCY                                             OBSERVER / AGENCY
8PBGA1WAOSG TPS MAXOR 2.6.0 Apr,18,2007                     REC # / TYPE / VERS
sfj10513a -Unknown-                                         ANT # / TYPE
  1582503.0859 -1933626.8291  5848739.9814                  APPROX POSITION XYZ
        0.0000        0.0000        0.0000                  ANTENNA: DELTA H/E/N
     1     1                                                WAVELENGTH FACT L1/2
     7    C1    P1    P2    L1    L2    D1    D2            # / TYPES OF OBSERV
    30.0000                                                 INTERVAL
Forced Modulo Decimation to 30 seconds                      COMMENT
teqc windowed: start @ 2008 May 13 00:00:00.000             COMMENT
  2008     5    13     0     0    0.0000000     GPS         TIME OF FIRST OBS
                                                            END OF HEADER
 08  5 13  0  0  0.0000000  0  9G 2G 6G13G16G23G24G25G29G31
  24408716.280    24408715.1104   24408717.0884  128268666.015 5  99949640.13542
     -2417.930       -1884.093
  23192540.220    23192539.7964   23192543.6344  121877646.629 6  94969615.48043
      3366.270        2623.077
  22384908.770    22384908.6604   22384911.8484  117633519.609 6  91662498.90743
      2319.253        1807.222
  20737577.472    20737576.7804   20737578.7714  108976739.613 8  84916968.20247
      1616.001        1259.222
  21260180.541    21260180.1684   21260180.8474  111723027.282 8  87056926.07646
      -244.883        -190.816
  23503729.881    23503728.7564   23503733.7474  123512936.272 6  96243866.93343
      1961.316        1528.305
  24138422.358    24138421.1624   24138425.4704  126848276.817 5  98842833.52842
      3337.042        2600.300
  22065302.906    22065302.4884   22065304.7174  115953978.715 7  90353780.21345
     -1666.342       -1298.451
  22128974.859    22128974.7384   22128976.4704  116288577.240 7  90614495.68245
     -2838.876       -2212.106
 08  5 13  0  0 30.0000000  0  9G 2G 6G13G16G23G24G25G29G31
  24422562.939    24422562.5104   24422563.8774  128341426.965 5 100006336.93942
     -2432.940       -1895.798
  23173346.232    23173345.8424   23173349.0474  121776782.576 6  94891020.13243
      3357.913        2616.554
  22371718.973    22371718.5564   22371720.9334  117564203.228 6  91608486.18543
      2301.729        1793.542
  20728398.489    20728397.9034   20728399.9994  108928504.310 8  84879382.24447
      1599.626        1246.463
  21261641.756    21261641.1534   21261641.5364  111730704.801 8  87062908.56746
      -267.007        -208.061
  23492579.055    23492578.1674   23492582.9334  123454338.378 6  96198206.26843
      1945.120        1515.679
  24119386.629    24119386.8764   24119390.0324  126748246.351 6  98764887.77342
      3331.601        2596.070
  22074866.148    22074865.7314   22074868.0654  116004233.877 7  90392940.06645
     -1684.033       -1312.233
  22145212.380    22145212.3304   22145214.0204  116373907.039 7  90680986.38345
     -2849.818       -2220.631
 08  5 13  0  1  0.0000000  0  9G 2G 6G13G16G23G24G25G29G31
  24436494.061    24436493.9974   24436496.0024  128414638.454 5 100063384.82241
     -2447.957       -1907.506
  23154200.620    23154200.0644   23154204.2284  121676170.753 6  94812621.35043
      3349.525        2610.003
  22358629.160    22358628.9454   22358631.4754  117495415.402 7  91554885.29444
      2284.156        1779.856
  20719313.642    20719312.8834   20719314.9214  108880761.897 8  84842180.36347
      1583.217        1233.674
  21263229.114    21263228.5334   21263228.9504  111739046.317 8  87069408.46146
      -289.074        -225.251
  23481520.357    23481520.2014   23481525.1264  123396228.432 6  96152925.83143
      1928.882        1503.030
  24100383.288    24100383.0994   24100386.6974  126648383.809 6  98687072.76642
      3325.943        2591.652
  22084530.232    22084530.0574   22084532.3584  116055020.299 7  90432513.88245
     -1701.688       -1325.991
  22161512.336    22161512.3594   22161514.2754  116459565.289 7  90747733.05445
     -2860.702       -2229.117
 08  5 13  0  1 30.0000000  0  9G 2G 6G13G16G23G24G25G29G31
  24450511.140    24450510.3834   24450511.8754  128488296.730 6 100120780.91041
     -2462.811       -1919.070
  23135102.692    23135102.7714   23135106.1014  121575812.028 6  94734419.75943
      3340.974        2603.357
  22345640.284    22345640.0674   22345642.0074  117427156.983 7  91501696.92244
      2266.376        1766.023
  20710322.051    20710321.4094   20710323.4624  108833511.515 8  84805361.88847
      1566.719        1220.824
  21264942.559    21264942.0824   21264942.5564  111748050.239 8  87076424.51146
      -311.232        -242.517
  23470555.689    23470555.2164   23470559.7064  123338607.032 6  96108026.03443
      1912.462        1490.229
  24081412.276    24081412.1604   24081415.1434  126548690.024 5  98609389.32142
      3320.178        2587.139
  22094295.200    22094294.9974   22094297.4334  116106335.125 7  90472499.45545
     -1719.373       -1339.772
  22177874.912    22177874.7184   22177876.6274  116545549.031 7  90814733.34245
     -2871.622       -2237.630
 08  5 13  0  2  0.0000000  0  9G 2G 6G13G16G23G24G25G29G31
  24464612.973    24464611.6004   24464613.8344  128562402.125 6 100178525.36342
     -2477.716       -1930.677
  23116054.508    23116053.5584   23116057.5954  121475711.467 6  94656419.36943
      3332.250        2596.559
  22332752.777    22332752.2844   22332754.5904  117359433.299 7  91448925.23144
      2248.463        1752.055
  20701425.029    20701424.2684   20701426.4554  108786757.082 8  84768929.86147
      1550.111        1207.878
  21266782.228    21266781.7914   21266782.4744  111757718.817 8  87083958.47546
      -333.465        -259.846
  23459684.638    23459684.1674   23459689.2524  123281479.261 6  96063510.91143
      1895.928        1477.341
  24062473.034    24062473.6754   24062477.4654  126449169.621 5  98531841.06042
      3314.378        2582.616
  22104160.547    22104160.6994   22104162.9624  116158179.155 7  90512897.41945
     -1737.038       -1353.535
  22194299.191    22194298.9804   22194300.5854  116631859.136 7  90881987.96045
     -2882.502       -2246.108
 08  5 13  0  2 30.0000000  0  9G 2G 6G13G16G23G24G25G29G31
  24478798.766    24478798.9314   24478799.7554  128636952.013 5 100236616.26042
     -2492.470       -1942.176
  23097055.097    23097054.4764   23097058.3644  121375871.540 6  94578622.06843
      3323.508        2589.748
  22319967.342    22319967.0274   22319969.4244  117292246.708 7  91396572.06044
      2230.459        1738.017
  20692622.466    20692621.7324   20692623.8274  108740499.641 8  84732885.12447
      1533.517        1194.949
  21268748.837    21268748.3084   21268748.5974  111768052.148 8  87092010.42746
      -355.624        -277.109
  23448907.841    23448907.1564   23448911.7944  123224847.266 6  96019382.07642
      1879.348        1464.426
  24043569.272    24043569.0894   24043571.9884  126349824.552 5  98454429.42542
      3308.459        2578.021
  22114126.641    22114126.6054   22114128.9334  116210550.687 7  90553706.41545
     -1754.587       -1367.210
  22210785.012    22210785.1364   22210787.2014  116718494.272 7  90949495.84745
     -2893.328       -2254.538
 08  5 13  0  3  0.0000000  0  9G 2G 6G13G16G23G24G25G29G31
  24493070.098    24493068.7674   24493070.2254  128711943.477 5 100295051.07342
     -2507.083       -1953.557
  23078106.533    23078106.0314   23078109.0104  121276294.040 6  94501029.24743
      3314.824        2582.976
  22307284.291    22307284.2304   22307287.1714  117225599.426 7  91344639.14144
      2212.557        1724.069
  20683914.564    20683913.8784   20683915.9484  108694739.872 8  84697228.17847
      1517.005        1182.083
  21270841.613    21270840.8824   21270841.0034  111779049.374 8  87100579.70346
      -377.636        -294.261
  23438224.949    23438224.6854   23438228.9944  123168712.846 6  95975640.97242
      1862.765        1451.507
  24024698.300    24024698.4504   24024701.3714  126250656.159 6  98377155.40742
      3302.648        2573.483
  22124192.718    22124192.4044   22124194.9534  116263447.485 7  90594924.72045
     -1771.978       -1380.761
  22227332.809    22227332.8954   22227334.1684  116805451.914 7  91017255.02945
     -2903.967       -2262.833
 08  5 13  0  3 30.0000000  0  9G 2G 6G13G16G23G24G25G29G31
  24507423.280    24507422.3804   24507424.7344  128787374.290 5 100353828.37841
     -2521.624       -1964.917
  23059207.989    23059207.5334   23059211.0124  121176982.011 6  94423643.27143
      3305.956        2576.074
  22294705.287    22294705.2044   22294707.4784  117159494.020 7  91293128.44644
      2194.429        1709.941
  20675301.738    20675301.0824   20675303.2104  108649479.008 8  84661959.96547
      1500.405        1169.143
  21273060.723    21273060.0234   21273060.4014  111790710.916 8  87109666.63346
      -399.771        -311.511
  23427638.097    23427637.5324   23427642.6004  123113078.871 5  95932289.82742
      1846.178        1438.584
  24005861.179    24005860.6254   24005864.4674  126151666.600 6  98300020.74943
      3296.654        2568.808
  22134357.754    22134357.9124   22134360.3614  116316868.074 7  90636551.16745
     -1789.362       -1394.314
  22243941.572    22243941.3814   22243943.0194  116892731.159 7  91085264.82045
     -2914.635       -2271.148
 08  5 13  0  4  0.0000000  0  9G 2G 6G13G16G23G24G25G29G31
  24521859.957    24521860.7714   24521861.4904  128863241.329 5 100412945.50741
     -2536.091       -1976.189
  23040360.536    23040359.9094   23040363.4164  121077936.651 6  94346464.96443
      3297.109        2569.178
  22282229.005    22282229.2254   22282231.0194  117093932.454 7  91242041.50844
      2176.344        1695.853
  20666783.657    20666783.1374   20666785.2974  108604717.330 8  84627080.74547
      1483.776        1156.184
  21275405.880    21275405.3944   21275406.1694  111803035.563 8  87119270.25646
      -421.783        -328.662
  23417146.729    23417146.8544   23417150.2744  123057946.338 5  95889329.41042
      1829.437        1425.526
  23987058.021    23987057.7314   23987061.5754  126052857.280 6  98223026.61142
      3290.658        2564.158
  22144623.063    22144622.7734   22144625.3064  116370809.917 7  90678583.77845
     -1806.691       -1407.809
  22260610.280    22260610.5084   22260612.6104  116980329.483 7  91153523.23445
     -2925.162       -2279.351
 08  5 13  0  4 30.0000000  0  9G 2G 6G13G16G23G24G25G29G31
  24536379.911    24536379.3324   24536381.3024  128939541.528 5 100472400.16241
     -2550.488       -1987.402
  23021563.566    23021563.1834   23021567.4384  120979160.294 6  94269496.22643
      3288.079        2562.136
  22269857.113    22269857.0854   22269859.4014  117028916.754 7  91191379.93144
      2158.096        1681.627
  20658361.090    20658360.4224   20658362.6034  108560455.755 8  84592591.20747
      1467.073        1143.167
  21277877.070    21277876.6684   21277877.2834  111816022.672 8  87129390.07446
      -443.890        -345.890
  23406751.405    23406750.9804   23406755.1184  123003317.172 6  95846761.23542
      1812.538        1412.366
  23968289.775    23968289.0694   23968292.5514  125954229.727 6  98146174.00142
      3284.546        2559.385
  22154986.708    22154986.3504   22154988.7474  116425270.771 7  90721020.79745
     -1823.966       -1421.275
  22277340.021    22277340.3004   22277342.7304  117068244.665 7  91222028.52845
     -2935.762       -2287.604
 08  5 13  0  5  0.0000000  0 10G 2G 6G13G16G21G23G24G25G29G31
  24550980.477    24550979.6134   24550982.0744  129016267.495 4 100532186.63041
     -2564.702       -1998.504
  23002818.132    23002817.4484   23002820.7974  120880650.905 6  94192735.76343
      3279.071        2555.109
  22257588.505    22257588.3264   22257590.5424  116964443.921 7  91141141.36044
      2139.948        1667.486
  20650032.904    20650032.2264   20650034.4354  108516690.408 8  84558488.33647
      1450.472        1130.238
  25241751.339    25241752.6474   25241762.7454  132646321.708 5 103360771.3694
      3262.538        2543.118
  21280473.350    21280472.8494   21280473.4844  111829667.080 8  87140022.07646
      -465.884        -363.028
  23396450.829    23396451.3774   23396455.1284  122949188.711 5  95804583.25742
      1795.816        1399.330
  23949554.931    23949554.5054   23949558.0684  125855781.049 6  98069460.79842
      3278.610        2554.759
  22165447.490    22165447.3164   22165449.6714  116480244.035 7  90763857.10445
     -1841.070       -1434.599
  22294129.447    22294129.2794   22294131.2324  117156470.623 7  91290776.00345
     -2946.095       -2295.656
 08  5 13  0  5 30.0000000  0 10G 2G 6G13G16G21G23G24G25G29G31
  24565661.805    24565662.8804   24565662.1724  129093419.727 4 100592305.24841
     -2578.861       -2009.528
  22984123.522    22984123.2884   22984127.4354  120782413.329 6  94116187.15443
      3270.030        2548.074
  22245424.025    22245424.3404   22245426.3944  116900519.845 7  91091330.39844
      2121.622        1653.218
  20641799.730    20641799.1534   20641801.3624  108473424.983 8  84524775.00247
      1433.823        1117.264
  25223137.645    25223136.4484   25223139.9714  132548502.402 5 103284548.54441
      3258.677        2539.227
  21283195.739    21283195.1104   21283195.3614  111843971.475 8  87151168.34946
      -487.810        -380.113
  23386248.266    23386248.1044   23386251.1024  122895565.793 6  95762799.18643
      1778.941        1386.194
  23930856.983    23930856.1994   23930859.1404  125757516.084 6  97992890.75642
      3272.447        2549.967
  22176006.394    22176006.1644   22176008.4564  116535730.606 7  90807093.38945
     -1858.070       -1447.845
  22310977.347    22310977.3634   22310979.1864  117245008.479 7  91359766.52245
     -2956.447       -2303.722
 08  5 13  0  6  0.0000000  0 10G 2G 6G13G16G21G23G24G25G29G31
  24580422.637                                   129170995.227 3
     -2591.850
  22965481.962    22965481.8184   22965485.4704  120684451.708 6  94039853.50343
      3260.875        2540.936
  22233365.125    22233365.0034   22233366.9864  116837148.426 7  91041950.08444
      2103.191        1638.854
  20633662.349    20633661.7084   20633663.8984  108430662.201 8  84491453.36447
      1417.099        1104.232
  25204547.146    25204546.5244   25204548.6014  132450805.850 5 103208421.36941
      3254.503        2535.973
  21286043.588    21286043.0154   21286043.5844  111858937.051 8  87162829.82746
      -509.798        -397.243
  23376140.519    23376139.9974   23376144.1804  122842452.130 6  95721411.93643
      1762.027        1373.005
  23912193.073    23912192.4524   23912195.5034  125659438.405 6  97916466.62343
      3266.198        2545.096
  22186662.516    22186662.7574   22186664.9594  116591730.537 7  90850729.70845
     -1875.128       -1461.137
  22327885.268    22327885.1094   22327886.8884  117333858.306 7  91429000.14545
     -2966.781       -2311.780
 08  5 13  0  6 30.0000000  0  9G 6G13G16G21G23G24G25G29G31
  22946893.670    22946892.9764   22946896.2154  120586766.500 6  93963735.21744
      3251.612        2533.719
  22221410.841    22221410.9904   22221413.0054  116774330.156 7  90993000.79244
      2084.805        1624.513
  20625620.348    20625619.7404   20625621.9524  108388401.200 8  84458522.71947
      1400.406        1091.227
  25185978.919    25185978.8974   25185981.2784  132353232.687 5 103132390.35142
      3250.424        2532.786
  21289016.644    21289016.1614   21289017.0434  111874561.728 8  87175004.88946
      -531.700        -414.312
  23366130.182    23366129.3074   23366133.4674  122789848.259 6  95680421.94343
      1745.004        1359.739
  23893564.982    23893564.6404   23893568.2544  125561548.168 6  97840188.55842
      3259.954        2540.228
  22197416.101    22197416.0394   22197418.5074  116648239.890 7  90894762.98145
     -1892.053       -1474.329
  22344851.605    22344851.6834   22344853.2914  117423016.377 7  91498473.91845
     -2976.947       -2319.703
 08  5 13  0  7  0.0000000  0  9G 6G13G16G21G23G24G25G29G31
  22928357.668    22928357.3344   22928360.8924  120489360.796 6  93887834.75344
      3242.289        2526.472
  22209562.636    22209562.6374   22209565.0764  116712068.071 7  90944484.88944
      2066.235        1610.061
  20617673.961    20617673.4334   20617675.6874  108346643.581 8  84425984.32247
      1383.651        1078.170
  25167435.546    25167434.9684   25167437.7584  132255786.611 5 103056458.38442
      3246.243        2529.515
  21292115.140    21292114.7754   21292115.2714  111890845.516 8  87187693.57146
      -553.658        -431.422
  23356218.552    23356217.4054   23356221.6054  122737756.842 6  95639831.26143
      1727.917        1346.435
  23874972.958    23874972.6494   23874976.0744  125463848.002 6  97764058.62242
      3253.677        2535.336
  22208266.329    22208266.1304   22208268.3884  116705257.702 7  90939192.44545
     -1908.912       -1487.463
  22361875.736    22361875.9664   22361878.2124  117512481.618 7  91568187.07045
     -2987.172       -2327.664
 08  5 13  0  7 30.0000000  0  9G 6G13G16G21G23G24G25G29G31
  22909876.019    22909875.4614   22909878.6904  120392237.512 6  93812154.31844
      3232.551        2518.873
  22197821.022    22197820.8544   22197823.1514  116650365.141 6  90896404.68644
      2047.279        1595.283
  20609823.949    20609823.3144   20609825.5164  108305390.996 8  84393839.46647
      1366.512        1064.815
  25148917.279    25148916.3064   25148917.6384  132158470.314 5 102980627.52641
      3241.552        2525.861
  21295339.791    21295339.2544   21295339.2524  111907788.643 8  87200896.00446
      -575.892        -448.747
  23346402.660    23346402.4754   23346406.4964  122686180.566 6  95599641.98043
      1710.411        1332.782
  23856417.791    23856417.5664   23856420.4224  125366340.857 5  97688079.05642
      3246.906        2530.052
  22219212.942    22219212.6774   22219215.1604  116762782.736 7  90984017.15745
     -1926.068       -1500.826
  22378959.381    22378959.3294   22378960.6864  117602253.575 7  91638139.26145
     -2997.611       -2335.808
 08  5 13  0  8  0.0000000  0  9G 6G13G16G21G23G24G25G29G31
  22891447.737    22891447.3684   22891450.9584  120295399.396 6  93736696.08644
      3223.194        2511.587
  22186186.302    22186186.1384   22186188.4654  116589224.135 7  90848762.34044
      2028.699        1580.799
  20602070.258    20602069.5854   20602071.6864  108264644.631 8  84362089.06347
      1349.820        1051.805
  25130424.261    25130424.1394   25130425.0684  132061287.825 5 102904900.86241
      3237.265        2522.540
  21298689.423    21298688.8684   21298688.9774  111925391.341 8  87214612.38546
      -597.679        -465.727
  23336686.562    23336686.0354   23336690.8604  122635121.845 6  95559855.99443
      1693.382        1319.515
  23837899.776    23837900.2004   23837902.1664  125269028.779 6  97612251.51042
      3240.556        2525.131
  22230255.481    22230255.5094   22230257.9144  116820813.235 7  91029235.72945
     -1942.707       -1513.796
  22396100.346    22396100.4924   22396102.1214  117692330.532 7  91708329.07045
     -3007.565       -2343.556
 08  5 13  0  8 30.0000000  0  9G 6G13G16G21G23G24G25G29G31
  22873074.477    22873074.2354   22873078.1204  120198847.569 6  93661460.89744
      3213.672        2504.157
  22174658.715    22174658.4944   22174660.9864  116528645.968 7  90801558.56944
      2009.931        1566.179
  20594412.758    20594412.0534   20594414.1534  108224404.197 8  84330732.88047
      1332.938        1038.655
  25111955.934    25111955.5924   25111957.2394  131964240.137 5 102829279.35241
      3232.720        2519.009
  21302163.854    21302163.2674   21302164.2574  111943651.593 8  87228841.15646
      -619.597        -482.802
  23327068.237    23327067.7414   23327073.2884  122584581.390 6  95520473.86643
      1676.022        1306.001
  23819419.658    23819419.4424   23819422.8034  125171912.521 6  97536576.50642
      3233.940        2519.953
  22241394.255    22241393.9054   22241396.2714  116879346.163 7  91074845.80745
     -1959.421       -1526.822
  22413298.158    22413298.1804   22413300.5664  117782709.519 7  91778754.20445
     -3017.634       -2351.387
 08  5 13  0  9  0.0000000  0  9G 6G13G16G21G23G24G25G29G31
  22854756.128    22854755.7214   22854759.3184  120102582.255 6  93586448.90044
      3203.984        2496.612
  22163238.220    22163237.8634   22163240.3894  116468630.644 7  90754793.39244
      1991.085        1551.501
  20586851.290    20586850.6514   20586852.7684  108184668.482 8  84299769.99547
      1316.059        1025.498
  25093514.580    25093513.4514   25093517.2224  131867327.523 5 102753763.14141
      3228.196        2515.455
  21305763.276    21305762.9994   21305763.6864  111962566.907 7  87243580.36646
      -641.432        -499.816
  23317549.929    23317549.6194   23317554.5844  122534559.311 6  95481495.67043
      1658.766        1292.533
  23800976.172    23800976.0084   23800979.5674  125074991.751 6  97461053.94442
      3227.425        2514.875
  22252627.307    22252627.1534   22252629.5774  116938377.172 7  91120843.98745
     -1976.013       -1539.751
  22430553.578    22430553.7384   22430556.3204  117873386.664 7  91849411.70345
     -3027.538       -2359.115
 08  5 13  0  9 30.0000000  0 10G 3G 6G13G16G21G23G24G25G29G31
  24863796.626    24863795.4274   24863803.0674  130660137.189 5 101813110.3484
      4131.002        3218.978
  22836492.566    22836491.7594   22836495.6734  120006605.911 6  93511662.14844
      3194.309        2489.066
  22151925.839    22151925.6964   22151927.5094  116409180.593 7  90708468.67644
      1972.150        1536.747
  20579386.012    20579385.3824   20579387.5044  108145438.404 8  84269201.12747
      1299.166        1012.337
  25075099.109    25075098.8784   25075099.8554  131770553.142 5 102678354.56441
      3223.406        2511.754
  21309487.505    21309487.0964   21309487.4024  111982136.640 8  87258829.50646
      -663.291        -516.847
  23308129.509    23308128.8514   23308134.3634  122485057.197 5  95442922.61943
      1641.313        1278.931
  23782570.191    23782569.4324   23782573.6934  124978268.486 5  97385685.23042
      3220.736        2509.661
  22263955.057    22263954.8504   22263957.5874  116997904.635 7  91167229.00445
     -1992.598       -1552.678
  22447866.149    22447866.0554   22447867.4614  117964360.394 7  91920300.30645
     -3037.446       -2366.842
 08  5 13  0 10  0.0000000  0 10G 3G 6G13G16G21G23G24G25G29G31
  24840216.899    24840215.6494   24840220.0914  130536228.771 4 101716558.26741
      4129.535        3217.821
  22818284.541    22818284.0114   22818287.5164  119910922.712 6  93437103.84944
      3184.577        2481.487
  22140720.866    22140720.6364   22140723.0724  116350299.717 7  90662587.46344
      1953.212        1521.986
  20572017.596    20572016.9084   20572018.9494  108106716.458 8  84239028.18647
      1282.290         999.189
  25056710.144    25056709.3564   25056712.4774  131673920.925 5 102603056.67041
      3218.655        2508.059
  21313336.287    21313335.6334   21313336.0004  112002361.514 8  87274589.13646
      -685.052        -533.806
  23298809.993    23298809.0694   23298813.5254  122436078.829 6  95404757.68743
      1623.913        1265.391
  23764203.111    23764202.1004   23764205.5444  124881746.585 6  97310473.39942
      3213.975        2504.389
  22275377.421    22275376.8974   22275379.5464  117057927.875 7  91214000.35445
     -2009.020       -1565.471
  22465234.122    22465234.2224   22465235.9704  118055630.836 7  91991420.13545
     -3047.243       -2374.472
 08  5 13  0 10 30.0000000  0 11G 3G 6G10G13G16G21G23G24G25G29G31
  24816647.213    24816645.8514   24816650.6124  130412363.448 5 101620039.96941
      4128.051        3216.676
  22800132.798    22800132.3134   22800135.3804  119815533.688 6  93362774.78644
      3174.715        2473.807
  24797867.497                                   130313672.673 4
      2706.052
  22129624.524    22129624.5034   22129626.5614  116291989.362 7  90617150.82944
      1934.126        1507.106
  20564745.558    20564744.9144   20564747.0034  108068502.427 8  84209251.00347
      1265.324         985.970
  25038346.055    25038345.4894   25038350.5874  131577432.960 4 102527871.27841
      3213.818        2504.279
  21317309.385    21317308.7024   21317309.2134  112023240.360 8  87290858.36246
      -706.848        -550.787
  23289588.783    23289588.8244   23289593.7004  122387625.304 6  95367001.68743
      1606.347        1251.704
  23745874.158    23745873.3104   23745876.8984  124785426.750 6  97235419.04842
      3207.227        2499.140
  22286893.202    22286893.0504   22286895.4454  117118444.453 7  91261156.12745
     -2025.455       -1578.279
  22482658.273    22482658.2764   22482659.9114  118147195.299 7  92062769.06645
     -3057.041       -2382.109
 08  5 13  0 11  0.0000000  0 11G 3G 6G10G13G16G21G23G24G25G29G31
  24793085.484    24793085.2944   24793088.4484  130288543.566 5 101523556.97441
      4126.419        3215.366
  22782037.391    22782036.7764   22782039.9724  119720441.396 6  93288676.95444
      3164.685        2465.990
  24782457.231                                   130232690.739 5
      2692.597
  22118637.426    22118637.6564   22118639.2544  116234251.576 7  90572160.34744
      1914.929        1492.152
  20557570.699    20557569.8904   20557571.9934  108030797.277 8  84179870.34947
      1248.284         972.687
  25020017.248    25020015.2864   25020018.5244  131481091.714 5 102452800.41641
      3208.769        2500.366
  21321406.547    21321406.1344   21321406.4524  112044772.621 8  87307636.74946
      -728.664        -567.794
  23280468.780    23280468.7714   23280473.4874  122339698.481 6  95329656.13943
      1588.725        1237.963
  23727583.050    23727583.1824   23727585.6404  124689311.148 6  97160523.78142
      3200.368        2493.808
  22298502.811    22298502.5444   22298504.8054  117179452.252 7  91308694.66245
     -2041.831       -1591.033
  22500138.230    22500138.4274   22500139.8204  118239051.776 7  92134345.53345
     -3066.821       -2389.734
 08  5 13  0 11 30.0000000  0 11G 3G 6G10G13G16G21G23G24G25G29G31
  24769531.607    24769529.9604   24769534.4404  130164769.501 5 101427109.54141
      4125.070        3214.353
  22763998.073    22763997.7094   22764001.4114  119625646.100 6  93214810.54644
      3155.005        2458.446
  24767123.258                                   130152112.324 4
      2679.276
  22107759.173    22107759.0404   22107761.1814  116177086.546 7  90527616.15944
      1896.047        1477.442
  20550491.968    20550491.4114   20550493.5084  107993599.940 8  84150885.42447
      1231.568         959.666
  25001712.423    25001712.8394   25001709.0814  131384898.179 6 102377844.35841
      3204.078        2496.704
  21325627.935    21325627.4614   21325627.8344  112066955.512 8  87324922.11946
      -750.163        -584.537
  23271449.173    23271449.0974   23271453.1044  122292298.429 6  95292721.03143
      1571.341        1224.418
  23709331.415    23709330.6904   23709335.1194  124593399.686 5  97085787.62642
      3193.669        2488.572
  22310204.795    22310204.5154   22310206.8504  117240947.072 7  91356612.69145
     -2057.773       -1603.455
  22517672.760    22517672.6044   22517674.1804  118331196.981 7  92206146.95945
     -3076.178       -2397.018
 08  5 13  0 12  0.0000000  0 11G 3G 6G10G13G16G21G23G24G25G29G31
  24745983.455    24745985.1784   24745990.8604  130041042.269 4 101330698.76841
      4123.581        3213.110
  22746015.612    22746015.5634   22746018.4724  119531148.918 6  93141176.42844
      3144.980        2450.640
  24751866.981                                   130071938.626 4
      2665.654
  22096990.083    22096990.2734   22096992.3074  116120495.335 7  90483519.11244
      1876.837        1462.464
  20543510.113    20543509.4784   20543511.6254  107956909.821 8  84122295.72947
      1214.575         946.422
  24983433.667    24983433.8314   24983435.3034  131288853.664 5 102303004.32741
      3198.956        2492.681
  21329972.829    21329972.3624   21329972.4954  112089787.120 8  87342712.97946
      -771.812        -601.411
  23262529.847    23262529.2084   23262533.4134  122245425.567 6  95256196.71943
      1553.665        1210.639
  23691120.312    23691119.9134   23691122.6644  124497693.174 6  97011211.15443
      3186.863        2483.282
  22321998.363    22321998.6674   22322001.1344  117302925.915 7  91404907.86545
     -2073.948       -1616.058
  22535262.084    22535261.9674   22535263.2704  118423627.630 7  92278170.79845
     -3085.728       -2404.466
 08  5 13  0 12 30.0000000  0 11G 3G 6G10G13G16G21G23G24G25G29G31
  24722450.357    24722450.8744   24722456.8694  129917367.279 5 101234328.66141
      4121.627        3211.654
  22728091.418    22728090.6724   22728094.1504  119436954.749 6  93067778.38244
      3134.703        2442.620
  24736688.833                                   129992175.623 5
      2651.897
  22086331.314    22086331.1294   22086333.9194  116064482.637 7  90439872.87044
      1857.440        1447.357
  20536625.366    20536624.7434   20536626.9704  107920730.471 8  84094104.01247
      1197.463         933.086
  24965186.313    24965186.7424   24965188.7384  131192963.116 5 102228284.53541
      3193.688        2488.582
  21334441.248    21334440.6544   21334441.2044  112113269.223 8  87361010.71546
      -793.561        -618.362
  23253711.484    23253710.8664   23253714.7564  122199084.288 6  95220086.65243
      1535.793        1196.723
  23672946.391    23672946.4694   23672950.5524  124402196.242 6  96936798.01643
      3179.720        2477.695
  22333885.914    22333885.1394   22333887.3874  117365389.116 7  91453580.47945
     -2090.126       -1628.675
  22552905.485    22552905.3144   22552907.1844  118516345.032 7  92350418.10145
     -3095.329       -2411.951
 08  5 13  0 13  0.0000000  0 11G 3G 6G10G13G16G21G23G24G25G29G31
  24698927.614    24698926.2604   24698932.3644  129793747.980 5 101138001.99041
      4119.752        3210.215
  22710224.715    22710224.5674   22710228.0564  119343067.346 6  92994619.37044
      3124.539        2434.698
  24721588.843    24721588.3324   24721592.9464  129912827.256 5 101230793.72241
      2638.059        2055.596
  22075783.533    22075783.2704   22075785.6654  116009051.956 7  90396680.13544
      1838.033        1432.235
  20529838.377    20529837.6744   20529839.9254  107885063.883 8  84066311.85647
      1180.381         919.777
  24946969.606    24946968.9304   24946972.7244  131097231.004 5 102153688.08641
      3188.515        2484.560
  21339033.981    21339033.2054   21339033.4394  112137402.756 8  87379816.06446
      -815.242        -635.254
  23244994.849    23244994.1714   23244998.8934  122153278.146 6  95184393.60743
      1518.004        1182.842
  23654815.421    23654815.4274   23654818.5894  124306912.392 6  96862550.91242
      3172.556        2472.125
  22345863.591    22345863.4924   22345865.8274  117428336.337 7  91502630.25645
     -2106.231       -1641.216
  22570602.739    22570602.8444   22570605.1784  118609348.640 7  92422888.45545
     -3104.819       -2419.339
 08  5 13  0 13 30.0000000  0 11G 3G 6G10G13G16G21G23G24G25G29G31
  24675413.808    24675414.0164   24675418.8484  129670185.728 5 101041719.68441
      4117.596        3208.486
  22692417.334    22692416.9034   22692420.1744  119249487.383 6  92921699.91844
      3114.031        2426.512
  24706568.598    24706567.7474   24706571.6144  129833894.954 5 101169288.03441
      2623.874        2044.584
  22065346.098    22065345.8744   22065348.4334  115954204.126 7  90353941.58144
      1818.385        1416.913
  20523148.592    20523147.9374   20523150.1264  107849909.413 8  84038918.76047
      1163.112         906.324
  24928782.068    24928781.9534   24928785.4004  131001658.520 5 102079216.11541
      3182.910        2480.194
  21343749.412    21343749.2024   21343749.7824  112162185.159 8  87399127.02646
      -837.034        -652.232
  23236379.229    23236379.0404   23236383.0784  122108007.137 6  95149117.50543
      1499.918        1168.767
  23636724.432    23636723.4664   23636726.8514  124211841.784 6  96788469.92243
      3165.208        2466.393
  22357933.295    22357933.3184   22357935.6704  117491763.727 7  91552054.20345
     -2122.354       -1653.782
  22588355.480    22588355.2934   22588356.4404  118702635.011 7  92495579.14245
     -3114.399       -2426.807
 08  5 13  0 14  0.0000000  0 11G 3G 6G10G13G16G21G23G24G25G29G31
  24651914.106    24651913.7564   24651916.0664  129546683.295 5 100945484.01641
      4115.894        3207.168
  22674668.719    22674667.9684   22674671.6254  119156217.962 6  92849022.52244
      3103.862        2418.583
  24691628.475    24691627.7624   24691631.6964  129755382.064 5 101108109.18041
      2610.169        2033.901
  22055020.046    22055020.0344   22055022.0574  115899941.760 7  90311659.22344
      1799.042        1401.847
  20516556.598    20516556.0284   20516558.2434  107815268.764 8  84011926.05447
      1146.210         893.153
  24910626.635    24910626.2744   24910629.4214  130906248.974 5 102004871.03041
      3177.590        2476.041
  21348588.887    21348588.5494   21348589.0114  112187616.504 8  87418943.66246
      -858.479        -668.944
  23227866.912    23227866.2354   23227871.1334  122063273.886 6  95114260.44643
      1482.220        1154.974
  23618672.510    23618672.9154   23618676.0274  124116987.185 6  96714557.27543
      3158.225        2460.938
  22370094.499    22370094.1994   22370096.5774  117555670.081 7  91601851.37245
     -2138.137       -1666.081
  22606160.416    22606160.3894   22606162.3184  118796203.101 7  92568489.31245
     -3123.482       -2433.879
 08  5 13  0 14 30.0000000  0 11G 3G 6G10G13G16G21G23G24G25G29G31
  24628422.279    24628422.5624   24628425.6644  129423243.503 4 100849297.23041
      4113.434        3205.282
  22656979.882    22656979.2204   22656983.0924  119063261.848 6  92776589.24444
      3093.140        2410.232
  24676767.334    24676767.3744   24676770.8254  129677291.788 5 101047259.64741
      2595.789        2022.676
  22044806.302    22044806.0674   22044808.1354  115846267.299 7  90269834.97544
      1779.182        1386.371
  20510062.632    20510062.0744   20510064.2674  107781142.722 8  83985334.35447
      1128.834         879.612
  24892503.395    24892502.8784   24892504.6884  130811005.553 5 101930655.32541
      3171.838        2471.573
  21353551.402    21353551.1294   21353551.7694  112213696.656 8  87439265.86145
      -880.269        -685.924
  23219457.729    23219457.3664   23219461.7104  122019080.709 6  95079824.22443
      1463.974        1140.755
  23600664.725    23600663.6834   23600667.6234  124022350.997 6  96640814.83043
      3150.741        2455.121
  22382346.565    22382346.2704   22382348.5874  117620053.771 7  91652020.48245
     -2154.179       -1678.573
  22624019.351    22624019.1034   22624020.9304  118890051.779 7  92641618.10745
     -3133.074       -2441.365
 08  5 13  0 15  0.0000000  0 11G 3G 6G10G13G16G21G23G24G25G29G31
  24604945.259    24604945.4784   24604949.7254  129299870.184 5 100753162.26441
      4111.411        3203.688
  22639350.868    22639350.7344   22639354.1974  118970623.029 7  92704403.22944
      3082.677        2402.085
  24661988.814    24661986.9344   24661994.3174  129599628.810 5 100986743.04641
      2581.646        2011.677
  22034705.242    22034705.0594   22034707.2534  115793184.499 7  90228471.76444
      1759.558        1371.086
  20503667.305    20503666.4534   20503668.6854  107747533.801 8  83959145.58947
      1111.678         866.242
  24874411.251    24874410.0474   24874411.8844  130715932.374 5 101856572.28441
      3166.143        2467.090
  21358638.031    21358637.4574   21358638.1634  112240425.715 8  87460093.69746
      -901.739        -702.655
  23211151.165    23211151.1604   23211155.2964  121975430.719 6  95045811.26143
      1445.956        1126.725
  23582698.398    23582698.0594   23582701.8804  123927936.951 6  96567245.48243
      3143.430        2449.425
  22394689.289    22394688.6974   22394691.1114  117684914.181 7  91702561.04745
     -2169.962       -1690.881
  22641931.588    22641931.3054   22641933.4904  118984181.106 7  92714965.62145
     -3142.299       -2448.537
 08  5 13  0 15 30.0000000  0 11G 3G 6G10G13G16G21G23G24G25G29G31
  24581481.445    24581481.1194   24581484.0854  129176563.247 5 100657078.97641
      4108.967        3201.753
  22621782.481    22621782.1304   22621785.7434  118878300.832 6  92632463.90144
      3071.987        2393.747
  24647291.535    24647290.1994   24647294.6774  129522393.341 5 100926559.58241
      2567.279        2000.464
  22024716.503    22024716.0254   22024718.2774  115740692.573 7  90187568.97244
      1739.782        1355.671
  20497369.653    20497368.8584   20497371.1694  107714439.893 8  83933358.13247
      1094.435         852.807
  24856350.530    24856351.1224   24856353.5404  130621029.591 5 101782622.05741
      3160.657        2462.859
  21363847.655    21363847.0704   21363847.1654  112267800.270 8  87481424.51645
      -923.293        -719.448
  23202948.274    23202947.8914   23202952.4204  121932323.144 6  95012220.96643
      1427.757        1112.539
  23564774.841    23564774.6954   23564777.0174  123833744.217 6  96493848.55643
      3135.941        2443.592
  22407121.157    22407120.9234   22407123.4924  117750246.570 7  91753469.41245
     -2185.699       -1703.139
  22659896.126    22659896.1344   22659897.9554  119078586.299 7  92788528.09145
     -3151.509       -2455.719
 08  5 13  0 16  0.0000000  0 11G 3G 6G10G13G16G21G23G24G25G29G31
  24558031.107    24558030.4194   24558033.5374  129053325.918 5 100561049.88641
      4106.676        3200.024
  22604275.403    22604274.7204   22604278.4214  118786298.317 7  92560773.66444
      3061.443        2385.548
  24632676.714    24632675.6214   24632679.5674  129445588.083 5 100866711.37941
      2553.009        1989.361
  22014839.784    22014839.9144   22014842.2334  115688794.357 7  90147128.81544
      1720.056        1340.309
  20491170.307    20491169.6934   20491171.8414  107681862.490 8  83907973.14647
      1077.332         839.477
  24838324.030    24838323.7394   24838327.3774  130526300.646 4 101708807.33841
      3154.829        2458.310
  21369179.526    21369179.0774   21369179.5834  112295820.398 8  87503258.38846
      -944.754        -736.175
  23194848.279    23194847.5514   23194852.4884  121889760.281 6  94979055.14943
      1409.668        1098.433
  23546892.472    23546891.7624   23546895.3204  123739775.367 6  96420626.10843
      3128.495        2437.782
  22419642.860    22419643.0224   22419645.1454  117816049.537 7  91804744.45645
     -2201.224       -1715.241
  22677912.854    22677912.8464   22677915.1994  119173266.452 7  92862304.85245
     -3160.548       -2462.774
 08  5 13  0 16 30.0000000  0 11G 3G 6G10G13G16G21G23G24G25G29G31
  24534593.376    24534592.9604   24534596.2564  128930161.820 5 100465077.98841
      4104.285        3198.150
  22586829.284    22586828.4744   22586832.0864  118694619.000 7  92489335.30044
      3050.640        2377.121
  24618143.748    24618142.4174   24618146.6844  129369217.424 5 100807201.80841
      2538.497        1978.064
  22005077.559    22005077.4234   22005079.7334  115637492.921 7  90107153.69544
      1700.134        1324.777
  20485069.669    20485068.9724   20485071.2614  107649803.852 8  83882992.38947
      1060.036         826.003
  24820332.814    24820331.2244   24820333.9814  130431749.275 5 101635130.92241
      3148.705        2453.527
  21374634.625    21374634.0874   21374634.5904  112324486.231 8  87525595.40546
      -966.237        -752.917
  23186853.700    23186853.3414   23186857.7224  121847745.437 6  94946316.29843
      1391.366        1084.181
  23529054.416    23529053.5014   23529057.4574  123646033.678 6  96347580.70343
      3120.979        2431.943
  22432254.295    22432254.0464   22432256.5964  117882322.069 7  91856385.39345
     -2216.829       -1727.405
  22695982.505    22695982.1914   22695983.8154  119268221.007 7  92936295.38044
     -3169.631       -2469.842
 08  5 13  0 17  0.0000000  0 11G 3G 6G10G13G16G21G23G24G25G29G31
  24511169.603    24511167.2364   24511172.9054  128807073.868 5 100369165.30241
      4101.554        3196.052
  22569445.397    22569444.7764   22569448.3124  118603265.176 6  92418150.50744
      3039.592        2368.513
  24603694.067    24603693.1604   24603696.4234  129293284.627 5 100748033.39241
      2523.746        1966.549
  21995429.578    21995429.6394   21995431.5674  115586790.558 7  90067645.36944
      1680.073        1309.147
  20479067.833    20479067.2894   20479069.5594  107618264.384 8  83858416.18647
      1042.651         812.453
  24802375.070    24802374.7054   24802375.3144  130337378.257 5 101561594.95141
      3142.631        2448.778
  21380212.228    21380211.7284   21380212.1974  112353797.087 8  87548435.03846
      -987.732        -769.667
  23178962.800    23178962.2774   23178967.1164  121806280.099 6  94914005.66643
      1373.012        1069.868
  23511259.808    23511259.0874   23511262.2374  123552521.437 6  96274714.04443
      3113.260        2425.909
  22444954.432    22444954.1294   22444956.8094  117949062.374 7  91908390.82545
     -2232.472       -1739.588
  22714103.364    22714103.1884   22714105.6064  119363448.494 7  93010498.59645
     -3178.758       -2476.954
 08  5 13  0 17 30.0000000  0 11G 3G 6G10G13G16G21G23G24G25G29G31
  24487759.690    24487760.6574   24487764.7734  128684062.650 5 100273312.45041
      4099.000        3194.014
  22552123.429    22552122.6634   22552125.9984  118512238.064 6  92347220.32344
      3028.765        2360.071
  24589327.059    24589327.0444   24589332.0724  129217790.799 5 100689207.07841
      2509.108        1955.149
  21985895.311    21985895.1474   21985897.2354  115536688.114 7  90028604.52344
      1659.961        1293.480
  20473164.942    20473164.3104   20473166.4664  107587243.461 8  83834244.04647
      1025.325         798.957
  24784450.830    24784449.8544   24784451.2554  130243189.437 5 101488201.06241
      3136.492        2444.022
  21385912.014    21385911.6744   21385911.8894  112383750.660 8  87571775.48446
     -1009.224        -786.408
  23171177.033    23171176.8874   23171180.6434  121765364.618 6  94882123.48043
      1354.631        1055.561
  23493508.572    23493508.2634   23493510.8144  123459239.364 6  96202026.72943
      3105.493        2419.862
  22457743.213    22457742.9074   22457745.5414  118016267.265 7  91960758.25345
     -2247.949       -1751.644
  22732276.145    22732276.2984   22732278.0004  119458945.675 7  93084911.99245
     -3187.761       -2483.969
 08  5 13  0 18  0.0000000  0 11G 3G 6G10G13G16G21G23G24G25G29G31
  24464369.327    24464369.0804   24464371.8404  128561133.483 6 100177523.56641
      4096.259        3191.893
  22534864.132    22534863.9544   22534867.3234  118421542.367 6  92276548.39844
      3017.700        2351.449
  24575046.847    24575045.3294   24575050.5524  129142741.303 5 100630726.95841
      2494.226        1943.543
  21976475.303    21976475.2484   21976478.5204  115487189.949 7  89990034.54644
      1639.891        1277.829
  20467361.125    20467360.4914   20467362.6714  107556744.281 8  83810478.46647
      1007.990         785.444
  24766562.050    24766560.9464   24766563.5054  130149187.461 5 101414952.78041
      3130.307        2439.194
  21391734.662    21391734.2474   21391734.5594  112414348.443 8  87595617.91545
     -1030.602        -803.068
  23163496.753    23163495.9084   23163500.2624  121725003.368 6  94850673.16343
      1336.161        1041.167
  23475801.658    23475801.2914   23475805.1584  123366191.881 6  96129522.24843
      3097.720        2413.792
  22470619.844    22470619.9574   22470622.3044  118083936.813 7  92013487.77545
     -2263.318       -1763.624
  22750500.375    22750500.4644   22750502.3534  119554713.457 7  93159536.21545
     -3196.707       -2490.944
 08  5 13  0 18 30.0000000  0 11G 3G 6G10G13G16G21G23G24G25G29G31
  24440991.271    24440990.6124   24440995.2184  128438286.500 5 100081798.71641
      4093.566        3189.819
  22517668.592    22517668.2234   22517671.6894  118331178.018 7  92206134.64344
      3006.554        2342.762
  24560848.347    24560849.7304   24560854.5864  129068136.790 5 100572593.60441
      2479.366        1931.969
  21967171.655    21967171.4034   21967174.0334  115438295.604 7  89951935.06644
      1619.721        1262.125
  20461656.267    20461655.7144   20461657.9094  107526765.385 8  83787118.29647
       990.620         771.914
  24748711.189    24748710.2714   24748712.4314  130055373.247 5 101341850.69041
      3124.018        2434.313
  21397679.156    21397678.7114   21397678.8744  112445587.403 8  87619959.97046
     -1051.968        -819.716
  23155921.849    23155921.3754   23155925.0084  121685195.537 6  94819654.07643
      1317.678        1026.764
  23458140.448    23458139.6394   23458142.9344  123273378.765 6  96057200.38143
      3089.851        2407.685
  22483584.507    22483584.5544   22483587.3634  118152066.709 7  92066575.99545
     -2278.645       -1775.564
  22768774.848    22768775.0014   22768776.6344  119650747.741 7  93234368.10345
     -3205.534       -2497.817
 08  5 13  0 19  0.0000000  0 11G 3G 6G10G13G16G21G23G24G25G29G31
  24417630.934    24417629.7714   24417635.1484  128315525.671 5  99986140.96341
      4090.505        3187.427
  22500536.564    22500536.1564   22500539.1884  118241148.955 6  92135982.12644
      2995.409        2334.088
  24546737.808    24546738.5174   24546743.2154  128993981.096 5 100514809.95341
      2464.361        1920.283
  21957983.262    21957983.0104   21957984.9464  115390008.567 7  89914308.80744
      1599.417        1246.291
  20456050.951    20456050.3164   20456052.4954  107497308.820 8  83764165.13547
       973.169         758.309
  24730895.083    24730894.7904   24730896.0734  129961750.755 5 101268897.94141
      3117.462        2429.174
  21403746.028    21403745.3994   21403745.9124  112477467.611 7  87644801.70145
     -1073.336        -836.370
  23148452.101    23148451.6584   23148455.9264  121645944.439 6  94789068.80743
      1299.037        1012.241
  23440523.757    23440523.6224   23440526.9214  123180803.445 6  95985063.80243
      3081.888        2401.470
  22496636.816    22496636.8734   22496639.2194  118220656.096 7  92120022.27145
     -2293.948       -1787.494
  22787100.321    22787100.5864   22787102.3234  119747048.545 7  93309407.69245
     -3214.454       -2504.765
 08  5 13  0 19 30.0000000  0 11G 3G 6G10G13G16G21G23G24G25G29G31
  24394287.693    24394286.3024   24394290.6014  128192852.072 5  99890551.21241
      4087.724        3185.224
  22483468.253    22483468.0504   22483471.7184  118151455.917 7  92066091.46744
      2984.295        2325.429
  24532711.655    24532711.0194   24532716.1564  128920275.656 5 100457377.17541
      2449.502        1908.726
  21948909.784    21948909.5874   21948911.9714  115342329.352 7  89877156.18644
      1579.287        1230.610
  20450544.783    20450544.2084   20450546.2694  107468373.875 8  83741618.42847
       955.937         744.887
  24713115.554    24713114.3044   24713119.4344  129868321.230 4 101196095.50441
      3111.180        2424.301
  21409933.843    21409933.3774   21409934.3084  112509986.828 8  87670141.34845
     -1094.453        -852.818
  23141088.559    23141088.2214   23141093.0644  121607250.263 6  94758917.52443
      1280.631         997.900
  23422952.316    23422952.1424   23422955.0554  123088466.499 6  95913112.96943
      3074.020        2395.339
  22509776.091    22509775.7594   22509777.9104  118289701.620 7  92173823.95845
     -2308.989       -1799.211
  22805475.500    22805475.9234   22805477.9134  119843612.420 7  93384652.26044
     -3223.027       -2511.442
 08  5 13  0 20  0.0000000  0 11G 3G 6G10G13G16G21G23G24G25G29G31
  24370957.752    24370959.2714   24370963.9194  128070266.814 5  99795030.37641
      4084.530        3182.752
  22466464.597    22466464.3094   22466467.5154  118062099.922 6  91996463.46744
      2972.814        2316.480
  24518772.214    24518771.7164   24518776.5604  128847021.985 5 100400296.45541
      2434.123        1896.724
  21939952.258    21939952.2474   21939954.6544  115295258.579 7  89840477.69044
      1558.801        1214.655
  20445137.970    20445137.2744   20445139.1754  107439959.880 8  83719477.65347
       938.391         731.217
  24695374.190    24695374.0114   24695377.3434  129775086.681 5 101123445.22841
      3104.522        2419.115
  21416243.478    21416242.8224   21416243.5124  112543142.610 8  87695977.03346
     -1115.872        -869.508
  23133831.717    23133830.9674   23133835.0304  121569113.184 6  94729200.34243
      1261.886         983.294
  23405426.838    23405426.8144   23405429.5634  122996368.971 6  95841348.65743
      3065.905        2389.009
  22523000.924    22523000.5714   22523003.5124  118359199.905 7  92227978.46045
     -2324.222       -1811.085
  22823900.829    22823900.6764   22823903.1964  119940436.575 7  93460099.67944
     -3231.876       -2518.348
 08  5 13  0 20 30.0000000  0 11G 3G 6G10G13G16G21G23G24G25G29G31
  24347650.010    24347650.7044   24347655.0614  127947774.095 5  99699581.41941
      4081.540        3180.412
  22449525.501    22449525.3934   22449528.2844  117973084.792 6  91927101.01344
      2961.579        2307.718
  24504919.886    24504918.7814   24504922.8514  128774224.202 5 100343570.93541
      2419.032        1884.963
  21931112.048    21931111.9944   21931114.1294  115248800.052 7  89804276.27644
      1538.523        1198.855
  20439830.357    20439829.7374   20439831.8064  107412069.116 8  83697744.59447
       921.073         717.719
  24677670.913    24677670.0894   24677671.9954  129682051.044 5 101050949.89641
      3097.927        2413.976
  21422674.154    21422673.4944   21422674.1684  112576935.673 8  87722309.29046
     -1136.961        -885.944
  23126680.028    23126679.9624   23126685.3194  121531536.606 6  94699919.91743
      1243.328         968.831
  23387947.544    23387946.7504   23387950.4724  122904514.574 6  95769773.84643
      3057.922        2382.791
  22536312.519    22536312.1264   22536314.3084  118429150.569 7  92282485.47545
     -2339.117       -1822.693
  22842375.299    22842374.9034   22842376.9584  120037520.757 6  93535749.65344
     -3240.320       -2524.932
 08  5 13  0 21  0.0000000  0 11G 3G 6G10G13G16G21G23G24G25G29G31
  24324358.898    24324357.5054   24324362.4004  127825375.896 5  99604206.28141
      4078.365        3177.966
  22432651.623    22432651.2504   22432654.7014  117884412.489 7  91858005.72944
      2949.995        2298.695
  24491154.167    24491153.4814   24491157.4014  128701884.986 5 100287202.77041
      2403.554        1872.885
  21922387.900    21922387.8074   21922389.9204  115202954.905 7  89768552.79844
      1517.955        1182.819
  20434622.616    20434621.9014   20434624.0034  107384701.633 8  83676419.28347
       903.566         704.074
  24660003.724    24660002.3764   24660005.7994  129589216.768 5 100978611.59341
      3091.107        2408.641
  21429225.553    21429225.1404   21429225.5464  112611364.319 8  87749136.81045
     -1158.187        -902.481
  23119637.359    23119636.3764   23119640.5754  121494521.567 6  94671077.04443
      1224.535         954.193
  23370514.607    23370513.9214   23370517.5874  122812904.407 6  95698389.34743
      3049.584        2376.301
  22549709.499    22549708.8744   22549711.5654  118499550.750 7  92337342.77345
     -2354.116       -1834.382
  22860898.536    22860898.5824   22860901.0774  120134862.675 7  93611600.46144
     -3248.980       -2531.677
 08  5 13  0 21 30.0000000  0 11G 3G 6G10G13G16G21G23G24G25G29G31
  24301085.417    24301084.5354   24301087.2594  127703072.933 5  99508905.38241
      4075.100        3175.428
  22415843.455    22415842.9604   22415846.4704  117796083.443 7  91789177.96244
      2938.497        2289.732
  24477476.617    24477474.7754   24477479.1094  128630005.449 5 100231192.75741
      2388.280        1861.018
  21913780.229    21913780.3094   21913782.2664  115157723.081 7  89733307.22444
      1497.425        1166.818
  20429513.914    20429513.3134   20429515.3784  107357856.127 8  83655500.70647
       886.102         690.468
  24642378.416    24642377.8404   24642379.0664  129496585.149 6 100906431.28541
      3084.322        2403.358
  21435897.320    21435896.9924   21435897.2564  112646425.673 8  87776457.33645
     -1179.279        -918.921
  23112700.111    23112699.5354   23112704.0464  121458067.597 6  94642671.35143
      1205.684         939.490
  23353127.968    23353127.3924   23353131.3944  122721538.958 6  95627195.53343
      3041.387        2369.900
  22563190.448    22563190.0654   22563192.7564  118570396.612 7  92392547.34945
     -2368.938       -1845.926
  22879471.172    22879471.2624   22879472.7374  120232459.090 7  93687649.60544
     -3257.506       -2538.315
 08  5 13  0 22  0.0000000  0 11G 3G 6G10G13G16G21G23G24G25G29G31
  24277829.138    24277828.7854   24277832.1164  127580868.561 5  99413681.20641
      4071.817        3172.833
  22399101.282    22399100.3614   22399103.6534  117708100.690 7  91720620.01644
      2926.892        2280.696
  24463884.888    24463885.6584   24463888.6544  128558588.817 5 100175543.44541
      2372.819        1848.910
  21905289.941    21905289.8214   21905292.7244  115113107.473 7  89698541.83844
      1476.866        1150.807
  20424505.032    20424504.4494   20424506.5724  107331534.300 8  83634990.19647
       868.610         676.839
  24624787.412    24624787.9204   24624791.4004  129404159.719 5 100834411.79642
      3077.363        2397.947
  21442689.787    21442689.3424   21442689.4874  112682119.252 8  87804270.51445
     -1200.344        -935.331
  23105870.724    23105870.0764   23105873.6744  121422177.255 6  94614704.87043
      1186.919         924.879
  23335788.880    23335788.3064   23335792.1424  122630421.182 6  95556194.70043
      3033.041        2363.411
  22576756.259    22576755.9584   22576758.8734  118641687.039 7  92448098.32745
     -2383.765       -1857.479
  22898090.931    22898091.1104   22898093.2424  120330309.370 6  93763896.57144
     -3265.969       -2544.920
 08  5 13  0 22 30.0000000  0 12G 3G 6G 7G10G13G16G21G23G24G25G29G31
  24254594.230    24254594.0464   24254599.5484  127458767.344 5  99318537.50141
      4068.298        3170.117
  22382424.875    22382424.3404   22382427.8334  117620468.451 7  91652335.14244
      2915.159        2271.557
  25010287.944                                   131429951.419 4
      3804.976
  24450385.047    24450383.7534   24450387.8434  128487639.226 5 100120258.05141
      2357.156        1836.754
  21896918.549    21896918.5014   21896920.5344  115069111.899 7  89664259.59145
      1456.181        1134.696
  20419596.297    20419595.7834   20419597.8364  107305738.722 8  83614889.75247
       851.068         663.170
  24607240.350    24607239.5694   24607240.6204  129311944.083 5 100762555.47641
      3070.389        2392.544
  21449602.499    21449602.1724   21449602.3404  112718445.998 8  87832577.06845
     -1221.427        -951.760
  23099149.788    23099149.0164   23099151.7204  121386854.139 6  94587180.38443
      1167.994         910.122
  23318498.072    23318497.6924   23318500.3754  122539555.116 6  95485390.00743
      3024.637        2356.857
  22590407.390    22590407.2424   22590409.3334  118713421.726 7  92503995.48445
     -2398.508       -1868.977
  22916759.357    22916759.8324   22916762.1574  120428413.327 6  93840341.16944
     -3274.344       -2551.434
 08  5 13  0 23  0.0000000  0 12G 3G 6G 7G10G13G16G21G23G24G25G29G31
  24231380.217    24231379.4504   24231382.1954  127336770.506 5  99223475.10241
      4064.815        3167.372
  22365815.871    22365815.4964   22365818.9634  117533187.593 7  91584324.09844
      2903.526        2262.484
  24988572.919    24988572.5124   24988577.0464  131315840.375 4 102324048.30141
      3802.331        2962.862
  24436971.477    24436970.7264   24436976.2044  128417158.693 5 100065338.18541
      2341.416        1824.489
  21888664.648    21888664.4174   21888666.7184  115025736.708 7  89630460.75745
      1435.464        1118.539
  20414787.572    20414786.9654   20414789.0004  107280468.232 8  83595198.45947
       833.570         649.536
  24589733.580    24589732.2404   24589733.7814  129219940.170 6 100690863.99841
      3063.194        2386.907
  21456635.586    21456634.8604   21456635.0744  112755403.285 8  87861374.95445
     -1242.423        -968.123
  23092535.478    23092535.1734   23092537.8824  121352098.384 6  94560097.98843
      1149.055         895.364
  23301254.218    23301253.7394   23301257.5514  122448941.425 6  95414781.96743
      3016.192        2350.266
  22604141.924    22604141.6824   22604143.9584  118785596.797 7  92560235.79445
     -2413.130       -1880.363
  22935476.784    22935476.5414   22935478.0124  120526767.873 7  93916981.06844
     -3282.633       -2557.893
 08  5 13  0 23 30.0000000  0 12G 3G 6G 7G10G13G16G21G23G24G25G29G31
  24208184.169    24208184.2904   24208187.7044  127214877.528 5  99128493.58441
      4061.447        3164.746
  22349273.419    22349272.8064   22349276.5104  117446257.717 7  91516586.57944
      2891.848        2253.388
  24966871.154    24966872.1934   24966875.9754  131201807.462 4 102235191.55141
      3799.896        2960.927
  24423648.434    24423647.3534   24423652.4524  128347146.571 4 100010783.32741
      2325.968        1812.410
  21880527.828    21880527.9534   21880530.1784  114982980.816 7  89597144.50044
      1414.904        1102.529
  20410078.358    20410077.7104   20410079.8034  107255721.063 8  83575914.96547
       816.220         636.019
  24572266.067    24572265.0894   24572268.0784  129128147.983 5 100619337.51541
      3056.250        2381.504
  21463787.315    21463786.8094   21463787.0994  112792987.384 8  87890661.27745
     -1263.176        -984.295
  23086029.423    23086029.2094   23086031.4434  121317908.379 6  94533456.43543
      1130.278         880.736
  23284059.227    23284058.2914   23284062.0284  122358579.408 6  95344370.06143
      3007.946        2343.862
  22617959.196    22617958.9474   22617961.6704  118858207.535 7  92616815.59645
     -2427.548       -1891.590
  22954239.361    22954239.5374   22954241.1944  120625368.415 6  93993812.64444
     -3290.687       -2564.162
 08  5 13  0 24  0.0000000  0 12G 3G 6G 7G10G13G16G21G23G24G25G29G31
  24185008.515    24185008.8104   24185012.3754  127093092.876 5  99033596.55541
      4057.698        3161.826
  22332798.832    22332798.3254   22332801.8564  117359682.554 7  91449125.43744
      2879.944        2244.108
  24945186.612    24945187.5764   24945192.4204  131087856.185 5 102146398.42841
      3797.069        2958.743
  24410414.347    24410414.7264   24410419.2324  128277607.233 4  99956596.91141
      2310.042        1800.045
  21872510.278    21872510.2634   21872512.3884  114940847.771 7  89564313.57745
      1394.012        1086.245
  20405469.079    20405468.3964   20405470.4384  107231499.304 8  83557040.89047
       798.655         622.330
  24554839.137    24554837.8444   24554841.3194  129036572.242 5 100547979.98342
      3048.881        2375.767
  21471058.585    21471058.1864   21471058.4404  112831198.257 8  87920435.98645
     -1284.110       -1000.601
  23079631.482    23079631.3034   23079633.7344  121284287.402 6  94507258.28843
      1111.198         865.883
  23266912.396    23266911.9864   23266915.3684  122268472.706 6  95274157.07443
      2999.331        2337.136
  22631859.251    22631859.2874   22631861.1354  118931253.244 7  92673734.30945
     -2442.080       -1902.920
  22973049.262    22973049.1924   22973050.7864  120724214.764 6  94070835.76444
     -3299.025       -2570.660
 08  5 13  0 24 30.0000000  0 12G 3G 6G 7G10G13G16G21G23G24G25G29G31
  24161853.638    24161855.0244   24161858.8344  126971419.436 5  98938786.12941
      4053.929        3158.882
  22316392.198    22316391.7644   22316394.8754  117273464.775 7  91381942.77544
      2867.928        2234.741
  24923519.071    24923519.6394   24923523.2704  130973989.052 5 102057670.81141
      3794.061        2956.405
  24397274.183    24397272.9974   24397278.7414  128208543.926 5  99902781.38341
      2294.199        1787.674
  21864612.141    21864611.8314   21864613.8184  114899339.540 7  89531969.51845
      1373.145        1069.985
  20400959.849    20400959.2554   20400961.3324  107207803.371 8  83538576.53647
       781.046         608.605
  24537455.036    24537455.1414   24537455.7584  128945215.822 5 100476793.19341
      3041.586        2370.092
  21478449.004    21478448.6034   21478448.8414  112870035.551 8  87950698.80845
     -1305.033       -1016.908
  23073341.695    23073341.6164   23073344.8794  121251237.335 6  94481505.00743
      1092.104         850.988
  23249814.807    23249813.9714   23249817.8114  122178623.779 6  95204144.96143
      2990.595        2330.323
  22645841.453    22645841.4644   22645844.2104  119004732.138 7  92730990.55845
     -2456.518       -1914.172
  22991904.884    22991905.1944   22991907.9314  120823305.822 6  94148049.53844
     -3307.100       -2576.959
 08  5 13  0 25  0.0000000  0 12G 3G 6G 7G10G13G16G21G23G24G25G29G31
  24138723.352    24138722.3874   24138727.1454  126849859.758 5  98844064.37541
      4049.968        3155.822
  22300053.908    22300053.4834   22300056.6464  117187606.538 7  91315040.26744
      2855.924        2225.397
  24901868.643    24901868.2424   24901870.6864  130860208.873 5 101969011.00141
      3791.266        2954.233
  24384222.900    24384222.1174   24384225.7224  128139959.089 5  99849338.67141
      2278.169        1775.180
  21856832.140    21856832.0844   21856834.3164  114858458.008 7  89500113.78745
      1352.258        1053.709
  20396550.876    20396550.2334   20396552.3484  107184634.009 8  83520522.46947
       763.531         594.960
  24520111.530    24520111.5984   24520113.8944  128854081.625 5 100405779.62541
      3034.091        2364.227
  21485958.354    21485957.7084   21485958.1554  112909497.468 8  87981448.36345
     -1325.814       -1033.100
  23067161.186    23067160.6094   23067164.8084  121218759.426 6  94456197.56543
      1073.074         836.166
  23232766.427    23232766.3674   23232769.0554  122089034.750 6  95134335.36943
      2981.947        2323.598
  22659906.406    22659906.2884   22659908.7194  119078642.095 7  92788582.73944
     -2470.840       -1925.328
  23010807.672    23010807.7214   23010809.8624  120922639.793 6  94225452.60944
     -3315.107       -2583.189
 08  5 13  0 25 30.0000000  0 12G 3G 6G 7G10G13G16G21G23G24G25G29G31
  24115613.184    24115612.7274   24115616.9034  126728414.925 5  98749431.99342
      4046.290        3152.949
  22283784.343    22283783.7254   22283787.2934  117102108.995 7  91248418.84844
      2843.944        2216.055
  24880233.502    24880233.0074   24880236.6524  130746515.860 5 101880419.06242
      3788.306        2951.905
  24371262.793    24371263.2874   24371265.8094  128071854.204 5  99796269.93241
      2262.214        1762.776
  21849172.193    21849171.8594   21849174.1914  114818203.671 7  89468746.79545
      1331.373        1037.428
  20392241.932    20392241.3284   20392243.5604  107161990.776 8  83502878.39447
       746.051         581.335
  24502812.498    24502812.3344   24502814.4974  128763170.866 5 100334940.15242
      3026.604        2358.381
  21493585.955    21493585.3964   21493586.2294  112949581.630 8  88012682.76845
     -1346.418       -1049.150
  23061089.727    23061089.2684   23061093.5404  121186853.966 6  94431336.16643
      1054.006         821.300
  23215768.446    23215768.0434   23215770.7594  121999706.493 6  95064728.96743
      2973.281        2316.828
  22674052.825    22674052.4284   22674054.5464  119152980.054 7  92846508.41644
     -2484.994       -1936.358
  23029756.284    23029755.9934   23029758.6884  121022213.874 6  94303042.78344
     -3323.032       -2589.371
 08  5 13  0 26  0.0000000  0 12G 3G 6G 7G10G13G16G21G23G24G25G29G31
  24092525.368    24092523.8304   24092529.2034  126607086.691 5  98654890.71241
      4042.274        3149.815
  22267583.501    22267582.8204   22267586.5074  117016973.207 7  91182079.30844
      2831.820        2206.610
  24858615.031    24858615.4114   24858617.6184  130632910.925 5 101791895.83442
      3785.404        2949.679
  24358394.809    24358393.0084   24358397.7554  128004230.569 5  99743576.21341
      2246.050        1750.136
  21841631.212    21841631.3744   21841633.3794  114778577.077 7  89437868.94045
      1310.398        1021.087
  20388033.119    20388032.4214   20388034.6084  107139872.988 8  83485643.75847
       728.475         567.642
  24485555.479    24485554.4384   24485556.1634  128672485.304 5 100264276.17342
      3019.012        2352.463
  21501331.802    21501331.3494   21501331.8454  112990285.758 8  88044400.28045
     -1367.163       -1065.319
  23055127.628    23055126.8794   23055131.3074  121155521.259 6  94406921.09543
      1034.854         806.378
  23198819.314    23198818.9994   23198821.3164  121910640.047 6  94995326.55343
      2964.522        2310.011
  22688278.918    22688278.8084   22688281.4744  119227742.417 7  92904764.80244
     -2499.148       -1947.386
  23048750.105    23048749.5824   23048751.2974  121122025.029 6  94380817.73244
     -3330.976       -2595.575
 08  5 13  0 26 30.0000000  0 12G 3G 6G 7G10G13G16G21G23G24G25G29G31
  24069458.532    24069458.8494   24069462.6914  126485878.883 5  98560443.05541
      4038.226        3146.685
  22251452.451    22251451.8904   22251454.8324  116932202.550 7  91116024.27145
      2819.549        2197.056
  24837014.652    24837014.4544   24837017.4374  130519397.532 5 101703443.90042
      3782.211        2947.182
  24345617.956    24345618.2344   24345621.9034  127937091.792 5  99691260.30941
      2229.832        1737.516
  21834210.777    21834210.6894   21834212.7004  114739580.824 7  89407482.26845
      1289.347        1004.687
  20383924.554    20383923.9444   20383926.0594  107118282.406 8  83468819.93047
       710.880         553.929
  24468341.716    24468341.6624   24468344.0214  128582028.929 5 100193790.64141
      3011.339        2346.499
  21509195.640    21509195.2004   21509195.3564  113031609.658 8  88076600.72045
     -1387.783       -1081.390
  23049274.218    23049274.1104   23049278.4454  121124763.626 6  94382954.11243
      1015.649         791.409
  23181921.124    23181920.4804   23181923.1264  121821838.488 6  94926130.55143
      2955.573        2303.047
  22702586.558    22702586.2594   22702588.6524  119302928.178 7  92963351.11444
     -2513.217       -1958.348
  23067787.850    23067788.0934   23067790.0804  121222072.815 6  94458777.03044
     -3338.885       -2601.723
 08  5 13  0 27  0.0000000  0 12G 3G 6G 7G10G13G16G21G23G24G25G29G31
  24046418.906    24046418.1774   24046421.8914  126364795.515 5  98466092.34941
      4033.938        3143.345
  22235391.062    22235390.7894   22235394.0704  116847801.119 7  91050256.92845
      2807.100        2187.352
  24815431.671    24815431.3154   24815434.2064  130405979.488 5 101615066.24242
      3778.946        2944.653
  24332936.126    24332934.6564   24332939.2624  127870442.764 5  99639326.07541
      2213.357        1724.675
  21826910.690    21826910.7684   21826912.6674  114701218.645 7  89377589.67545
      1268.113         988.136
  20379916.747    20379916.0974   20379918.2824  107097221.107 8  83452408.55047
       693.158         540.123
  24451171.734    24451171.7154   24451174.8494  128491806.199 5 100123487.24541
      3003.486        2340.361
  21517177.168    21517176.7714   21517177.2634  113073553.651 8  88109284.34745
     -1408.549       -1097.575
  23043531.164    23043530.4334   23043535.0264  121094584.446 6  94359437.89243
       996.221         776.271
  23165073.333    23165073.3074   23165076.3214  121733305.824 6  94857144.09943
      2946.517        2295.984
  22716974.331    22716974.1284   22716976.8444  119378536.812 7  93022266.92144
     -2527.394       -1969.399
  23086871.478    23086871.4824   23086874.0154  121322357.344 6  94536920.79744
     -3346.770       -2607.878
 08  5 13  0 27 30.0000000  0 12G 3G 6G 7G10G13G16G21G23G24G25G29G31
  24023402.496    24023401.7084   24023405.3724  126243840.761 5  98371841.89141
      4029.750        3140.074
  22219401.160    22219400.5844   22219403.5624  116763772.643 7  90984780.21245
      2794.771        2177.735
  24793868.015    24793867.1864   24793869.8954  130292660.416 5 101526765.73642
      3775.785        2942.162
  24320346.504    24320345.5474   24320349.5784  127804287.503 5  99587776.51741
      2196.997        1711.962
  21819732.088    21819731.7474   21819733.6704  114663493.872 7  89348193.74745
      1246.909         971.617
  20376010.023    20376009.3514   20376011.4694  107076690.996 8  83436411.06947
       675.508         526.370
  24434051.072    24434049.8074   24434051.8694  128401821.675 5 100053369.51442
      2995.504        2334.159
  21525276.918    21525276.3074   21525277.1764  113116118.076 8  88142451.42045
     -1429.080       -1113.571
  23037899.711    23037898.8614   23037902.8804  121064986.506 6  94336374.58143
       976.958         761.271
  23148277.500    23148277.3374   23148281.0804  121645045.699 6  94788370.01143
      2937.537        2288.990
  22731442.597    22731442.2424   22731445.0164  119454567.816 7  93081511.84444
     -2541.330       -1980.255
  23106000.278    23106000.2504   23106002.1664  121422878.473 6  94615248.94444
     -3354.572       -2613.955
 08  5 13  0 28  0.0000000  0 12G 3G 6G 7G10G13G16G21G23G24G25G29G31
  24000409.859    24000408.3184   24000412.2584  126123013.518 5  98277690.81942
      4025.420        3136.675
  22203481.548    22203481.0454   22203483.8654  116680115.546 7  90919592.90145
      2782.352        2168.064
  24772321.936    24772321.5994   24772324.8934  130179438.531 5 101438540.95641
      3772.493        2939.585
  24307851.898    24307851.1134   24307854.9444  127738625.283 5  99536611.17141
      2180.433        1699.028
  21812673.682    21812673.6894   21812675.4694  114626403.903 7  89319292.48145
      1225.743         955.122
  20372203.653    20372203.0904   20372205.2144  107056688.888 8  83420825.00447
       657.917         512.663
  24416970.658    24416970.9434   24416973.1024  128312074.057 5  99983436.26742
      2987.568        2327.986
  21533493.593    21533493.0714   21533493.7804  113159297.648 8  88176097.84345
     -1449.556       -1129.521
  23032377.279    23032376.9274   23032381.5904  121035967.290 6  94313762.22643
       957.646         746.225
  23131534.091    23131533.6084   23131536.7844  121557056.384 6  94719806.96343
      2928.415        2281.875
  22745990.157    22745990.0444   22745992.5484  119531014.834 7  93141080.94744
     -2555.157       -1991.030
  23125172.654    23125172.4624   23125174.2884  121523630.701 6  94693757.16144
     -3362.226       -2619.916
 08  5 13  0 28 30.0000000  0 12G 3G 6G 7G10G13G16G21G23G24G25G29G31
  23977440.367    23977440.1644   23977445.2874  126002318.526 5  98183642.84942
      4021.115        3133.331
  22187633.318    22187632.9624   22187636.4414  116596833.931 7  90854698.14545
      2769.848        2158.319
  24750795.865    24750795.8654   24750798.4924  130066318.248 5 101350395.38441
      3769.053        2936.904
  24295451.550    24295449.9064   24295453.2284  127673459.769 5  99485832.87441
      2163.918        1686.150
  21805737.020    21805736.9594   21805739.1694  114589952.337 7  89290888.66645
      1204.462         938.535
  20368498.401    20368497.7144   20368499.8904  107037217.172 8  83405652.22247
       640.284         498.923
  24399939.116    24399937.8004   24399940.7134  128222568.123 5  99913691.42542
      2979.444        2321.633
  21541827.733    21541827.2874   21541827.6004  113203092.874 8  88210223.97345
     -1470.013       -1145.463
  23026966.481    23026965.7374   23026969.7294  121007530.154 7  94291603.43543
       938.281         731.123
  23114843.200    23114842.8874   23114845.6424  121469341.935 6  94651458.06944
      2919.272        2274.756
  22760616.593    22760616.2694   22760619.0464  119607877.971 7  93200974.28544
     -2568.952       -2001.783
  23144389.920    23144389.9304   23144391.8204  121624614.025 6  94772445.42244
     -3369.837       -2625.856
 08  5 13  0 29  0.0000000  0 12G 3G 6G 7G10G13G16G21G23G24G25G29G31
  23954499.875    23954499.3844   23954503.3164  125881757.161 5  98089698.98542
      4016.276        3129.571
  22171856.941    22171856.5754   22171860.0714  116513928.760 7  90790096.72745
      2757.038        2148.344
  24729288.081    24729287.9884   24729292.3234  129953300.503 5 101262329.67541
      3765.443        2934.115
  24283145.188    24283143.4194   24283148.9484  127608792.212 5  99435442.55541
      2147.079        1673.045
  21798922.162    21798921.9564   21798924.7274  114554139.737 7  89262982.75145
      1182.952         921.782
  20364893.728    20364893.1934   20364895.2884  107018275.166 8  83390892.22147
       622.427         485.008
  24382953.184    24382952.9754   24382954.4364  128133305.729 5  99844136.26241
      2971.171        2315.198
  21550278.490    21550277.8824   21550277.9864  113247501.190 8  88244827.84645
     -1490.651       -1161.546
  23021665.356    23021664.9674   23021668.8504  120979674.988 6  94269898.13543
       918.638         715.819
  23098204.154    23098203.6404   23098206.3224  121381903.213 6  94583324.01744
      2909.849        2267.405
  22775321.501    22775321.3414   22775323.8234  119685153.999 6  93261189.35444
     -2582.849       -2012.603
  23163650.216    23163649.9114   23163651.5854  121725825.636 7  94851311.61444
     -3377.641       -2631.930
 08  5 13  0 29 30.0000000  0 12G 3G 6G 7G10G13G16G21G23G24G25G29G31
  23931584.095    23931582.0204   23931587.3764  125761334.053 5  97995862.85441
      4011.666        3125.950
  22156153.173    22156152.7964   22156155.9584  116431404.781 7  90725792.36045
      2744.329        2138.439
  24707802.413    24707802.8044   24707805.8474  129840389.684 5 101174347.26241
      3761.880        2931.319
  24270935.086    24270933.0064   24270938.0654  127544628.280 5  99385444.72141
      2130.291        1659.958
  21792229.723    21792229.5754   21792231.8654  114518970.178 7  89235577.91145
      1161.511         905.074
  20361390.632    20361389.9464   20361392.0394  106999865.726 8  83376547.19947
       604.693         471.190
  24366013.050    24366012.8864   24366015.8884  128044291.612 5  99774774.63442
      2962.949        2308.801
  21558845.840    21558845.4094   21558846.0084  113292523.490 8  88279910.15845
     -1511.046       -1177.441
  23016475.741    23016475.4414   23016478.6754  120952405.517 6  94248649.23543
       899.181         700.657
  23081617.569    23081617.1774   23081620.8314  121294744.789 6  94515408.39444
      2900.497        2260.116
  22790105.487    22790105.3754   22790107.6624  119762842.622 7  93321725.93044
     -2596.531       -2023.275
  23182953.009    23182953.0004   23182954.7164  121827265.969 6  94930355.95244
     -3385.234       -2637.841
 08  5 13  0 30  0.0000000  0 12G 3G 6G 7G10G13G16G21G23G24G25G29G31
  23908695.751    23908694.3084   23908698.3234  125641051.622 5  97902136.22341
      4006.980        3122.311
  22140522.009    22140521.7744   22140525.3824  116349263.643 7  90661786.31945
      2731.592        2128.514
  24686335.953    24686335.9404   24686340.0744  129727587.241 5 101086449.34741
      3758.276        2928.500
  24258821.588    24258820.6174   24258824.9344  127480969.817 5  99335840.74741
      2113.500        1646.901
  21785660.070    21785659.8634   21785661.4984  114484444.703 7  89208674.94445
      1140.104         888.398
  20357988.669    20357988.0474   20357990.1614  106981988.664 8  83362617.01447
       587.036         457.431
  24349123.065    24349121.8974   24349123.9094  127955528.057 6  99705608.21042
      2954.609        2302.288
  21567529.401    21567529.2584   21567529.7994  113338157.609 8  88315469.20145
     -1531.311       -1193.227
  23011398.271    23011397.7864   23011401.2064  120925722.590 6  94227857.37843
       879.665         685.453
  23065086.079    23065085.3914   23065088.3434  121207868.333 6  94447712.46644
      2891.190        2252.880
  22804967.367    22804966.9644   22804969.5714  119840941.620 7  93382582.28144
     -2610.133       -2033.870
  23202300.345    23202299.9124   23202301.7214  121928933.113 6  95009577.04644
     -3392.724       -2643.674
 08  5 13  0 30 30.0000000  0 12G 3G 6G 7G10G13G16G21G23G24G25G29G31
  23885831.667    23885830.7674   23885835.5184  125520908.998 5  97808518.62742
      4002.499        3118.812
  22124963.594    22124963.5564   22124967.1024  116267504.267 7  90598077.76645
      2719.028        2118.713
  24664891.090    24664891.9714   24664894.7924  129614892.623 5 100998635.40941
      3754.756        2925.781
  24246803.174    24246801.6094   24246805.4134  127417815.445 5  99286629.55741
      2096.857        1633.928
  21779212.320    21779212.2574   21779213.7024  114450561.308 7  89182272.28845
      1118.824         871.808
  20354687.613    20354686.9794   20354689.1044  106964641.381 8  83349099.64447
       569.510         443.772
  24332279.380    24332279.0324   24332281.5404  127867014.840 5  99636636.77442
      2946.307        2295.847
  21576329.034    21576328.5184   21576329.4224  113384399.176 8  88351501.58345
     -1551.386       -1208.875
  23006431.726    23006430.9194   23006435.1104  120899624.134 6  94207520.92243
       860.262         670.341
  23048607.760    23048606.9554   23048610.0294  121121272.687 7  94380235.34644
      2881.946        2245.668
  22819906.279    22819905.6234   22819907.9494  119919445.233 7  93443753.92544
     -2623.364       -2044.190
  23221688.406    23221688.2984   23221689.9364  122030822.473 6  95088971.32544
     -3399.903       -2649.269
 08  5 13  0 31  0.0000000  0 12G 3G 6G 7G10G13G16G21G23G24G25G29G31
  23862995.825    23862995.4174   23863000.6634  125400908.549 5  97715011.95642
      3997.516        3114.922
  22109478.551    22109478.1064   22109481.5264  116186128.163 7  90534667.84445
      2706.104        2108.653
  24643467.682    24643467.3884   24643469.5154  129502307.156 5 100910906.47341
      3750.951        2922.834
  24234880.825    24234880.7394   24234884.6264  127355167.776 4  99237813.21341
      2079.816        1620.620
  21772886.450    21772886.6584   21772888.3994  114417320.826 7  89156370.60945
      1097.254         855.011
  20351487.265    20351486.5474   20351488.7334  106947823.157 8  83335994.53447
       551.744         429.934
  24315484.119    24315483.1444   24315486.3224  127778754.003 6  99567861.98342
      2937.753        2289.163
  21585243.896    21585243.3624   21585243.7314  113431245.721 8  88388005.37045
     -1571.667       -1224.669
  23001576.783    23001576.0804   23001580.4604  120874110.469 6  94187640.16443
       840.663         655.071
  23032182.494    23032182.0364   23032185.5964  121034959.348 6  94312978.24144
      2872.379        2238.227
  22834921.477    22834921.0794   22834923.8094  119998350.688 7  93505238.70844
     -2636.879       -2054.712
  23241119.451    23241119.4614   23241120.5684  122132931.404 6  95168536.72044
     -3407.294       -2655.030
 08  5 13  0 31 30.0000000  0 12G 3G 6G 7G10G13G16G21G23G24G25G29G31
  23840188.719    23840188.0184   23840192.4824  125281052.756 5  97621617.95842
      3992.724        3111.231
  22094066.486    22094066.3014   22094069.5864  116105138.071 7  90471558.72545
      2693.205        2098.596
  24622064.508    24622064.2284   24622066.6984  129389833.245 5 100823264.51341
      3747.189        2919.861
  24223056.371    24223057.5564   24223059.7814  127293029.406 5  99189393.74041
      2062.733        1607.330
  21766683.916    21766683.7034   21766686.1524  114384725.495 7  89130971.67345
      1075.709         838.216
  20348387.668    20348387.0404   20348389.2804  106931535.202 8  83323302.64147
       534.074         416.160
  24298738.133    24298737.7644   24298738.5564  127690748.504 6  99499286.10342
      2929.208        2282.494
  21594273.460    21594273.0874   21594273.3114  113478696.426 7  88424979.95045
     -1591.762       -1240.335
  22996833.326    22996832.7714   22996837.2884  120849183.317 6  94168216.41843
       821.122         639.838
  23015812.009    23015811.4464   23015814.3694  120948930.752 7  94245943.00444
      2862.850        2230.792
  22850011.836    22850011.8524   22850014.5044  120077656.010 6  93567035.04144
     -2650.219       -2065.105
  23260591.359    23260591.3244   23260593.6104  122235258.391 6  95248271.96444
     -3414.507       -2660.660
 08  5 13  0 32  0.0000000  0 12G 3G 6G 7G10G13G16G21G23G24G25G29G31
  23817409.549    23817408.7634   23817413.1624  125161346.236 5  97528340.23242
      3987.623        3107.215
  22078728.868    22078728.4184   22078731.8504  116024537.393 7  90408753.02045
      2680.074        2088.373
  24600683.230    24600682.3954   24600686.5464  129277474.661 5 100735712.46041
      3743.231        2916.787
  24211330.524    24211330.1014   24211333.9284  127231404.516 5  99141374.37741
      2045.515        1593.898
  21760604.410    21760604.2934   21760606.7454  114352777.937 7  89106077.48745
      1054.033         821.322
  20345389.454    20345388.8034   20345390.9214  106915779.129 8  83311025.19047
       516.271         402.291
  24282040.148    24282039.1374   24282041.4904  127603002.603 5  99430912.55142
      2920.444        2275.678
  21603417.916    21603417.4564   21603417.5474  113526750.687 8  88462424.83645
     -1611.931       -1256.053
  22992201.454    22992201.0364   22992205.7314  120824845.363 6  94149251.77343
       801.389         624.455
  22999495.683    22999495.5054   22999498.1914  120863190.525 6  94179132.45444
      2853.146        2223.231
  22865180.358    22865179.5164   22865182.6104  120157360.514 7  93629142.44944
     -2663.541       -2075.484
  23280105.404    23280105.3864   23280107.0004  122337803.263 6  95328177.01844
     -3421.844       -2666.369
 08  5 13  0 32 30.0000000  0 12G 3G 6G 7G10G13G16G21G23G24G25G29G31
  23794658.793    23794657.6994   23794661.7044  125041789.481 5  97435179.16042
      3982.723        3103.441
  22063465.172    22063464.6584   22063468.1534  115944326.363 7  90346250.93545
      2667.161        2078.309
  24579322.470    24579324.0964   24579326.7894  129165231.520 5 100648250.36041
      3739.452        2913.857
  24199700.791    24199700.0374   24199704.8514  127170292.705 5  99093754.72741
      2028.390        1580.576
  21754648.281    21754648.3204   21754649.7334  114321477.637 7  89081687.63645
      1032.541         804.578
  20342492.108    20342491.3944   20342493.4894  106900553.171 8  83299160.82747
       498.691         388.590
  24265392.858    24265391.9644   24265394.0774  127515517.425 5  99362742.11842
      2911.858        2268.988
  21612676.658    21612676.2054   21612676.3064  113575405.246 8  88500337.49445
     -1631.834       -1271.556
  22987682.960    22987681.8734   22987686.4554  120801095.809 6  94130745.63643
       781.842         609.239
  22983234.659    22983234.2114   22983237.8804  120777738.890 6  94112546.78444
      2843.547        2215.747
  22880422.256    22880421.8534   22880424.5004  120237459.924 6  93691557.54144
     -2676.556       -2085.631
  23299659.397    23299659.7104   23299661.9634  122440562.262 6  95408248.94444
     -3428.854       -2671.819
 08  5 13  0 33  0.0000000  0 12G 3G 6G 7G10G13G16G21G23G24G25G29G31
  23771936.613    23771936.2574   23771939.6594  124922384.616 5  97342136.56642
      3977.682        3099.502
  22048276.004    22048275.6594   22048278.9164  115864506.128 7  90284053.38045
      2654.175        2068.187
  24557986.556    24557986.9464   24557990.6134  129053105.004 5 100560879.16041
      3735.577        2910.840
  24188170.632    24188168.7184   24188174.3404  127109696.267 5  99046536.75141
      2011.371        1567.314
  21748815.346    21748815.2874   21748816.7864  114290824.986 7  89057802.43845
      1010.974         787.773
  20339695.447    20339694.8334   20339697.0314  106885856.893 8  83287709.18047
       481.064         374.856
  24248794.405    24248793.5274   24248796.4874  127428294.598 5  99294776.19442
      2903.083        2262.156
  21622049.162    21622048.6104   21622048.5594  113624657.638 8  88538715.99145
     -1651.664       -1287.007
  22983275.289    22983274.6084   22983278.6344  120777934.397 6  94112697.78243
       762.246         593.963
  22967028.928    22967028.3714   22967031.8764  120692576.740 7  94046186.71544
      2833.928        2208.264
  22895739.257    22895739.1404   22895741.9644  120317950.998 7  93754277.86344
     -2689.500       -2095.708
  23319254.364    23319254.3734   23319255.6094  122543532.704 6  95488485.64844
     -3435.834       -2677.269
 08  5 13  0 33 30.0000000  0 12G 3G 6G 7G10G13G16G21G23G24G25G29G31
  23749243.730    23749242.7884   23749247.4944  124803135.048 5  97249214.91542
      3972.382        3095.380
  22033161.901    22033161.4384   22033164.6494  115785080.966 7  90222163.66945
      2640.916        2057.857
  24536672.697    24536673.0114   24536676.2844  128941099.628 5 100473602.37242
      3731.561        2907.718
  24176737.183    24176737.0844   24176740.4374  127049619.462 5  98999723.67041
      1993.836        1553.630
  21743105.652    21743105.5994   21743108.0414  114260823.501 7  89034424.66545
       989.226         770.824
  20336999.960    20336999.3464   20337001.5244  106871692.629 8  83276672.09147
       463.323         361.027
  24232247.583    24232246.5724   24232248.2824  127341339.119 6  99227018.69042
      2894.090        2255.147
  21631534.976    21631534.4994   21631534.9484  113674508.111 7  88577560.53245
     -1671.582       -1302.530
  22978980.049    22978979.5434   22978983.7494  120755364.486 6  94095110.85643
       742.512         578.578
  22950878.909    22950878.8704   22950881.4224  120607708.450 6  93980055.60644
      2824.060        2200.564
  22911130.246    22911130.4904   22911132.8444  120398833.857 7  93817303.44444
     -2702.541       -2105.877
  23338889.054    23338889.0874   23338890.8644  122646715.425 6  95568887.89544
     -3442.918       -2682.807
 08  5 13  0 34  0.0000000  0 12G 3G 6G 7G10G13G16G21G23G24G25G29G31
  23726581.416    23726579.7404   23726585.4364  124684042.853 5  97156415.89742
      3967.107        3091.257
  22018123.495    22018122.6524   22018125.6984  115706051.578 7  90160582.34845
      2627.754        2047.601
  24515381.981    24515381.7684   24515385.0374  128829216.159 5 100386420.55642
      3727.512        2904.559
  24165403.689    24165402.7634   24165407.1424  126990062.913 5  98953315.97541
      1976.446        1540.084
  21737520.572    21737520.6284   21737523.5174  114231473.056 7  89011554.21245
       967.530         753.921
  20334405.663    20334405.0504   20334407.1914  106858059.208 8  83266048.63747
       445.631         347.249
  24215751.673    24215750.2394   24215752.6374  127254652.264 5  99159470.54742
      2885.148        2248.169
  21641134.396    21641134.0634   21641134.5724  113724953.506 8  88616868.62845
     -1691.371       -1317.951
  22974797.218    22974797.0754   22974801.1344  120733385.713 6  94077984.54843
       722.809         563.239
  22934785.278    22934784.8514   22934787.8974  120523134.707 6  93914154.00744
      2814.225        2192.909
  22926595.795    22926595.7274   22926598.5674  120480104.288 6  93880631.07344
     -2715.422       -2115.919
  23358563.802    23358563.3764   23358565.8364  122750106.626 6  95649452.46943
     -3449.769       -2688.130
 08  5 13  0 34 30.0000000  0 13G 3G 6G 7G10G13G16G21G23G24G25G27G29
                                G31
  23703949.506    23703949.2044   23703952.5134  124565110.288 6  97063741.24242
      3961.741        3087.071
  22003160.002    22003159.5134   22003162.8524  115627420.076 7  90099311.07145
      2614.370        2037.180
  24494114.948    24494115.6164   24494117.9444  128717456.357 5 100299335.03442
      3723.217        2901.219
  24154169.561    24154169.2984   24154174.7944  126931029.176 5  98907315.70241
      1959.205        1526.642
  21732060.178    21732059.8854   21732061.9224  114202774.868 7  88989191.99345
       945.678         736.891
  20331912.279    20331911.7724   20331913.9654  106844957.109 8  83255839.22147
       427.898         333.427
  24199307.697    24199307.1844   24199309.6254  127168236.373 5  99092133.62842
      2875.955        2241.004
  21650846.473    21650846.3574   21650846.7654  113775992.347 7  88656639.14945
     -1711.166       -1333.371
  22970727.610    22970727.3154   22970731.0784  120711999.219 6  94061319.76043
       702.970         547.765
  22918747.632    22918747.3384   22918750.9524  120438857.524 6  93848483.51144
      2804.232        2185.118
  25270243.878                                   132796030.029 4
      3365.723
  22942134.175    22942134.1004   22942137.0054  120561760.382 6  93944259.16144
     -2728.230       -2125.894
  23378277.154    23378277.5314   23378280.0244  122853704.511 6  95730178.00244
     -3456.700       -2693.521
 08  5 13  0 35  0.0000000  0 13G 3G 6G 7G10G13G16G21G23G24G25G27G29
                                G31
  23681349.119    23681347.6654   23681351.2084  124446343.213 6  96971195.42742
      3956.196        3082.768
  21988273.299    21988273.1384   21988276.3264  115549191.545 7  90038353.81445
      2600.925        2026.694
  24472872.667    24472872.5354   24472875.7874  128605825.563 5 100212350.07442
      3718.912        2897.853
  24143036.586    24143034.3874   24143040.3844  126872523.549 4  98861726.90941
      1941.549        1512.866
  21726724.027    21726723.7434   21726725.4214  114174733.240 7  88967341.37745
       923.799         719.839
  20329520.762    20329520.1234   20329522.4144  106832389.340 8  83246046.16647
       410.066         319.532
  24182915.465    24182914.4854   24182916.6734  127082096.987 6  99025011.98342
      2866.678        2233.789
  21660672.361    21660672.0254   21660672.1174  113827625.814 8  88696873.04545
     -1730.975       -1348.809
  22966771.857    22966770.8694   22966775.1474  120691208.842 6  94045119.45943
       683.106         532.284
  22902768.105    22902767.2904   22902770.7354  120354881.943 6  93783048.01944
      2794.157        2177.265
  25251042.759    25251042.3224   25251048.9514  132695124.166 4 103398817.78841
      3362.402        2620.068
  22957745.343    22957745.7954   22957748.9774  120643802.682 6  94008188.22844
     -2741.061       -2135.890
  23398032.361    23398031.7484   23398033.7524  122957510.622 6  95811065.89144
     -3463.580       -2698.897
 08  5 13  0 35 30.0000000  0 13G 3G 6G 7G10G13G16G21G23G24G25G27G29
                                G31
  23658779.252    23658778.7274   23658782.3624  124327743.345 5  96878779.78442
      3950.434        3078.242
  21973463.865    21973463.5884   21973466.8934  115471367.291 7  89977711.57145
      2587.426        2016.181
  24451655.113    24451653.7734   24451657.1134  128494325.333 5 100125466.81641
      3714.498        2894.424
  24132004.794    24132003.8034   24132008.8924  126814548.085 4  98816551.29241
      1923.614        1498.900
  21721512.461    21721512.2574   21721514.4394  114147349.012 7  88946003.01145
       901.862         702.753
  20327230.755    20327230.2074   20327232.3844  106820355.461 8  83236669.12847
       392.249         305.649
  24166576.259    24166575.1574   24166578.2844  126996236.664 6  98958107.90042
      2857.345        2226.489
  21670610.584    21670610.1244   21670610.2574  113879851.363 7  88737568.26845
     -1750.677       -1364.159
  22962928.616    22962927.8454   22962932.2884  120671014.811 6  94029383.85143
       663.244         516.815
  22886845.673    22886845.0644   22886847.8414  120271209.535 6  93717848.75544
      2784.034        2169.378
  25231854.329    25231852.5464   25231860.0654  132594287.936 4 103320244.15041
      3359.895        2618.094
  22973431.957    22973431.7444   22973434.2804  120726228.333 6  94072415.96944
     -2753.897       -2145.883
  23417824.363    23417824.1114   23417826.0984  123061522.470 6  95892114.00543
     -3470.414       -2704.214
 08  5 13  0 36  0.0000000  0 13G 3G 6G 7G10G13G16G21G23G24G25G27G29
                                G31
  23636242.519    23636241.7374   23636247.2064  124209312.558 5  96786496.08642
      3944.840        3073.899
  21958731.202    21958731.1414   21958734.6094  115393948.590 7  89917385.34245
      2573.840        2005.589
  24430461.421    24430461.1784   24430463.5854  128382957.184 5 100038686.53441
      3709.941        2890.879
  24121073.950    24121073.5144   24121076.8904  126757103.924 5  98771789.64741
      1905.892        1485.110
  21716426.463    21716426.0724   21716428.5034  114120622.393 7  88925177.08745
       879.924         685.655
  20325042.248    20325041.8074   20325043.9294  106808855.201 8  83227707.89047
       374.453         291.783
  24150292.664    24150291.4104   24150292.5884  126910657.090 6  98891422.44942
      2847.920        2219.196
  21680661.137    21680660.7404   21680660.8984  113932666.659 8  88778723.04045
     -1770.338       -1379.485
  22959199.628    22959199.2084   22959202.8994  120651417.275 6  94014113.07043
       643.295         501.265
  22870980.979    22870980.5044   22870983.6024  120187841.452 6  93652886.63944
      2773.854        2161.442
  25212679.210    25212678.4044   25212684.2884  132493523.095 5 103241726.12641
      3357.590        2616.292
  22989189.204    22989188.6904   22989191.1554  120809033.969 7  94136939.85744
     -2766.520       -2155.738
  23437656.283    23437655.5314   23437657.6124  123165737.464 6  95973320.36543
     -3477.146       -2709.473
 08  5 13  0 36 30.0000000  0 13G 3G 6G 7G10G13G16G21G23G24G25G27G29
                                G31
  23613739.380    23613738.6714   23613742.9384  124091053.988 6  96694346.54242
      3939.110        3069.444
  21944076.950    21944076.3994   21944079.7414  115316938.006 7  89857377.14645
      2560.236        1994.987
  24409294.076    24409294.1604   24409297.6454  128271723.524 5  99952011.07141
      3705.538        2887.441
  24110244.328    24110243.5404   24110247.5394  126700193.508 6  98727443.89041
      1888.101        1471.260
  21711465.962    21711466.1654   21711468.4234  114094554.829 7  88904864.70545
       857.976         668.555
  20322955.429    20322954.9354   20322957.1254  106797888.650 8  83219162.51247
       356.698         277.947
  24134060.418    24134059.6514   24134061.4554  126825361.064 6  98824957.85342
      2838.525        2211.844
  21690823.304    21690822.8614   21690823.3174  113986070.082 8  88820336.08545
     -1789.847       -1394.685
  22955583.877    22955582.9574   22955587.0584  120632417.592 6  93999308.15143
       623.369         485.748
  22855175.451    22855175.0064   22855177.5274  120104780.264 7  93588163.66244
      2763.594        2153.452
  25193517.911    25193517.2704   25193522.5514  132392831.477 4 103163265.19241
      3355.289        2614.502
  23005018.754    23005018.6204   23005021.2384  120892217.952 6  94201758.53644
     -2779.066       -2165.506
  23457525.763    23457525.9544   23457527.1734  123270154.176 6  96054684.00543
     -3483.887       -2714.704
 08  5 13  0 37  0.0000000  0 13G 3G 6G 7G10G13G16G21G23G24G25G27G29
                                G31
  23591269.655    23591268.3954   23591272.3284  123972969.934 6  96602332.93442
      3933.350        3064.974
  21929500.464    21929499.8334   21929503.2944  115240337.021 7  89797688.07645
      2546.604        1984.369
  24388153.407    24388153.2124   24388156.5754  128160626.428 5  99865442.01442
      3701.096        2883.988
  24099517.339    24099515.7884   24099519.8414  126643819.097 6  98683515.78541
      1870.314        1457.376
  21706631.144    21706631.2354   21706633.3994  114069147.195 7  88885066.54845
       836.015         651.436
  20320970.335    20320969.6214   20320971.7894  106787455.879 8  83211033.08847
       338.968         264.129
  24117883.266    24117883.3574   24117885.6514  126740351.290 6  98758716.31342
      2829.012        2204.437
  21701097.321    21701096.8704   21701097.0824  114040059.515 7  88862405.76045
     -1809.266       -1409.816
  22952082.244    22952081.3904   22952085.8374  120614016.148 6  93984969.36543
       603.561         470.303
  22839427.684    22839427.5014   22839430.4874  120022027.668 7  93523681.14444
      2753.380        2145.490
  25174372.110    25174370.4544   25174376.9694  132292214.654 4 103084862.48241
      3352.875        2612.612
  23020919.506    23020918.9574   23020921.1304  120975777.479 6  94266869.83444
     -2791.456       -2175.159
  23477433.413    23477433.8054   23477435.3884  123374770.178 6  96136202.80543
     -3490.333       -2719.735
 08  5 13  0 37 30.0000000  0 13G 3G 6G 7G10G13G16G21G23G24G25G27G29
                                G31
  23568831.341    23568830.7944   23568834.8794  123855060.735 5  96510455.27642
      3927.287        3060.228
  21915001.843    21915001.3184   21915004.5954  115164146.601 7  89738318.93945
      2532.799        1973.606
  24367038.485    24367038.6414   24367041.5494  128049666.886 6  99778980.09142
      3696.308        2880.235
  24088891.264    24088890.8454   24088892.1284  126587981.626 6  98640006.04941
      1852.272        1443.327
  21701921.981    21701921.8814   21701923.8454  114044399.552 7  88865782.66445
       813.892         634.200
  20319086.332    20319085.6744   20319087.8234  106777555.745 8  83203318.68947
       321.097         250.206
  24101761.496    24101760.5164   24101762.2064  126655629.519 6  98692699.35042
      2819.265        2196.829
  21711481.763    21711481.4334   21711481.7894  114094632.053 7  88904929.79345
     -1828.773       -1425.021
  22948694.206    22948693.9444   22948697.2504  120596212.465 6  93971096.36543
       583.472         454.659
  22823739.464    22823738.7564   22823741.7824  119939584.576 7  93459439.78544
      2742.877        2137.309
  25155238.288    25155237.2724   25155243.0764  132191672.999 4 103006518.38041
      3350.046        2610.431
  23036890.450    23036890.6434   23036893.7754  121059709.311 6  94332271.25044
     -2803.891       -2184.849
  23497378.996    23497379.1754   23497381.2294  123479583.005 6  96217874.98043
     -3497.055       -2724.980
 08  5 13  0 38  0.0000000  0 13G 3G 6G 7G10G13G16G21G23G24G25G27G29
                                G31
  23546428.762    23546427.0894   23546431.1684  123737329.924 6  96418716.92642
      3921.405        3055.634
  21900581.401    21900581.4364   21900584.0234  115088367.772 7  89679270.57045
      2519.146        1962.975
  24345950.474    24345949.6444   24345953.2634  127938845.879 5  99692626.10542
      3691.796        2876.728
  24078368.137    24078367.5774   24078370.1374  126532682.346 5  98596915.67641
      1834.363        1429.373
  21697338.223    21697338.0714   21697339.9104  114020312.014 7  88847013.15045
       791.980         617.129
  20317303.800    20317303.0624   20317305.1404  106768187.840 8  83196019.03047
       303.443         236.448
  24085694.148    24085694.1154   24085696.6704  126571197.681 6  98626908.36342
      2809.583        2189.266
  21721977.421    21721976.7524   21721976.7974  114149784.709 7  88947905.89745
     -1848.004       -1440.005
  22945420.434    22945419.6974   22945423.4424  120579006.660 6  93957689.25443
       563.565         439.137
  22808109.616    22808109.3844   22808112.7444  119857451.900 7  93395440.32744
      2732.601        2129.302
  25136120.306    25136120.6774   25136125.9184  132091207.611 4 102928233.77941
      3347.583        2608.516
  23052933.293    23052933.1614   23052934.7924  121144010.133 6  94397960.18944
     -2816.109       -2194.376
  23517360.597    23517360.9884   23517362.7464  123584590.015 6  96299698.47243
     -3503.373       -2729.897
 08  5 13  0 38 30.0000000  0 13G 3G 6G 7G10G13G16G21G23G24G25G27G29
                                G31
  23524059.381    23524059.0774   23524062.7484  123619780.505 6  96327119.98542
      3915.369        3050.935
  21886240.624    21886240.0154   21886243.1234  115013004.140 7  89620545.66745
      2505.279        1952.167
  24324888.447    24324888.3774   24324892.1764  127828167.458 5  99606383.26042
      3686.869        2872.874
  24067948.121    24067947.1464   24067951.4664  126477924.964 5  98554247.56841
      1816.231        1415.251
  21692880.804    21692880.5044   21692882.7434  113996887.228 7  88828760.07045
       769.846         599.884
  20315622.503    20315621.9484   20315624.0994  106759353.556 8  83189135.17647
       285.638         222.576
  24069683.379    24069682.7824   24069685.5214  126487059.055 5  98561345.81542
      2799.772        2181.642
  21732582.897    21732582.3384   21732582.6904  114205517.159 7  88991333.75945
     -1867.326       -1455.058
  22942260.486    22942259.6224   22942263.2544  120562401.078 6  93944749.82443
       543.589         423.576
  22792540.670    22792540.2134   22792542.5284  119775633.517 7  93331685.76344
      2722.072        2121.091
  25117018.037    25117017.0394   25117021.5604  131990821.417 5 102850010.87941
      3344.935        2606.436
  23069043.907    23069043.8104   23069047.6904  121228678.830 6  94463935.76744
     -2828.312       -2203.870
  23537381.017    23537380.3744   23537382.3534  123689790.389 6  96381672.52143
     -3509.751       -2734.856
 08  5 13  0 39  0.0000000  0 13G 3G 6G 7G10G13G16G21G23G24G25G27G29
                                G31
  23501725.496    23501724.9774   23501729.3274  123502414.680 6  96235666.08742
      3909.112        3046.085
  21871978.483    21871978.0094   21871980.9814  114938056.457 7  89562144.81545
      2491.208        1941.208
  24303854.263    24303854.9804   24303857.3564  127717632.925 5  99520252.53342
      3681.994        2869.080
  24057629.617    24057629.2334   24057634.0464  126423710.631 4  98512002.63641
      1798.014        1401.043
  21688549.337    21688549.2264   21688551.4954  113974125.083 7  88811023.33945
       747.599         582.541
  20314042.824    20314042.1834   20314044.2874  106751052.216 8  83182666.62147
       267.737         208.626
  24053729.408    24053728.9314   24053730.2784  126403215.218 6  98496012.82442
      2789.786        2173.865
  21743298.411    21743297.9264   21743297.9884  114261826.721 7  89035211.35045
     -1886.669       -1470.135
  22939214.629    22939214.3774   22939217.2424  120546395.304 6  93932277.79143
       523.432         407.864
  22777030.627    22777030.4874   22777033.2724  119694130.238 7  93268176.71244
      2711.423        2112.794
  25097931.610    25097930.2364   25097935.1284  131890515.146 5 102771850.20941
      3342.094        2604.240
  23085227.122    23085226.4494   23085228.5834  121313712.104 7  94530195.45344
     -2840.612       -2213.471
  23557436.614    23557436.6714   23557437.8044  123795182.064 6  96463795.87143
     -3516.331       -2739.999
 08  5 13  0 39 30.0000000  0 13G 3G 6G 7G10G13G16G21G23G24G25G27G29
                                G31
  23479427.139    23479427.0504   23479430.5344  123385237.277 6  96144359.01842
      3902.651        3041.024
  21857796.434    21857795.9434   21857798.8134  114863530.200 7  89504072.52045
      2477.125        1930.233
  24282848.285    24282847.6824   24282851.1454  127607246.970 5  99434237.59041
      3676.904        2865.108
  24047417.915    24047416.8054   24047422.0794  126370044.144 4  98470184.68941
      1779.785        1386.841
  21684344.792    21684344.4594   21684346.8694  113952029.655 7  88793806.12745
       725.320         565.188
  20312565.203    20312564.4844   20312566.6084  106743286.529 8  83176615.43247
       249.859         194.694
  24037830.364    24037830.6364   24037831.9674  126319672.362 6  98430914.49242
      2779.668        2165.989
  21754123.359    21754123.0424   21754123.5334  114318714.273 8  89079539.31045
     -1905.922       -1485.137
  22936283.036    22936282.7714   22936286.3334  120530993.413 6  93920276.32443
       503.225         392.125
  22761582.208    22761582.0944   22761584.7274  119612947.092 7  93204917.14144
      2700.678        2104.423
  25078859.683    25078859.1414   25078862.4584  131790293.723 5 102693755.64141
      3339.322        2602.065
  23101477.023    23101476.8804   23101479.6674  121399110.530 6  94596739.66044
     -2852.771       -2222.942
  23577527.248    23577527.4684   23577530.5944  123900765.848 6  96546068.90843
     -3522.635       -2744.893
 08  5 13  0 40  0.0000000  0 13G 3G 6G 7G10G13G16G21G23G24G25G27G29
                                G31
  23457165.743    23457163.9624   23457168.4444  123268247.247 6  96053197.97642
      3896.557        3036.266
  21843694.313    21843693.6164   21843696.6024  114789422.679 7  89446326.39545
      2463.271        1919.437
  24261871.170    24261871.4054   24261873.3254  127497007.972 6  99348337.06742
      3672.146        2861.408
  24037310.822    24037308.5524   24037313.8924  126316924.079 5  98428792.46241
      1761.586        1372.651
  21680265.937    21680265.7444   21680268.3524  113930597.850 7  88777106.02245
       703.336         548.053
  20311188.503    20311187.9154   20311190.0684  106736052.656 8  83170978.66247
       232.269         180.989
  24021990.844    24021989.3054   24021992.8694  126236428.814 6  98366049.14942
      2769.733        2158.225
  21765057.653    21765057.2684   21765057.5514  114376173.645 7  89124312.83945
     -1924.805       -1499.849
  22933466.658    22933466.0254   22933470.1024  120516191.524 6  93908742.39543
       483.394         376.676
  22746194.329    22746193.6614   22746196.4494  119532082.033 7  93141905.41944
      2690.194        2096.256
  25059804.194    25059803.8504   25059807.6884  131690154.408 5 102615725.10941
      3336.700        2600.033
  23117796.300    23117796.5104   23117798.4934  121484867.866 6  94663563.54844
     -2864.540       -2232.113
  23597654.855    23597655.0874   23597658.1344  124006535.942 6  96628487.01243
     -3528.792       -2749.708
 08  5 13  0 40 30.0000000  0 13G 3G 6G 7G10G13G16G21G23G24G25G27G29
                                G31
  23434938.166    23434938.3564   23434941.4354  123151448.512 6  95962186.03142
      3890.108        3031.273
  21829672.481    21829671.8834   21829674.8344  114715737.616 7  89388909.55645
      2449.060        1908.343
  24240921.552    24240922.3784   24240924.0294  127386919.325 6  99262553.72342
      3667.078        2857.447
  24027307.346    24027306.2804   24027309.8284  126264353.457 5  98387828.39742
      1743.210        1358.333
  21676314.626    21676314.4274   21676316.5374  113909832.147 7  88760924.96845
       681.079         530.705
  20309913.592    20309912.8234   20309914.9274  106729351.802 8  83165757.21247
       214.477         167.123
  24006208.113    24006207.1924   24006209.0714  126153489.130 6  98301420.86642
      2759.534        2150.281
  21776100.691    21776100.2094   21776100.5734  114434204.518 7  89169531.69645
     -1943.846       -1514.684
  22930764.362    22930763.6104   22930768.2224  120501991.796 6  93897677.68143
       463.327         361.024
  22730867.368    22730866.8144   22730869.7884  119451538.519 7  93079144.23844
      2679.419        2087.853
  25040763.025    25040762.7924   25040766.8624  131590100.400 4 102537761.06141
      3333.748        2597.695
  23134183.351    23134183.1244   23134185.5544  121570983.037 6  94730666.26344
     -2876.441       -2241.384
  23617818.073    23617817.6564   23617820.6244  124112491.824 6  96711049.97043
     -3534.902       -2754.469
 08  5 13  0 41  0.0000000  0 13G 3G 6G 7G10G13G16G21G23G24G25G27G29
                                G31
  23412750.316    23412749.5404   23412753.0154  123034844.748 6  95871325.97642
      3883.417        3026.033
  21815731.550    21815731.1084   21815733.9654  114642478.232 7  89331824.41145
      2434.769        1897.223
  24220000.820    24220002.2084   24220004.5204  127276985.231 5  99176890.87942
      3661.749        2853.304
  24017408.403    24017407.1684   24017412.2214  126212336.576 5  98347295.78042
      1724.603        1343.843
  21672490.656    21672490.4484   21672491.9044  113889734.730 7  88745264.64345
       658.628         513.214
  20308740.161    20308739.4484   20308741.5984  106723185.935 8  83160952.63847
       196.497         153.116
  23990482.909    23990482.7224   23990484.5534  126070857.079 6  98237032.29742
      2749.067        2142.139
  21787252.261    21787251.7554   21787252.4114  114492806.094 7  89215195.24945
     -1962.974       -1529.595
  22928177.634    22928177.0604   22928180.8344  120488396.617 6  93887084.01143
       442.989         345.194
  22715601.816    22715601.5434   22715604.7034  119371320.358 7  93016636.60444
      2668.434        2079.302
  25021740.863    25021739.1924   25021744.5294  131490135.146 4 102459866.14541
      3330.480        2595.149
  23150638.286    23150638.4354   23150641.3564  121657455.067 6  94798047.07544
     -2888.429       -2250.730
  23638016.726    23638016.1014   23638017.8254  124218633.151 6  96793757.42243
     -3541.291       -2759.453
 08  5 13  0 41 30.0000000  0 13G 3G 6G 7G10G13G16G21G23G24G25G27G29
                                G31
  23390598.642    23390596.8004   23390602.2604  122918438.183 6  95780619.67542
      3876.836        3020.917
  21801871.625    21801871.2764   21801874.2774  114569645.301 7  89275071.51745
      2420.606        1886.182
  24199110.970    24199110.8024   24199113.4674  127167206.805 5  99091349.33042
      3656.593        2849.300
  24007614.955    24007614.2134   24007618.2454  126160874.417 5  98307195.39742
      1706.092        1329.405
  21668793.563    21668793.1544   21668794.9424  113870305.727 8  88730125.15545
       636.478         495.951
  20307668.337    20307667.7824   20307669.8204  106717554.007 8  83156564.12547
       178.803         139.324
  23974817.146    23974816.7084   23974819.5094  125988534.207 6  98172884.66042
      2738.896        2134.193
  21798511.667    21798511.3534   21798511.6254  114551975.470 7  89261301.25945
     -1981.773       -1544.240
  22925705.453    22925704.9464   22925708.8954  120475405.340 7  93876960.93543
       422.948         329.568
  22700398.970    22700398.8684   22700401.4294  119291428.458 7  92954383.19344
      2657.561        2070.827
  25002734.377    25002734.5024   25002738.3414  131390259.099 4 102382040.76041
      3327.730        2592.993
  23167161.241    23167161.2334   23167162.4724  121744281.089 6  94865703.67444
     -2900.104       -2259.820
  23658248.727    23658248.1104   23658251.2274  124324957.936 6  96876608.29243
     -3547.236       -2764.087
 08  5 13  0 42  0.0000000  0 13G 3G 6G 7G10G13G16G21G23G24G25G27G29
                                G31
  23368483.912    23368483.3204   23368488.4204  122802228.325 6  95690066.37743
      3870.277        3015.773
  21788093.089    21788092.5774   21788095.8784  114497238.892 7  89218650.90145
      2406.453        1875.161
  24178250.847    24178250.9284   24178253.5254  127057584.082 5  99005929.11942
      3651.441        2845.260
  23997926.892    23997927.1314   23997931.4234  126109966.430 5  98267526.89342
      1687.672        1315.076
  21665222.459    21665222.5754   21665224.9844  113851544.023 7  88715505.64145
       614.250         478.643
  20306697.926    20306697.2644   20306699.2824  106712453.869 8  83152589.99547
       161.114         125.546
  23959210.897    23959210.1354   23959212.6074  125906521.115 6  98108978.32142
      2728.586        2126.175
  21809878.351    21809878.1014   21809878.6834  114611708.821 7  89307846.71745
     -2000.500       -1558.829
  22923349.058    22923347.9694   22923351.4644  120463016.794 6  93867307.51943
       402.821         313.887
  22685258.550    22685258.0424   22685260.9594  119211862.807 7  92892383.99244
      2646.708        2062.357
  24983745.613    24983745.6024   24983749.7404  131290472.148 5 102304284.78241
      3324.656        2590.623
  23183748.702    23183748.9504   23183752.6404  121831456.250 6  94933632.39044
     -2911.656       -2268.812
  23678516.637    23678515.8174   23678517.7744  124431461.247 6  96959597.93343
     -3553.088       -2768.638
 08  5 13  0 42 30.0000000  0 13G 3G 6G 7G10G13G16G21G23G24G25G27G29
                                G31
  23346408.571    23346407.5854   23346411.8944  122686220.369 6  95599670.73642
      3863.587        3010.613
  21774396.601    21774396.0034   21774399.2914  114425262.542 7  89162565.40845
      2392.019        1863.917
  24157420.701    24157420.7664   24157422.8324  126948120.631 5  98920632.94842
      3646.008        2841.034
  23988346.425    23988345.6174   23988350.6124  126059615.914 6  98228292.74842
      1668.969        1300.496
  21661779.504    21661779.2464   21661782.3544  113833451.568 7  88701407.64745
       591.921         461.235
  20305828.748    20305828.1744   20305830.2164  106707886.966 8  83149031.37547
       143.332         111.687
  23943664.113    23943662.4084   23943665.6794  125824821.754 6  98045316.35542
      2717.999        2117.912
  21821352.505    21821351.9054   21821352.9594  114672005.466 8  89354831.10445
     -2019.260       -1573.450
  22921105.157    22921105.1524   22921109.1034  120451233.086 6  93858125.40543
       382.737         298.235
  22670180.297    22670179.6684   22670182.8814  119132626.984 7  92830641.81244
      2635.686        2053.776
  24964775.509    24964773.1134   24964778.2384  131190777.501 5 102226600.73641
      3321.371        2588.079
  23200405.633    23200405.3124   23200407.1674  121918979.683 6  95001832.41344
     -2923.252       -2277.860
  23698816.463    23698816.5444   23698819.2684  124538142.586 6  97042726.09243
     -3559.044       -2773.274
 08  5 13  0 43  0.0000000  0 13G 3G 6G 7G10G13G16G21G23G24G25G27G29
                                G31
  23324372.217    23324371.1814   23324374.2174  122570414.253 6  95509431.79642
      3856.724        3005.243
  21760781.790    21760781.2314   21760784.6674  114353716.831 7  89106815.49945
      2377.648        1852.726
  24136621.591    24136621.2234   24136623.7994  126838817.555 5  98835461.79742
      3640.757        2836.938
  23978871.087    23978869.5894   23978874.7054  126009824.294 5  98189494.06041
      1650.351        1285.998
  21658464.168    21658464.0914   21658466.6194  113816028.462 7  88687831.22645
       569.601         443.840
  20305061.094    20305060.4364   20305062.5074  106703852.292 8  83145887.47347
       125.621          97.889
  23928177.062    23928176.6614   23928178.5494  125743438.712 6  97981901.44942
      2707.452        2109.692
  21832933.207    21832932.6804   21832933.2244  114732861.913 7  89402251.71245
     -2037.874       -1587.949
  22918977.988    22918977.9094   22918981.4734  120440053.719 6  93849414.19443
       362.536         282.494
  22655165.160    22655164.4564   22655167.5234  119053721.637 7  92769157.15344
      2624.684        2045.208
  24945821.652    24945820.2504   24945824.9904  131091175.513 5 102148988.90541
      3318.481        2585.825
  23217124.466    23217124.5164   23217128.0804  122006847.791 6  95070301.06843
     -2934.669       -2286.752
  23719152.310    23719151.4324   23719153.2964  124644998.499 6  97125989.82743
     -3564.816       -2777.763
 08  5 13  0 43 30.0000000  0 13G 3G 6G 7G10G13G16G21G23G24G25G27G29
                                G31
  23302375.051    23302373.9484   23302376.7794  122454817.135 6  95419356.31842
      3849.775        2999.826
  21747249.884    21747249.3824   21747252.4714  114282605.607 7  89051404.04845
      2363.164        1841.431
  24115852.472    24115851.9294   24115855.1454  126729679.422 5  98750419.17742
      3635.237        2832.644
  23969502.295    23969501.4044   23969505.8734  125960595.355 5  98151133.87141
      1631.587        1271.340
  21655277.146    21655276.9544   21655278.7844  113799277.469 7  88674778.52045
       547.165         426.365
  20304395.102    20304394.3494   20304396.3304  106700352.023 8  83143159.99747
       107.823          84.017
  23912752.040    23912751.1004   23912753.1624  125662375.081 6  97918735.09242
      2696.778        2101.368
  21844620.122    21844619.7804   21844620.0884  114794278.049 7  89450108.44045
     -2056.463       -1602.440
  22916966.126    22916965.4464   22916969.8564  120429481.189 6  93841175.86043
       342.328         266.747
  22640213.598    22640213.1504   22640215.8144  118975150.964 7  92707933.25944
      2613.466        2036.463
  24926885.946    24926885.3654   24926889.8184  130991670.266 5 102071452.40141
      3315.289        2583.338
  23233912.140    23233912.1134   23233914.7044  122095060.461 6  95139038.15044
     -2946.101       -2295.661
  23739518.400    23739518.5604   23739520.4124  124752032.250 6  97209393.13343
     -3570.662       -2782.345
 08  5 13  0 44  0.0000000  0 13G 3G 6G 7G10G13G16G21G23G24G25G27G29
                                G31
  23280415.937    23280415.9844   23280419.6364  122339427.872 6  95329442.77842
      3842.725        2994.339
  21733800.700    21733800.2274   21733803.2814  114211929.484 7  88996331.81445
      2348.608        1830.084
  24095115.946    24095115.8304   24095118.6394  126620706.790 6  98665505.44942
      3629.633        2828.287
  23960241.091    23960239.5834   23960245.5104  125911929.259 5  98113212.20741
      1612.761        1256.722
  21652217.113    21652217.0314   21652218.6534  113783197.624 7  88662248.77145
       524.761         408.909
  20303830.132    20303829.5214   20303831.5114  106697384.088 8  83140847.33947
        90.038          70.160
  23897386.765    23897385.5934   23897388.3554  125581631.830 6  97855818.17242
      2686.036        2093.018
  21856413.853    21856413.0184   21856412.9924  114856250.404 7  89498398.59945
     -2075.038       -1616.910
  22915069.835    22915069.3384   22915073.1104  120419514.033 7  93833409.26243
       322.109         250.990
  22625325.513    22625325.1334   22625328.3214  118896915.348 7  92646970.46744
      2602.213        2027.699
  24907970.297    24907968.0924   24907973.2624  130892261.588 5 101993991.17041
      3311.952        2580.750
  23250761.715    23250762.2454   23250765.1684  122183613.306 6  95208040.37543
     -2957.407       -2304.474
  23759919.668    23759919.9684   23759921.1704  124859236.728 6  97292928.77443
     -3576.365       -2786.760
 08  5 13  0 44 30.0000000  0 13G 3G 6G 7G10G13G16G21G23G24G25G27G29
                                G31
  23258498.799    23258497.8164   23258501.7684  122224250.355 6  95239694.32643
      3835.595        2988.771
  21720434.555    21720434.1704   21720437.4424  114141690.254 7  88941599.89745
      2333.965        1818.679
  24074411.474    24074411.4944   24074414.6764  126511902.434 6  98580722.86542
      3623.855        2823.767
  23951089.190    23951086.3684   23951091.7054  125863828.920 5  98075731.40241
      1593.828        1241.938
  21649285.005    21649284.7414   21649287.0044  113767790.628 7  88650243.32145
       502.272         391.380
  20303366.770    20303366.1734   20303368.2034  106694949.153 8  83138949.98547
        72.206          56.264
  23882083.811    23882082.5614   23882084.9764  125501212.717 6  97793153.86342
      2675.099        2084.484
  21868311.850    21868311.3144   21868311.3204  114918777.443 7  89547120.97345
     -2093.523       -1631.315
  22913288.630    22913287.7754   22913291.9844  120410153.484 6  93826115.34643
       301.822         235.184
  22610502.582    22610501.8344   22610504.9414  118819017.414 7  92586270.79644
      2590.869        2018.861
  24889070.503    24889069.5094   24889074.4804  130792951.963 4 101916607.17741
      3308.558        2578.086
  23267679.157    23267678.9454   23267681.3354  122272505.039 6  95277306.64144
     -2968.775       -2313.334
  23780352.156    23780352.3284   23780354.5294  124966612.915 6  97376598.44243
     -3582.140       -2791.313
 08  5 13  0 45  0.0000000  0 13G 3G 6G 7G10G13G16G21G23G24G25G27G29
                                G31
  23236621.944    23236621.4324   23236625.8814  122109289.999 6  95150115.09343
      3828.453        2983.196
  21707152.662    21707152.1404   21707155.5214  114071893.216 7  88887212.61545
      2319.269        1807.222
  24053738.937    24053738.5784   24053742.0874  126403271.282 5  98496075.29242
      3618.191        2819.363
  23942044.370    23942043.7284   23942046.8864  125816298.965 5  98038695.06641
      1574.912        1227.210
  21646481.607    21646481.3994   21646483.9704  113753059.221 7  88638764.30445
       479.874         373.925
  20303005.353    20303004.7134   20303006.7894  106693049.912 8  83137470.05247
        54.480          42.452
  23866842.194    23866841.9724   23866844.2604  125421122.785 6  97730745.89342
      2664.281        2076.099
  21880315.720    21880315.5424   21880315.4244  114981859.676 7  89596275.96745
     -2111.892       -1645.637
  22911623.067    22911622.2144   22911627.0334  120401402.941 6  93819296.74243
       281.585         219.419
  22595743.837    22595743.3334   22595746.5064  118741461.857 7  92525837.92244
      2579.532        2010.023
  24870192.651    24870191.9524   24870197.5864  130693745.891 5 101839303.87941
      3305.185        2575.451
  23284658.431    23284658.0844   23284660.8984  122361735.671 6  95346836.96543
     -2979.870       -2321.986
  23800817.979    23800818.0854   23800819.6684  125074162.432 6  97460403.79843
     -3587.729       -2795.648
 08  5 13  0 45 30.0000000  0 13G 3G 6G 7G10G13G16G21G23G24G25G27G29
                                G31
  23214786.879    23214786.9224   23214791.1794  121994548.039 6  95060705.86143
      3821.052        2977.451
  21693954.602    21693954.4974   21693957.7214  114002539.076 7  88833170.46345
      2304.416        1795.639
  24033099.439    24033100.1054   24033103.6924  126294814.707 5  98411563.80842
      3612.295        2814.759
  23933109.188    23933106.6954   23933112.9844  125769339.939 5  98002103.64241
      1555.822        1212.325
  21643807.313    21643806.9674   21643809.4214  113739003.531 7  88627811.83045
       457.234         356.279
  20302745.707    20302745.1034   20302747.1524  106691685.485 8  83136406.86047
        36.569          28.491
  23851665.576    23851664.0924   23851667.4074  125341364.092 6  97668595.98042
      2653.045        2067.326
  21892425.266    21892424.5204   21892425.0494  115045494.301 7  89645861.39545
     -2130.371       -1660.033
  22910073.580    22910073.0744   22910076.9824  120393261.946 6  93812953.11243
       261.158         203.494
  22581050.949    22581050.6014   22581053.5744  118664250.042 7  92465672.87344
      2567.988        2001.031
  24851334.313    24851333.1044   24851337.9774  130594644.146 5 101762081.81541
      3301.607        2572.672
  23301703.110    23301703.1554   23301704.8114  122451302.100 6  95416629.00444
     -2991.142       -2330.758
  23821315.107    23821315.7594   23821318.6374  125181880.297 5  97544339.75243
     -3593.426       -2800.077
 08  5 13  0 46  0.0000000  0 13G 3G 6G 7G10G13G16G21G23G24G25G27G29
                                G31
  23192994.324    23192993.9054   23192997.8864  121880026.990 6  94971468.79643
      3813.598        2971.618
  21680841.922    21680841.4154   21680844.7154  113933629.315 7  88779474.56645
      2289.509        1784.041
  24012495.530    24012495.4464   24012498.1044  126186535.042 6  98327190.11542
      3606.322        2810.115
  23924281.578    23924280.1494   23924285.6254  125722954.257 5  97965959.00841
      1536.583        1197.349
  21641261.473    21641261.0604   21641263.3794  113725624.215 7  88617386.38945
       434.645         338.681
  20302587.859    20302587.1634   20302589.1874  106690855.487 8  83135760.10747
        18.709          14.579
  23836551.536    23836550.6724   23836552.7574  125261939.633 6  97606706.87742
      2641.813        2058.546
  21904638.892    21904638.5864   21904639.1964  115109678.890 7  89695875.35845
     -2148.681       -1674.298
  22908640.385    22908640.2524   22908644.4664  120385730.585 6  93807084.51943
       240.839         187.681
  22566423.690    22566423.0194   22566426.1634  118587383.595 7  92405776.96744
      2556.366        1991.974
  24832494.827    24832493.7354   24832498.3754  130495648.366 5 101684942.28441
      3298.080        2569.923
  23318809.416    23318809.3044   23318812.9254  122541201.989 6  95486680.82343
     -3002.312       -2339.466
  23841845.498    23841846.0614   23841848.2304  125289765.608 5  97628406.19443
     -3599.037       -2804.441
 08  5 13  0 46 30.0000000  0 13G 3G 6G 7G10G13G16G21G23G24G25G27G29
                                G31
  23171243.463    23171243.4274   23171246.7204  121765727.900 6  94882404.66743
      3806.172        2965.844
  21667813.628    21667813.0634   21667816.0944  113865163.987 7  88726124.93745
      2274.721        1772.503
  23991924.386    23991924.5614   23991926.8254  126078432.696 6  98242954.52042
      3600.357        2805.467
  23915564.436    23915562.9804   23915566.7994  125677141.533 5  97930260.76541
      1517.479        1182.449
  21638843.859    21638843.7584   21638845.6204  113712920.097 8  88607487.09145
       412.150         321.146
  20302531.258    20302530.5264   20302532.6274  106690558.172 8  83135528.41647
         0.978           0.760
  23821500.777    23821499.9054   23821502.9794  125182849.801 6  97545078.55842
      2630.692        2049.891
  21916957.042    21916956.3424   21916956.6384  115174409.013 7  89746314.42145
     -2166.788       -1688.402
  22907323.991    22907323.1714   22907327.1904  120378807.649 6  93801690.02943
       220.601         171.900
  22551862.391    22551861.6834   22551865.2604  118510862.826 7  92346150.42544
      2544.823        1982.970
  24813678.044    24813677.4054   24813680.4914  130396758.713 5 101607885.42841
      3294.522        2567.177
  23335980.100    23335979.8534   23335981.3534  122631430.723 6  95556988.95043
     -3013.102       -2347.878
  23862407.044    23862407.0444   23862408.4614  125397815.433 6  97712601.33443
     -3604.365       -2808.597
 08  5 13  0 47  0.0000000  0 13G 3G 6G 7G10G13G16G21G23G24G25G27G29
                                G31
  23149536.831    23149536.4804   23149540.7704  121651657.234 6  94793518.47643
      3798.531        2959.895
  21654870.453    21654870.1804   21654873.1864  113797149.569 7  88673126.82045
      2259.565        1760.694
  23971387.523    23971387.7464   23971390.6334  125970513.860 5  98158861.96142
      3594.165        2800.642
  23906956.629    23906955.4934   23906958.9994  125631907.820 6  97895013.74742
      1498.053        1167.309
  21636555.589    21636555.2884   21636557.4534  113700895.921 7  88598117.61745
       389.416         303.442
  20302576.778    20302576.1134   20302578.1234  106690797.425 8  83135714.84547
       -16.957         -13.215
  23806515.322    23806514.0424   23806517.4354  125104101.585 6  97483716.68742
      2619.250        2040.956
  21929379.214    21929378.3324   21929378.5524  115239686.997 7  89797180.38445
     -2185.061       -1702.647
  22906123.052    22906122.5254   22906126.8504  120372497.459 7  93796773.01543
       200.063         155.894
  22537367.729    22537367.4154   22537370.8114  118434693.923 7  92286798.05644
      2532.994        1973.759
  24794880.938    24794880.5534   24794883.7854  130297981.100 5 101530915.92741
      3290.589        2564.102
  23353212.340    23353212.2634   23353215.4874  122721990.106 6  95627554.66743
     -3024.165       -2356.482
  23882999.268    23882999.1764   23883001.4844  125506030.403 6  97796924.72943
     -3609.916       -2812.922
 08  5 13  0 47 30.0000000  0 13G 3G 6G 7G10G13G16G21G23G24G25G27G29
                                G31
  23127872.973    23127872.6584   23127876.6064  121537815.034 6  94704810.26343
      3790.943        2953.976
  21642013.570    21642012.8824   21642016.0124  113729584.372 7  88620478.59846
      2244.707        1749.123
  23950886.146    23950886.3254   23950890.0514  125862778.311 5  98074912.27842
      3588.140        2795.944
  23898458.172    23898458.0244   23898462.2334  125587252.391 6  97860217.33242
      1478.882        1152.383
  21634395.937    21634396.1274   21634398.1404  113689549.563 7  88589276.31245
       366.977         285.953
  20302723.966    20302723.1774   20302725.1884  106691570.477 8  83136317.23547
       -34.611         -26.970
  23791594.224    23791593.5274   23791596.0904  125025693.359 6  97422619.43842
      2607.916        2032.131
  21941904.187    21941903.4494   21941903.8814  115305507.609 7  89848469.17945
     -2202.979       -1716.608
  22905038.078    22905037.5294   22905042.1274  120366797.503 6  93792331.48743
       179.871         140.157
  22522939.863    22522939.5054   22522942.8014  118358876.282 7  92227719.38944
      2521.467        1964.778
  24776104.669    24776104.0124   24776108.3014  130199314.325 5 101454032.78441
      3287.074        2561.356
  23370508.377    23370507.6544   23370510.2144  122812875.105 6  95698374.12843
     -3034.850       -2364.815
  23903622.603    23903622.7224   23903624.3184  125614406.688 6  97881373.67443
     -3615.175       -2817.002
 08  5 13  0 48  0.0000000  0 13G 3G 6G 7G10G13G16G21G23G24G25G27G29
                                G31
  23106253.358    23106253.0034   23106256.8354  121424201.482 6  94616280.32843
      3783.350        2948.070
  21629241.628    21629241.1054   21629244.3434  113662467.826 7  88568179.89545
      2229.770        1737.482
  23930420.493    23930419.9304   23930423.0534  125755225.662 5  97991105.09342
      3582.003        2791.143
  23890071.524    23890070.1164   23890074.0204  125543174.425 6  97825870.89842
      1459.606        1137.343
  21632365.457    21632365.4224   21632367.3534  113678878.971 7  88580961.56245
       344.405         268.372
  20302972.030    20302971.3844   20302973.3814  106692874.661 8  83137333.48747
       -52.309         -40.761
  23776738.281    23776737.5664   23776741.1134  124947626.223 6  97361788.04842
      2596.566        2023.287
  21954531.812    21954531.2834   21954531.2654  115371866.051 7  89900177.05045
     -2220.887       -1730.560
  22904068.938    22904068.4964   22904073.1584  120361705.797 6  93788363.90643
       159.610         124.374
  22508579.389    22508578.7754   22508581.4144  118283409.067 7  92168913.78044
      2509.701        1955.609
  24757349.934    24757349.6384   24757353.3564  130100757.686 5 101377235.47541
      3283.278        2558.407
  23387862.592    23387862.9134   23387866.6594  122904080.874 6  95769443.54443
     -3045.550       -2373.147
  23924274.479    23924275.8204   23924278.0934  125722940.406 5  97965945.31843
     -3620.411       -2821.074
 08  5 13  0 48 30.0000000  0 13G 3G 6G 7G10G13G16G21G23G24G25G27G29
                                G31
  23084677.846    23084677.3904   23084680.8734  121310820.124 6  94527931.20643
      3775.431        2941.891
  21616555.787    21616555.1384   21616558.3834  113595803.177 7  88516233.46045
      2214.637        1725.684
  23909988.950    23909988.7884   23909991.2944  125647858.978 6  97907442.81443
      3575.803        2786.353
  23881793.756    23881792.3284   23881797.1684  125499676.942 5  97791976.77042
      1440.227        1122.239
  21630463.891    21630463.6324   21630465.7124  113668885.641 7  88573174.56345
       321.843         250.784
  20303321.647    20303320.8194   20303322.7804  106694710.739 8  83138764.19847
       -70.048         -54.584
  23761948.099    23761947.5304   23761950.1264  124869903.249 6  97301224.85342
      2585.044        2014.313
  21967261.323    21967260.8424   21967261.1704  115438761.373 7  89952303.27545
     -2238.744       -1744.474
  22903215.204    22903215.2494   22903219.9544  120357223.661 6  93784871.32543
       139.252         108.513
  22494285.486    22494285.0814   22494288.6684  118208295.540 7  92110383.77945
      2497.901        1946.406
  24738617.012    24738616.5014   24738619.3294  130002313.932 5 101300526.13341
      3279.682        2555.585
  23405280.935    23405280.4094   23405283.0654  122995606.068 6  95840761.84844
     -3056.103       -2381.371
  23944958.794    23944959.3774   23944961.5384  125831630.865 6  98050639.22443
     -3625.604       -2825.154
 08  5 13  0 49  0.0000000  0 13G 3G 6G 7G10G13G16G21G23G24G25G27G29
                                G31
  23063146.764    23063145.8814   23063149.7214  121197672.381 6  94439764.15043
      3767.736        2935.904
  21603955.855    21603955.1904   21603958.3694  113529590.296 7  88464638.98845
      2199.603        1713.975
  23889592.931    23889592.9744   23889595.7574  125540679.514 6  97823926.39643
      3569.568        2781.480
  23873625.527    23873625.2954   23873630.1164  125456759.904 5  97758534.93242
      1421.006        1107.277
  21628691.056    21628690.8604   21628692.7454  113659568.858 8  88565914.73945
       299.332         233.244
  20303771.842    20303771.1414   20303773.1344  106697077.312 8  83140608.28247
       -87.672         -68.317
  23747223.768    23747222.6954   23747225.8644  124792526.066 6  97240931.02542
      2573.518        2005.344
  21980092.819    21980092.2364   21980092.3204  115506189.960 7  90004845.02345
     -2256.425       -1758.252
  22902479.112    22902478.4624   22902482.2194  120353349.915 6  93781852.83143
       119.043          92.754
  22480059.421    22480058.9034   22480061.8884  118133536.219 7  92052129.80045
      2486.108        1937.223
  24719905.478    24719904.9264   24719908.4234  129903983.715 5 101223905.23142
      3275.759        2552.552
  23422757.027    23422756.4014   23422759.3904  123087446.923 6  95912326.14743
     -3066.588       -2389.544
  23965671.696    23965671.1184   23965673.0834  125940474.726 6  98135452.89043
     -3630.614       -2829.064
 08  5 13  0 49 30.0000000  0 13G 3G 6G 7G10G13G16G21G23G24G25G27G29
                                G31
  23041660.729    23041660.2364   23041664.1394  121084763.194 6  94351783.01943
      3759.648        2929.586
  21591442.808    21591442.4214   21591445.5354  113463834.238 8  88413400.50445
      2184.282        1702.037
  23869234.337    23869233.9034   23869236.5714  125433692.714 5  97740560.09143
      3563.016        2776.374
  23865570.831    23865570.4794   23865575.0284  125414428.113 5  97725549.16542
      1401.287        1091.916
  21627047.635    21627047.5794   21627049.3094  113650931.986 8  88559184.71045
       276.560         215.502
  20304323.556    20304322.8904   20304324.8794  106699977.043 8  83142867.82847
      -105.525         -82.226
  23732566.454    23732565.9074   23732567.7854  124715500.489 6  97180911.21242
      2561.685        1996.123
  21993025.611    21993025.0394   21993025.2344  115574152.294 7  90057802.68645
     -2274.260       -1772.153
  22901858.551    22901857.9874   22901862.0054  120350087.982 6  93779311.08243
        98.536          76.780
  22465901.739    22465901.2984   22465903.6744  118059136.217 7  91994155.76545
      2473.984        1927.780
  24701216.514    24701215.9404   24701219.2514  129805771.532 5 101147376.33242
      3271.817        2549.461
  23440294.193    23440294.1024   23440296.1244  123179603.950 6  95984136.81643
     -3077.105       -2397.741
  23986413.173    23986413.0694   23986414.4564  126049473.091 6  98220386.86843
     -3635.738       -2833.033
 08  5 13  0 50  0.0000000  0 13G 3G 6G 7G10G13G16G21G23G24G25G27G29
                                G31
  23020219.507    23020219.0194   23020223.5484  120972094.299 6  94263989.16543
      3751.577        2923.296
  21579017.206    21579016.5754   21579019.6344  113398535.470 8  88362518.32346
      2168.935        1690.080
  23848912.236    23848911.5344   23848914.4644  125326899.706 5  97657344.79242
      3556.511        2771.299
  23857627.020    23857625.5154   23857631.1244  125372682.410 5  97693020.11042
      1381.730        1076.661
  21625533.203    21625533.0134   21625535.4394  113642974.480 7  88552984.06845
       253.894         197.833
  20304976.597    20304976.0174   20304977.9614  106703408.832 8  83145541.95647
      -123.274         -96.062
  23717976.154    23717975.5934   23717977.6414  124638826.644 6  97121165.35743
      2549.850        1986.884
  22006059.211    22006058.8434   22006059.0054  115642644.958 7  90111173.60645
     -2291.934       -1785.927
  22901353.385    22901352.7074   22901358.3044  120347436.773 6  93777245.20543
        78.192          60.927
  22451812.183    22451811.7524   22451815.2574  117985096.472 7  91936462.49845
      2461.936        1918.388
  24682549.426    24682549.2344   24682553.7274  129707678.329 5 101070940.11442
      3267.699        2546.254
  23457888.958    23457889.5854   23457892.5734  123272073.372 6  96056190.89943
     -3087.569       -2405.903
  24007184.403    24007183.6094   24007185.9134  126158622.523 6  98305438.38343
     -3640.795       -2836.984
 08  5 13  0 50 30.0000000  0 13G 3G 6G 7G10G13G16G21G23G24G25G27G29
                                G31
  22998826.999    22998825.8414   22998829.8914  120859668.765 6  94176384.83043
      3743.474        2916.989
  21566678.549    21566678.0964   21566681.2754  113333696.544 7  88311994.45146
      2153.679        1678.181
  23828627.285    23828627.1694   23828628.9634  125220303.210 5  97574282.63742
      3549.975        2766.202
  23849795.140    23849793.7344   23849798.3914  125331524.802 5  97660949.26841
      1362.122        1061.395
  21624148.153    21624147.8764   21624150.5604  113635697.557 7  88547313.75045
       231.265         180.207
  20305731.034    20305730.2984   20305732.2954  106707372.954 8  83148630.90647
      -140.940        -109.825
  23703452.822    23703452.1354   23703455.2904  124562508.462 6  97061696.56143
      2538.115        1977.763
  22019193.542    22019192.9154   22019193.2584  115711666.306 7  90164956.46745
     -2309.425       -1799.550
  22900965.142    22900964.9864   22900970.0244  120345397.148 6  93775655.88943
        57.852          45.085
  22437792.460    22437792.0214   22437794.3144  117911419.437 7  91879051.83445
      2449.877        1908.996
  24663905.747    24663905.7284   24663909.3434  129609706.545 5 100994598.53141
      3263.717        2543.149
  23475546.162    23475545.7104   23475548.0834  123364853.874 6  96128487.36043
     -3097.798       -2413.862
  24027982.708    24027982.1904   24027985.0424  126267922.065 6  98390606.71343
     -3645.737       -2840.829
 08  5 13  0 51  0.0000000  0 13G 3G 6G 7G10G13G16G21G23G24G25G27G29
                                G31
  22977478.940    22977478.8364   22977481.9484  120747488.791 6  94088971.92743
      3735.262        2910.600
  21554427.807    21554427.1764   21554430.3084  113269317.993 7  88261829.35946
      2138.296        1666.202
  23808381.551    23808380.0074   23808382.8634  125113904.640 6  97491374.69543
      3543.316        2761.032
  23842074.067    23842073.9464   23842078.2014  125290955.757 5  97629337.03542
      1342.484        1046.075
  21622892.513    21622892.4504   21622894.9544  113629100.027 7  88542172.82245
       208.621         162.565
  20306586.240    20306585.7034   20306587.7604  106711868.125 8  83152133.66647
      -158.671        -123.638
  23688998.475    23688997.8934   23689000.0164  124486547.660 6  97002506.23543
      2526.040        1968.337
  22032428.037    22032427.2734   22032427.8524  115781212.959 7  90219148.64345
     -2326.909       -1813.169
  22900693.547    22900693.2134   22900697.6754  120343968.201 6  93774542.43143
        37.484          29.211
  22423840.439    22423840.0634   22423843.1644  117838106.165 7  91821924.62345
      2437.705        1899.513
  24645285.916    24645285.1744   24645288.8584  129511856.501 5 100918351.78141
      3259.663        2539.953
  23493259.394    23493259.6204   23493261.6754  123457941.821 6  96201023.42643
     -3108.001       -2421.817
  24048809.447    24048809.5304   24048810.4324  126377368.924 6  98475889.90543
     -3650.649       -2844.680
 08  5 13  0 51 30.0000000  0 13G 3G 6G 7G10G13G16G21G23G24G25G27G29
                                G31
  22956179.006    22956178.3814   22956182.0834  120635555.924 6  94001751.61643
      3726.800        2904.001
  21542264.477    21542264.0624   21542267.3864  113205400.669 7  88212023.73646
      2122.739        1654.082
  23788171.814    23788171.6234   23788174.1894  125007705.330 6  97408622.02143
      3536.477        2755.704
  23834466.522    23834465.3614   23834469.7514  125250976.139 5  97598184.10942
      1322.627        1030.612
  21621766.626    21621766.4364   21621768.4604  113623181.470 7  88537560.96645
       185.824         144.799
  20307542.537    20307541.9354   20307544.0424  106716893.043 8  83156049.16047
      -176.451        -137.489
  23674611.631    23674611.2134   23674613.3594  124410945.424 6  96943595.46843
      2513.952        1958.935
  22045761.077    22045760.7784   22045761.4694  115851281.438 7  90273747.44645
     -2344.383       -1826.786
  22900537.785    22900537.5424   22900541.0394  120343149.177 6  93773904.25343
        17.007          13.255
  22409959.824    22409959.2974   22409962.1304  117765157.675 7  91765081.67745
      2425.376        1889.905
  24626688.563    24626687.6954   24626692.2904  129414129.292 5 100842200.70841
      3255.311        2536.637
  23511031.590    23511031.1334   23511034.2224  123551333.847 6  96273796.40843
     -3118.245       -2429.808
  24069665.051    24069663.9384   24069665.8824  126486960.702 6  98561286.15543
     -3655.582       -2848.491
 08  5 13  0 52  0.0000000  0 13G 3G 6G 7G10G13G16G21G23G24G25G27G29
                                G31
  22934927.080    22934926.6384   22934930.1404  120523874.924 6  93914727.62343
      3718.547        2897.566
  21530189.992    21530189.4144   21530192.6984  113141948.592 8  88162580.55146
      2107.338        1642.084
  23768001.435    23768000.5994   23768003.4614  124901710.033 6  97326028.31743
      3529.769        2750.474
  23826972.188    23826970.6094   23826975.7054  125211590.889 5  97567494.31341
      1302.999        1015.324
  21620769.991    21620769.8604   21620771.8664  113617944.953 7  88533480.57045
       163.212         127.169
  20308600.006    20308599.3504   20308601.4544  106722449.788 8  83160379.08547
      -194.037        -151.203
  23660294.100    23660292.9464   23660295.7804  124335706.897 6  96884967.98743
      2501.912        1949.564
  22059194.356    22059194.0124   22059194.2294  115921872.102 7  90328753.16645
     -2361.660       -1840.262
  22900498.651    22900498.2554   22900501.7544  120342942.867 6  93773743.51643
        -3.241          -2.528
  22396147.966    22396147.5264   22396150.0534  117692578.339 7  91708526.35745
      2413.194        1880.407
  24608116.078    24608115.8164   24608119.0064  129316529.385 5 100766148.88041
      3251.278        2533.440
  23528862.035    23528861.9734   23528864.2554  123645030.179 6  96346806.52343
     -3128.149       -2437.523
  24090547.270    24090546.8864   24090548.1434  126596697.827 6  98646795.71643
     -3660.262       -2852.160
 08  5 13  0 52 30.0000000  0 13G 3G 6G 7G10G13G16G21G23G24G25G27G29
                                G31
  22913722.625    22913722.1594   22913725.5374  120412445.763 6  93827899.71043
      3710.049        2890.950
  21518203.908    21518203.5284   21518206.6634  113078961.288 7  88113499.52146
      2091.795        1629.973
  23747869.578    23747869.0434   23747871.8194  124795918.794 5  97243593.65343
      3522.971        2745.189
  23819589.326    23819589.4764   23819592.5214  125172798.834 5  97537266.74841
      1283.096         999.813
  21619903.417    21619903.2904   21619905.3034  113613388.606 8  88529930.17645
       140.497         109.473
  20309758.282    20309757.5694   20309759.6364  106728536.255 8  83165121.78147
      -211.754        -165.003
  23646046.560    23646045.5054   23646047.8834  124260832.682 6  96826624.41343
      2489.713        1940.033
  22072725.865    22072725.5344   22072725.9604  115992980.652 7  90384162.42345
     -2378.923       -1853.708
  22900574.792    22900573.9494   22900579.2644  120343347.029 6  93774058.44743
       -23.692         -18.461
  22382407.050    22382406.4194   22382408.9974  117620368.001 7  91652258.56545
      2400.769        1870.729
  24589567.226    24589567.1254   24589572.0744  129219056.368 5 100690195.89941
      3246.930        2530.073
  23546748.525    23546748.5974   23546750.5714  123739026.279 6  96420050.22343
     -3138.213       -2445.343
  24111455.767    24111456.4324   24111456.7214  126706576.273 6  98732415.40043
     -3665.035       -2855.876
 08  5 13  0 53  0.0000000  0 13G 3G 6G 7G10G13G16G21G23G24G25G27G29
                                G31
  22892567.668    22892566.9834   22892570.4404  120301273.170 6  93741271.73243
      3701.512        2884.301
  21506306.896    21506306.5494   21506309.5624  113016442.224 7  88064783.37746
      2076.291        1617.888
  23727778.050    23727777.4724   23727779.6914  124690335.708 6  97161321.14542
      3516.088        2739.802
  23812321.074    23812320.6634   23812324.6294  125134602.465 5  97507503.39941
      1263.322         984.407
  21619165.669    21619165.6364   21619168.2424  113609514.059 7  88526911.05045
       117.870          91.851
  20311017.495    20311016.8134   20311018.8994  106735153.610 8  83170278.15747
      -229.321        -178.695
  23631868.473    23631867.9594   23631869.7744  124186326.538 6  96768567.68843
      2477.504        1930.525
  22086355.945    22086355.3014   22086355.4794  116064605.464 7  90439973.93445
     -2395.950       -1866.973
  22900769.200    22900768.8154   22900772.9564  120344363.355 6  93774850.38643
       -43.938         -34.233
  22368736.579    22368736.2804   22368739.3614  117548530.332 7  91596281.18545
      2388.435        1861.122
  24571043.303    24571043.0924   24571047.7504  129121713.483 5 100614344.33642
      3242.682        2526.771
  23564692.422    23564692.4474   23564695.1294  123833321.158 6  96493526.73443
     -3147.987       -2452.979
  24132390.900    24132390.9434   24132393.0894  126816595.909 5  98818145.02642
     -3669.607       -2859.443
 08  5 13  0 53 30.0000000  0 13G 3G 6G 7G10G13G16G21G23G24G25G27G29
                                G31
  22871460.778    22871460.0994   22871464.0374  120190359.458 6  93654845.53943
      3692.823        2877.528
  21494499.337    21494498.8834   21494501.9774  112954392.597 7  88016433.00546
      2060.536        1605.606
  23707726.080    23707725.9104   23707728.0224  124584963.148 6  97079212.68443
      3508.944        2734.243
  23805166.358    23805165.3604   23805170.2644  125097004.282 5  97478206.11141
      1243.316         968.814
  21618558.278    21618557.9844   21618560.5574  113606321.810 7  88524423.59045
        95.063          74.070
  20312377.696    20312377.0154   20312379.1214  106742301.670 8  83175848.10447
      -247.078        -192.531
  23617760.653    23617759.7884   23617761.5894  124112190.900 6  96710799.73743
      2465.039        1920.818
  22100082.885    22100082.6054   22100082.7284  116136744.179 7  90496185.87545
     -2413.158       -1880.387
  22901078.646    22901078.3014   22901082.7984  120345991.635 6  93776119.18643
       -64.464         -50.233
  22355137.587    22355137.2114   22355139.1164  117477067.210 7  91540595.64145
      2375.866        1851.324
  24552544.563    24552544.0224   24552548.2374  129024502.638 5 100538595.67341
      3238.122        2523.202
  23582692.313    23582691.8434   23582695.0854  123927912.298 6  96567234.09243
     -3157.917       -2460.704
  24153354.458    24153353.6234   24153356.5034  126926754.522 6  98903982.91543
     -3674.198       -2863.019
 08  5 13  0 54  0.0000000  0 13G 3G 6G 7G10G13G16G21G23G24G25G27G29
                                G31
  22850403.721    22850403.3184   22850406.9954  120079706.875 6  93568622.88443
      3684.067        2870.698
  21482781.115    21482780.8084   21482783.9264  112892813.552 8  87968449.32546
      2044.798        1593.351
  23687715.368    23687714.8954   23687717.1744  124479802.639 6  96997269.43043
      3501.795        2728.680
  23798125.567    23798124.7574   23798128.6374  125060004.647 5  97449375.25841
      1223.349         953.265
  21618080.706    21618080.4514   21618082.7864  113603811.154 7  88522467.24645
        72.342          56.369
  20313838.742    20313838.0124   20313840.1014  106749979.309 8  83181830.69447
      -264.720        -206.275
  23603723.711    23603722.9084   23603725.2384  124038427.817 6  96653322.17443
      2452.537        1911.065
  22113908.157    22113907.6954   22113908.0614  116209393.955 7  90552796.03445
     -2430.120       -1893.601
  22901504.910    22901504.3994   22901508.1514  120348231.248 6  93777864.33743
       -84.791         -66.070
  22341610.278    22341609.9024   22341612.8154  117405979.820 7  91485202.86245
      2363.302        1841.534
  24534071.367    24534071.0474   24534075.1604  128927424.897 5 100462950.74941
      3233.654        2519.734
  23600747.928    23600748.4624   23600750.7424  124022796.730 6  96641169.98243
     -3167.643       -2468.294
  24174341.256    24174341.5564   24174343.5254  127037049.748 5  98989927.24942
     -3678.641       -2866.435
 08  5 13  0 54 30.0000000  0 13G 3G 6G 7G10G13G16G21G23G24G25G27G29
                                G31
  22829397.551    22829396.7684   22829400.6314  119969317.228 6  93482605.07143
      3675.246        2863.827
  21471153.104    21471152.6304   21471155.7594  112831706.858 8  87920833.73146
      2029.004        1581.043
  23667743.363    23667743.8664   23667746.6294  124374856.515 6  96915493.24143
      3494.621        2723.089
  23791199.647    23791198.3244   23791202.2634  125023604.731 5  97421011.67341
      1203.329         937.682
  21617732.756    21617732.3694   21617734.5734  113601982.390 8  88521042.23045
        49.593          38.645
  20315400.488    20315399.7244   20315401.7874  106758186.115 8  83188225.60447
      -282.374        -220.033
  23589758.321    23589757.4964   23589759.7824  123965039.373 6  96596136.52143
      2439.988        1901.284
  22127829.579    22127829.1384   22127829.6954  116282552.488 7  90609802.64645
     -2447.080       -1906.821
  22902046.993    22902046.3804   22902050.3584  120351082.600 6  93780086.19143
      -105.191         -81.974
  22328153.603    22328153.5884   22328157.0804  117335270.084 7  91430104.41245
      2350.707        1831.720
  24515624.081    24515623.8574   24515627.6084  128830482.225 5 100387411.07641
      3229.149        2516.218
  23618859.435    23618859.7804   23618861.4944  124117972.047 6  96715332.55543
     -3177.379       -2475.876
  24195356.828    24195357.1214   24195358.7084  127147480.045 6  99075976.90142
     -3683.265       -2870.076
 08  5 13  0 55  0.0000000  0 13G 3G 6G 7G10G13G16G21G23G24G25G27G29
                                G31
  22808442.337    22808441.5864   22808444.8534  119859194.934 6  93396795.59843
      3666.243        2856.817
  21459615.112    21459614.6724   21459617.9384  112771074.803 8  87873587.97746
      2013.127        1568.668
  23647815.050    23647814.3014   23647817.3344  124270127.851 5  96833886.58642
      3487.342        2717.415
  23784388.215    23784386.6694   23784390.7664  124987807.405 5  97393117.68041
      1183.186         921.968
  21617514.419    21617514.4664   21617516.4934  113600836.507 7  88520149.33845
        26.811          20.891
  20317062.933    20317062.1704   20317064.3314  106766922.489 8  83195033.17047
      -300.039        -233.796
  23575863.773    23575864.1674   23575866.2254  123892028.863 6  96539245.35343
      2427.362        1891.430
  22141847.585    22141847.3514   22141847.6524  116356217.822 7  90667204.17845
     -2463.913       -1919.931
  22902707.341    22902706.5264   22902710.0244  120354546.281 6  93782785.16743
      -125.693         -97.935
  22314771.711    22314771.2194   22314773.3134  117264941.015 7  91375302.53745
      2337.929        1821.762
  24497203.031    24497202.4614   24497206.9254  128733677.026 5 100311978.46341
      3224.510        2512.595
  23637025.550    23637025.6264   23637027.6814  124213436.580 6  96789720.48343
     -3186.900       -2483.297
  24216396.719    24216396.2184   24216398.9624  127258044.023 6  99162130.67043
     -3687.706       -2873.528
 08  5 13  0 55 30.0000000  0 13G 3G 6G 7G10G13G16G21G23G24G25G27G29
                                G31
  22787537.373    22787537.0424   22787540.5464  119749341.541 6  93311195.60843
      3657.247        2849.800
  21448167.884    21448167.4094   21448170.5944  112710919.122 8  87826713.44246
      1997.223        1556.274
  23627927.522    23627927.7704   23627929.5574  124165619.286 6  96752451.35842
      3479.833        2711.558
  23777690.468    23777689.5624   23777693.1034  124952614.028 6  97365694.26742
      1162.966         906.211
  21617426.674    21617426.4264   21617428.4594  113600373.864 7  88519788.85345
         3.987           3.107
  20318826.194    20318825.4534   20318827.5434  106776188.381 8  83202253.36847
      -317.713        -247.572
  23562043.338    23562042.9724   23562045.2304  123819398.114 6  96482649.87543
      2414.656        1881.558
  22155961.853    22155961.3284   22155961.2874  116430387.353 7  90724998.61844
     -2480.719       -1933.036
  22903483.066    22903482.3614   22903485.4394  120358622.137 6  93785961.16744
      -146.119        -113.860
  22301460.456    22301460.1524   22301463.4124  117194994.232 7  91320798.56945
      2325.113        1811.769
  24478808.035    24478807.1074   24478811.8374  128637011.124 5 100236654.39741
      3219.771        2508.915
  23655247.401    23655247.2634   23655248.7404  124309187.876 6  96864331.86243
     -3196.514       -2490.785
  24237460.754    24237460.5194   24237462.5044  127368740.057 5  99248387.28842
     -3692.121       -2876.967
 08  5 13  0 56  0.0000000  0 13G 3G 6G 7G10G13G16G21G23G24G25G27G29
                                G31
  22766684.893    22766684.3054   22766687.7454  119639760.640 6  93225807.93643
      3648.067        2842.648
  21436811.707    21436811.1524   21436814.4454  112651242.063 8  87780211.86646
      1981.185        1543.775
  23608082.238    23608082.4934   23608083.9394  124061333.746 6  96671189.88142
      3472.373        2705.744
  23771108.571    23771107.7084   23771111.7314  124918026.915 6  97338743.27142
      1142.776         890.488
  21617468.728    21617468.6694   21617470.5754  113600594.882 7  88519961.08545
       -18.832         -14.674
  20320690.174    20320689.5874   20320691.5524  106785984.204 8  83209886.49347
      -335.405        -261.356
  23548295.448    23548294.7234   23548297.6494  123747151.071 6  96426353.48643
      2401.767        1871.494
  22170171.644    22170170.7974   22170171.3724  116505059.663 7  90783184.81445
     -2497.469       -1946.078
  22904374.609    22904373.8334   22904378.2574  120363310.705 6  93789614.61443
      -166.520        -129.750
  22288223.713    22288223.1934   22288225.7274  117125432.845 7  91266594.91945
      2312.241        1801.740
  24460439.444    24460439.9254   24460443.4834  128540487.201 5 100161440.97841
      3215.046        2505.224
  23673522.269    23673521.9584   23673524.6234  124405224.525 6  96939165.59443
     -3206.010       -2498.181
  24258550.858    24258550.9264   24258552.3994  127479567.005 5  99334745.97542
     -3696.454       -2880.354
 08  5 13  0 56 30.0000000  0 13G 3G 6G 7G10G13G16G21G23G24G25G27G29
                                G31
  22745884.654    22745884.0334   22745887.7344  119530454.689 6  93140634.53743
      3638.934        2835.529
  21425546.840    21425546.3044   21425549.4604  112592044.324 8  87734083.76846
      1965.229        1531.344
  23588279.935    23588280.1484   23588282.2504  123957272.549 5  96590103.25842
      3464.975        2699.976
  23764641.674    23764641.5194   23764646.1064  124884046.307 6  97312264.86842
      1122.528         874.700
  21617640.939    21617640.4194   21617642.4934  113601498.949 7  88520665.56245
       -41.529         -32.361
  20322654.842    20322654.2354   20322656.2234  106796308.427 8  83217931.33047
      -352.929        -275.008
  23534620.421    23534619.8324   23534622.5284  123675289.741 6  96370357.84043
      2388.900        1861.495
  22184475.708    22184475.5174   22184476.3694  116580231.304 7  90841760.10844
     -2514.011       -1958.973
  22905382.435    22905382.0884   22905386.5004  120368611.080 6  93793744.77543
      -186.888        -145.631
  22275060.226    22275059.8034   22275062.1704  117056257.641 7  91212692.16645
      2299.384        1791.727
  24442099.962    24442098.7014   24442102.3254  128444106.359 5 100086339.08241
      3210.241        2501.479
  23691850.436    23691850.9514   23691853.2454  124501543.364 6  97014219.19043
     -3215.260       -2505.407
  24279663.917    24279664.5094   24279666.7124  127590522.105 5  99421204.43442
     -3700.621       -2883.598
 08  5 13  0 57  0.0000000  0 13G 3G 6G 7G10G13G16G21G23G24G25G27G29
                                G31
  22725136.831    22725136.1544   22725140.3294  119421425.475 6  93055676.80843
      3629.582        2828.235
  21414373.074    21414372.7074   21414375.8794  112533327.214 7  87688330.20346
      1949.143        1518.813
  23568521.004    23568521.2824   23568524.0214  123853438.046 6  96509193.29843
      3457.167        2693.887
  23758291.969    23758290.6804   23758295.8394  124850673.720 5  97286260.26142
      1102.225         858.875
  21617942.477    21617942.4954   21617944.2924  113603085.998 7  88521902.22345
       -64.367         -50.154
  20324719.968    20324719.3444   20324721.3184  106807160.456 8  83226387.46147
      -370.622        -288.797
  23521018.992    23521018.7274   23521020.9904  123603816.124 6  96314664.25043
      2375.950        1851.387
  22198874.963    22198874.6804   22198875.0584  116655899.467 7  90900722.27444
     -2530.586       -1971.883
  22906507.876    22906506.9754   22906511.1034  120374523.103 6  93798351.56343
      -207.295        -161.536
  22261970.369    22261969.7504   22261972.8714  116987470.447 7  91159091.77345
      2286.348        1781.573
  24423785.933    24423784.8754   24423789.3364  128347870.121 5 100011349.86641
      3205.454        2497.739
  23710233.280    23710232.8104   23710236.0984  124598141.607 6  97089490.50443
     -3224.628       -2512.687
  24300801.961    24300802.2714   24300804.1714  127701603.656 5  99507761.47642
     -3704.874       -2886.905
 08  5 13  0 57 30.0000000  0 13G 3G 6G 7G10G13G16G21G23G24G25G27G29
                                G31
  22704442.531    22704441.7894   22704445.3874  119312674.485 6  92970935.89043
      3620.403        2821.083
  21403291.241    21403290.7544   21403293.8954  112475091.032 8  87642951.38746
      1933.216        1506.405
  23548805.524    23548805.0144   23548808.5674  123749831.270 6  96428460.82443
      3449.738        2688.099
  23752056.289    23752055.2074   23752060.4254  124817908.699 5  97260729.08942
      1082.121         843.214
  21618374.186    21618373.8994   21618376.1304  113605354.892 8  88523670.19545
       -86.954         -67.757
  20326885.161    20326884.6154   20326886.4984  106818538.852 8  83235253.76147
      -388.004        -302.342
  23507492.460    23507491.5714   23507494.7504  123532730.812 6  96259273.23943
      2363.057        1841.341
  22213368.096    22213367.7864   22213368.2704  116732060.677 7  90960068.65144
     -2546.811       -1984.526
  22907749.324    22907748.8254   22907752.5234  120381045.169 6  93803433.70143
      -227.529        -177.295
  22248954.321    22248954.1764   22248956.6384  116919072.018 7  91105794.30145
      2273.497        1771.553
  24405500.544    24405499.8264   24405504.1844  128251778.858 5  99936473.63642
      3200.700        2494.052
  23728667.292    23728667.1824   23728670.3414  124695015.532 6  97164976.65043
     -3233.618       -2519.703
  24321965.111    24321964.4644   24321966.7284  127812808.288 5  99594414.43442
     -3708.719       -2889.897
 08  5 13  0 58  0.0000000  0 13G 3G 6G 7G10G13G16G21G23G24G25G27G29
                                G31
  22683801.041    22683800.3774   22683804.5664  119204204.650 6  92886414.03543
      3610.946        2813.721
  21392301.345    21392300.7334   21392303.7994  112417338.114 8  87597949.14946
      1917.005        1493.769
  23529134.274    23529133.8254   23529136.4664  123646455.193 6  96347908.08443
      3441.938        2682.037
  23745937.496    23745936.5044   23745941.3574  124785753.783 5  97235673.34742
      1061.610         827.230
  21618935.840    21618935.6434   21618937.9954  113608306.270 8  88525969.96645
      -109.806         -85.564
  20329150.620    20329150.0024   20329151.9434  106830443.510 8  83244530.11547
      -405.620        -316.068
  23494039.024    23494038.1534   23494041.1234  123462037.085 6  96204187.43943
      2349.902        1831.077
  22227954.715    22227954.1264   22227954.6404  116808712.696 7  91019797.50344
     -2563.273       -1997.353
  22909106.911    22909105.9774   22909110.1424  120388177.870 6  93808991.66343
      -247.975        -193.222
  22236013.232    22236012.5484   22236015.5494  116851064.822 7  91052801.68145
      2260.330        1761.296
  24387242.873    24387242.9084   24387245.5524  128155835.219 5  99861712.43242
      3195.628        2490.093
  23747153.867    23747154.2994   23747156.7734  124792163.655 6  97240676.44943
     -3242.830       -2526.877
  24343148.925    24343148.0874   24343151.2434  127924134.774 5  99681162.29443
     -3712.892       -2893.158
 08  5 13  0 58 30.0000000  0 13G 3G 6G 7G10G13G16G21G23G24G25G27G29
                                G31
  22663213.659    22663213.1344   22663216.5314  119096018.380 6  92802113.08543
      3601.473        2806.344
  21381403.249    21381402.8184   21381405.9374  112360069.848 8  87553324.53946
      1900.893        1481.213
  23509506.239    23509505.6374   23509507.2504  123543312.337 6  96267537.01142
      3434.208        2676.014
  23739935.458    23739933.9644   23739938.4744  124754210.312 5  97211094.02942
      1041.349         811.431
  21619627.333    21619627.1214   21619629.3714  113611940.071 7  88528801.50245
      -132.455        -103.209
  20331516.146    20331515.5394   20331517.4494  106842874.457 8  83254216.56447
      -423.073        -329.662
  23480662.006    23480661.1334   23480663.6274  123391737.274 6  96149408.53443
      2336.735        1820.835
  22242633.759    22242633.3194   22242634.3974  116885853.029 7  91079906.83444
     -2579.410       -2009.927
  22910580.065    22910579.2214   22910583.7434  120395921.472 6  93815025.63843
      -268.259        -209.028
  22223146.413    22223146.1084   22223149.0644  116783450.758 7  91000115.40445
      2247.275        1751.122
  24369013.523    24369012.7464   24369017.0334  128060041.380 5  99787067.92441
      3190.637        2486.219
  23765692.751    23765692.3634   23765694.9764  124889583.389 6  97316587.88443
     -3251.731       -2533.819
  24364356.123    24364356.4904   24364358.9214  128035581.453 5  99768003.79942
     -3716.867       -2896.230
 08  5 13  0 59  0.0000000  0 13G 3G 6G 7G10G13G16G21G23G24G25G27G29
                                G31
  22642681.544    22642680.8254   22642684.7394  118988118.960 6  92718035.69143
      3591.875        2798.857
  21370598.342    21370597.8104   21370600.7134  112303288.543 8  87509079.36446
      1884.588        1468.510
  23489923.602    23489923.7184   23489925.8274  123440405.434 6  96187349.85542
      3426.316        2669.861
  23734049.016    23734046.8654   23734052.9484  124723279.777 5  97186992.32742
      1020.740         795.372
  21620448.872    21620448.6894   21620450.9344  113616256.713 8  88532165.12645
      -155.235        -120.969
  20333981.759    20333981.1434   20333983.0464  106855831.485 8  83264312.96347
      -440.670        -343.387
  23467360.026    23467358.5794   23467361.2464  123321834.518 6  96094939.08043
      2323.478        1810.518
  22257405.916    22257405.1724   22257405.8744  116963479.619 7  91140395.08644
     -2595.639       -2022.573
  22912169.857    22912169.1804   22912173.4814  120404275.842 6  93821535.54143
      -288.652        -224.919
  22210355.213    22210354.7014   22210357.5114  116716232.375 7  90947737.45245
      2234.021        1740.791
  24350813.847    24350813.1224   24350816.9394  127964399.516 5  99712541.80241
      3185.488        2482.201
  23784282.127    23784282.4104   23784285.0464  124987272.721 6  97392709.39543
     -3260.777       -2540.864
  24385587.582    24385587.1474   24385588.5734  128147147.039 6  99854938.02842
     -3720.800       -2899.328
 08  5 13  0 59 30.0000000  0 13G 3G 6G 7G10G13G16G21G23G24G25G27G29
                                G31
  22622203.284    22622203.0434   22622206.3794  118880508.105 6  92634183.07843
      3582.116        2791.263
  21359885.878    21359885.3164   21359888.2624  112246994.273 8  87465213.72746
      1868.291        1455.812
  23470386.285    23470386.5344   23470388.5574  123337735.837 6  96107347.58143
      3418.300        2663.612
  23728279.482    23728278.6214   23728283.1104  124692962.502 5  97163368.50842
      1000.236         779.390
  21621399.893    21621399.6704   21621401.9754  113621255.018 7  88536059.91345
      -178.014        -138.715
  20336547.143    20336546.5634   20336548.4714  106869313.023 8  83274818.05247
      -458.166        -357.011
  23454133.445    23454132.6114   23454134.4654  123252329.587 6  96040779.48243
      2310.144        1800.107
  22272269.481    22272268.9444   22272269.8144  117041588.567 7  91201259.18944
     -2611.653       -2035.055
  22913875.625    22913875.2284   22913879.0654  120413239.501 6  93828520.20743
      -308.970        -240.764
  22197639.930    22197639.1734   22197642.0684  116649410.638 7  90895668.57445
      2220.734        1730.441
  24332642.831    24332641.8254   24332645.5464  127868910.430 5  99638134.79642
      3180.446        2478.258
  23802922.320    23802922.3294   23802924.3624  125085228.618 5  97469038.68442
     -3269.662       -2547.789
  24406837.864    24406838.1144   24406840.6854  128258829.016 5  99941962.99642
     -3724.631       -2902.308
 08  5 13  1  0  0.0000000  0 13G 3G 6G 7G10G13G16G21G23G24G25G27G29
                                G31
  22601781.101    22601780.6434   22601784.4754  118773188.778 6  92550557.69843
      3572.403        2783.683
  21349266.341    21349265.8144   21349268.9374  112191188.800 8  87421728.96346
      1851.951        1443.075
  23450893.711    23450894.2764   23450896.9254  123235306.081 6  96027532.20943
      3410.234        2657.317
  23722627.642    23722626.1374   23722631.6314  124663260.116 5  97140223.81442
       979.741         763.443
  21622481.057    21622480.8784   21622482.3484  113626935.263 8  88540486.07245
      -200.740        -156.424
  20339212.566    20339211.7854   20339213.7344  106883319.000 8  83285731.81247
      -475.647        -370.638
  23440983.363    23440982.3224   23440984.3214  123183225.271 6  95986931.99343
      2296.753        1789.658
  22287224.521    22287223.7724   22287224.3014  117120177.473 7  91262497.27644
     -2627.654       -2047.526
  22915697.175    22915696.6284   22915700.6984  120422812.632 6  93835979.80643
      -329.319        -256.609
  22184999.657    22184999.2484   22185002.1954  116582987.681 7  90843910.42845
      2207.398        1720.045
  24314501.017    24314500.7834   24314504.7374  127773576.050 5  99563848.32242
      3175.162        2474.153
  23821613.216    23821613.1284   23821616.2844  125183448.525 6  97545573.67743
     -3278.407       -2554.609
  24428113.686    24428113.1444   24428115.8174  128370625.169 5 100029076.92442
     -3728.451       -2905.303
 08  5 13  1  0 30.0000000  0 13G 3G 6G 7G10G13G16G21G23G24G25G27G29
                                G31
  22581414.891    22581414.0064   22581417.5564  118666162.463 6  92467160.63543
      3562.681        2776.113
  21338739.782    21338739.4824   21338742.6074  112135872.885 8  87378625.67546
      1835.749        1430.452
  23431448.634    23431448.6244   23431451.1914  123133117.964 6  95947905.13843
      3402.298        2651.147
  23717091.560    23717090.4594   23717096.6394  124634172.942 5  97117558.51142
       959.410         747.601
  21623691.431    21623691.3074   21623692.9204  113633296.455 7  88545442.84145
      -223.331        -174.025
  20341977.083    20341976.5214   20341978.5734  106897848.088 8  83297053.18047
      -492.954        -384.121
  23427909.490    23427908.6194   23427910.5574  123114523.140 6  95933397.82043
      2283.408        1779.308
  22302270.414    22302269.6954   22302269.9364  117199243.328 7  91324107.00744
     -2643.372       -2059.775
  22917634.551    22917633.8444   22917638.5234  120432994.119 6  93843913.44643
      -349.442        -272.294
  22172435.825    22172435.3544   22172438.2624  116516964.376 7  90792463.70945
      2194.189        1709.758
  24296388.738    24296388.2924   24296392.9904  127678397.621 5  99489683.33242
      3170.050        2470.150
  23840353.899    23840354.0374   23840356.7654  125281929.522 6  97622312.07643
     -3286.919       -2561.234
  24449408.279    24449406.8964   24449411.1764  128482533.139 5 100116277.92142
     -3732.023       -2908.054
 08  5 13  1  1  0.0000000  0 13G 3G 6G 7G10G13G16G21G23G24G25G27G29
                                G31
  22561105.309    22561104.8094   22561108.4224  118559433.915 6  92383995.55743
      3552.665        2768.302
  21328307.384    21328306.8914   21328310.1114  112081050.308 7  87335906.78746
      1819.249        1417.595
  23412049.058    23412049.0874   23412052.4084  123031176.318 6  95868470.14243
      3393.961        2644.637
  23711674.668    23711673.3604   23711678.5644  124605704.219 5  97095375.11042
       938.642         731.405
  21625031.753    21625031.6154   21625033.7284  113640340.570 7  88550931.76145
      -246.139        -191.797
  20344841.789    20344841.2104   20344843.2064  106912902.107 8  83308783.60847
      -510.494        -397.789
  23414913.461    23414912.9214   23414914.8534  123046228.148 6  95880180.87943
      2269.749        1768.628
  22317406.411    22317406.1664   22317406.6014  117278785.789 7  91386088.13844
     -2659.264       -2072.158
  22919688.227    22919687.3784   22919692.1604  120443785.872 6  93852322.59443
      -369.826        -288.177
  22159949.126    22159948.5434   22159951.1914  116451344.858 7  90741331.61445
      2180.605        1699.176
  24278308.224    24278307.9554   24278311.9284  127583379.241 5  99415643.08242
      3164.718        2466.005
  23859142.793    23859142.6804   23859146.1794  125380671.487 5  97699253.80743
     -3295.721       -2568.079
  24470725.861    24470725.7604   24470726.9514  128594553.285 6 100203566.40642
     -3735.897       -2911.089
 08  5 13  1  1 30.0000000  0 13G 3G 6G 7G10G13G16G21G23G24G25G27G29
                                G31
  22540851.877    22540851.3254   22540855.1334  118453004.373 6  92301063.52243
      3542.681        2760.524
  21317968.899    21317968.4864   21317971.6274  112026721.009 7  87293572.30846
      1802.772        1404.759
  23392698.195    23392698.4094   23392700.5204  122929481.901 6  95789227.79543
      3385.700        2638.200
  23706374.945    23706373.6724   23706379.4774  124577854.162 5  97073673.76442
       918.044         715.380
  21626501.979    21626501.9284   21626504.1764  113648066.071 7  88556951.63445
      -268.820        -209.469
  20347806.071    20347805.4244   20347807.3824  106928479.135 8  83320921.54547
      -527.896        -411.347
  23401994.704    23401994.4474   23401996.6594  122978341.207 6  95827281.92643
      2256.079        1757.975
  22332632.898    22332632.5924   22332632.9354  117358800.664 7  91448437.38844
     -2674.968       -2084.389
  22921857.832    22921857.5854   22921861.5434  120455186.351 7  93861206.07343
      -390.082        -303.961
  22147538.794    22147538.5674   22147541.3504  116386129.921 7  90690514.79545
      2167.135        1688.682
  24260256.886    24260255.8254   24260260.5054  127488521.391 5  99341727.94142
      3159.284        2461.769
  23877982.900    23877982.4264   23877985.4364  125479670.500 6  97776395.83443
     -3304.185       -2574.688
  24492062.939    24492062.3944   24492065.0084  128706682.466 5 100290939.84142
     -3739.386       -2913.817
 08  5 13  1  2  0.0000000  0 13G 3G 6G 7G10G13G16G21G23G24G25G27G29
                                G31
  22520656.376    22520656.0864   22520659.9094  118346874.488 7  92218364.94344
      3532.622        2752.692
  21307724.198    21307723.6844   21307726.8804  111972884.627 8  87251621.88746
      1786.331        1391.944
  23373393.023    23373392.9264   23373395.4784  122828035.193 6  95710178.46343
      3377.364        2631.716
  23701193.096    23701191.9044   23701197.0834  124550621.549 5  97052453.58041
       897.408         699.283
  21628101.524    21628101.4254   21628103.7084  113656471.000 7  88563500.93445
      -291.466        -227.115
  20350869.398    20350868.7484   20350870.6644  106944576.858 8  83333465.22747
      -545.268        -424.882
  23389154.536    23389153.3434   23389155.9094  122910862.596 6  95774701.29743
      2242.472        1747.377
  22347948.606    22347947.9454   22347948.4704  117439283.443 7  91511151.23444
     -2690.502       -2096.496
  22924143.063    22924142.6304   22924146.2574  120467193.584 6  93870562.34943
      -410.313        -319.719
  22135205.939    22135205.7254   22135208.1284  116321319.762 7  90640013.38845
      2153.575        1678.112
  24242236.999    24242235.4154   24242240.7614  127393824.009 5  99267937.81042
      3153.835        2457.523
  23896870.134    23896869.9104   23896872.0934  125578922.474 6  97853734.98543
     -3312.577       -2581.220
  24513420.574    24513420.0804   24513422.7144  128818917.300 5 100378395.53742
     -3742.928       -2916.530
 08  5 13  1  2 30.0000000  0 13G 3G 6G 7G10G13G16G21G23G24G25G27G29
                                G31
  22500518.569    22500518.2504   22500521.5864  118241049.415 7  92135903.90644
      3522.481        2744.785
  21297574.206    21297573.5894   21297576.6824  111919545.119 8  87210058.63946
      1769.780        1379.047
  23354136.441    23354136.1414   23354138.6204  122726840.794 6  95631325.71243
      3369.051        2625.227
  23696129.084    23696127.6204   23696133.0534  124524010.535 5  97031717.77442
       876.713         683.169
  21629830.891    21629830.5774   21629832.6674  113665557.571 8  88570581.38145
      -314.145        -244.793
  20354032.134    20354031.4324   20354033.3724  106961197.255 8  83346416.21547
      -562.615        -438.400
  23376391.473    23376391.0464   23376393.3924  122843797.469 6  95722442.84743
      2228.727        1736.669
  22363353.207    22363352.5344   22363352.7404  117520233.996 7  91574229.57844
     -2706.047       -2108.612
  22926543.505    22926542.4444   22926547.0074  120479809.350 6  93880392.80743
      -430.587        -335.525
  22122950.923    22122950.3354   22122952.9724  116256918.562 7  90589830.64845
      2139.975        1667.509
  24224248.208    24224246.9494   24224250.7524  127299291.715 5  99194276.31842
      3148.348        2453.252
  23915805.110    23915805.3034   23915807.6854  125678427.396 6  97931271.27143
     -3321.000       -2587.777
  24534797.810    24534797.4714   24534799.2084  128931258.024 5 100465933.79242
     -3746.371       -2919.271
 08  5 13  1  3  0.0000000  0 13G 3G 6G 7G10G13G16G21G23G24G25G27G29
                                G31
  22480438.532    22480438.2794   22480441.0814  118135529.539 6  92053680.65844
      3512.146        2736.737
  21287518.305    21287517.8614   21287521.1054  111866701.722 8  87168881.95746
      1753.092        1366.047
  23334928.357    23334928.0124   23334930.3764  122625899.476 6  95552670.15443
      3360.378        2618.480
  23691183.182    23691181.7964   23691187.0864  124498020.381 5  97011465.69442
       855.948         666.956
  21631688.893    21631688.7394   21631691.0754  113675323.489 7  88578191.19245
      -336.898        -262.513
  20357293.767    20357293.1444   20357295.0514  106978337.783 8  83359772.47647
      -580.049        -451.985
  23363708.392    23363707.5654   23363710.2114  122777145.411 6  95670506.21843
      2214.794        1725.801
  22378845.747    22378844.8404   22378845.3504  117601647.539 7  91637668.70044
     -2721.539       -2120.682
  22929059.442    22929058.6634   22929063.0704  120493031.003 6  93890695.38643
      -450.867        -351.331
  22110773.392    22110772.9894   22110775.8914  116192925.938 7  90539966.27045
      2126.211        1656.789
  24206290.762    24206289.5904   24206293.3194  127204924.211 5  99120743.24242
      3142.828        2448.954
  23934787.497    23934787.3934   23934788.8544  125778180.734 6  98009001.13443
     -3329.271       -2594.235
  24556196.188    24556195.3704   24556196.2054  129043700.905 5 100553551.66242
     -3749.881       -2921.954
 08  5 13  1  3 30.0000000  0 13G 3G 6G 7G10G13G16G21G23G24G25G27G29
                                G31
  22460416.867    22460416.7524   22460420.2394  118030317.346 6  91971697.20244
      3501.959        2728.794
  21277557.158    21277556.7764   21277559.8384  111814355.689 8  87128092.84346
      1736.561        1353.165
  23315768.594    23315768.5634   23315770.5964  122525213.612 6  95474213.66944
      3351.927        2611.881
  23686356.739    23686355.1834   23686358.9684  124472651.245 5  96991697.58442
       835.232         650.828
  21633676.430    21633676.0804   21633678.4434  113685768.234 7  88586329.96045
      -359.485        -280.119
  20360654.302    20360653.6164   20360655.5054  106995997.200 8  83373533.06347
      -597.293        -465.424
  23351104.000    23351103.1834   23351105.1924  122710909.125 6  95618893.70843
      2200.917        1714.988
  22394424.862    22394424.5624   22394425.4594  117683521.163 7  91701466.30944
     -2736.747       -2132.529
  22931690.725    22931690.3844   22931694.5594  120506858.015 6  93901469.67643
      -471.008        -367.018
  22098673.594    22098673.3094   22098675.9724  116129343.632 7  90490421.64245
      2112.540        1646.134
  24188364.800    24188364.0344   24188367.6374  127110723.150 6  99047339.87042
      3137.261        2444.611
  23953815.406    23953815.9474   23953817.8954  125878180.481 5  98086923.02742
     -3337.361       -2600.540
  24577611.339    24577611.0154   24577613.5244  129156244.223 5 100641247.79842
     -3753.086       -2924.486
 08  5 13  1  4  0.0000000  0 13G 3G 6G 7G10G13G16G21G23G24G25G27G29
                                G31
  22440454.499    22440453.9764   22440458.0454  117925416.319 6  91889956.20344
      3491.452        2720.610
  21267691.068    21267690.7134   21267693.8264  111762509.290 8  87087693.05846
      1719.809        1340.111
  23296657.624    23296657.5004   23296660.0644  122424786.386 6  95395958.71944
      3343.170        2605.061
  23681647.287    23681646.1084   23681650.5644  124447905.452 5  96972415.18342
       814.426         634.613
  21635792.963    21635792.7964   21635795.2504  113696892.398 8  88594998.14945
      -382.181        -297.808
  20364113.548    20364112.9404   20364114.8644  107014176.124 8  83387698.46247
      -614.669        -478.961
  23338579.423    23338578.5374   23338580.7604  122645091.203 6  95567606.93943
      2186.879        1704.063
  22410091.840    22410091.6754   22410092.5104  117765852.982 7  91765620.96744
     -2752.097       -2144.493
  22934437.186    22934436.8954   22934440.6074  120521290.997 6  93912716.15443
      -491.261        -382.799
  22086653.309    22086652.9094   22086655.4894  116066174.669 7  90441199.07745
      2098.683        1635.337
  24170470.671    24170469.9064   24170473.7764  127016691.201 5  98974068.24942
      3131.488        2440.100
  23972891.960    23972891.6764   23972894.6874  125978424.717 5  98165035.38942
     -3345.544       -2606.919
  24599047.388    24599047.2654   24599049.8314  129268886.864 5 100729021.22242
     -3756.418       -2927.085
 08  5 13  1  4 30.0000000  0 13G 3G 6G 7G10G13G16G21G23G24G25G27G29
                                G31
  22420553.459    22420552.6334   22420556.1144  117820830.720 6  91808460.99344
      3481.026        2712.481
  21257920.778    21257920.3204   21257923.5644  111711166.048 8  87047685.35446
      1703.158        1327.134
  23277596.267    23277596.6524   23277599.2824  122324622.091 6  95317908.69943
      3334.452        2598.273
  23677057.808    23677057.0434   23677061.2534  124423786.172 5  96953620.91742
       793.631         618.412
  21638039.305    21638039.1484   21638041.5794  113708697.542 7  88604196.96845
      -404.743        -315.385
  20367672.216    20367671.4454   20367673.3764  107032876.237 8  83402269.97647
      -631.912        -492.401
  23326135.180    23326134.5684   23326136.5064  122579696.583 6  95516650.13743
      2172.909        1693.172
  22425846.334    22425845.7904   22425846.4554  117848642.731 7  91830132.45344
     -2767.136       -2156.210
  22937298.946    22937298.6554   22937303.2304  120536331.479 6  93924435.99643
      -511.383        -398.484
  22074712.064    22074711.4624   22074714.4104  116003422.689 7  90392301.45345
      2084.858        1624.559
  24152610.281    24152609.4004   24152612.6854  126922832.631 6  98900931.76142
      3125.813        2435.689
  23992014.857    23992014.7604   23992017.6734  126078913.186 5  98243338.06342
     -3353.517       -2613.124
  24620500.269    24620500.4824   24620502.1354  129381628.637 5 100816871.95942
     -3759.547       -2929.515
 08  5 13  1  5  0.0000000  0 13G 3G 6G 7G10G13G16G21G23G24G25G27G29
                                G31
  22400711.400    22400710.6904   22400714.2714  117716560.416 7  91727211.44744
      3470.362        2704.169
  21248245.931    21248245.5364   21248248.7284  111660324.563 8  87008068.62846
      1686.294        1313.996
  23258586.686    23258586.4344   23258588.0084  122224720.650 6  95240063.44544
      3325.610        2591.385
  23672587.124    23672586.1794   23672589.8184  124400291.550 6  96935313.44342
       772.672         602.048
  21640415.390    21640415.2124   21640417.0314  113721181.031 7  88613924.36845
      -427.462        -333.089
  20371329.114    20371328.5224   20371330.4914  107052094.282 8  83417245.08247
      -649.270        -505.924
  23313771.086    23313770.6514   23313773.2704  122514724.445 6  95466022.56343
      2158.663        1682.067
  22441687.686    22441687.1654   22441687.4244  117931884.582 7  91894996.22644
     -2782.267       -2167.999
  22940276.591    22940275.8384   22940280.3864  120551976.556 6  93936626.95943
      -531.658        -414.279
  22062850.183    22062849.6074   22062852.0044  115941087.187 7  90343728.35345
      2070.850        1613.649
  24134782.332    24134782.1904   24134785.4674  126829146.667 6  98827929.74142
      3119.910        2431.094
  24011183.138    24011182.7924   24011185.3324  126179641.078 6  98321827.30643
     -3361.592       -2619.425
  24641973.205    24641972.6754   24641974.7274  129494465.289 5 100904796.68242
     -3762.817       -2932.067
 08  5 13  1  5 30.0000000  0 13G 3G 6G 7G10G13G16G21G23G24G25G27G29
                                G31
  22380929.933    22380929.2374   22380932.7254  117612608.753 6  91646210.20744
      3459.675        2695.859
  21238667.099    21238666.5284   21238669.6284  111609986.242 8  86968843.96146
      1669.506        1300.911
  23239626.548    23239625.8634   23239627.6194  122125084.527 6  95162424.91643
      3316.746        2584.473
  23668236.002    23668234.6444   23668238.0584  124377422.792 6  96917493.62742
       751.822         585.842
  21642919.947    21642919.9444   21642921.5634  113734342.165 8  88624179.81345
      -450.047        -350.689
  20375084.771    20375084.0514   20375086.0664  107071829.879 8  83432623.47847
      -666.485        -519.340
  23301488.498    23301487.7114   23301489.8854  122450177.239 6  95415726.11443
      2144.453        1670.999
  22457612.893    22457612.4324   22457613.5764  118015576.201 7  91960210.45744
     -2797.239       -2179.671
  22943368.394    22943368.0834   22943372.1864  120568225.538 6  93949288.50643
      -551.715        -429.909
  22051067.624    22051066.7364   22051070.1174  115879170.071 7  90295481.27345
      2056.878        1602.762
  24116987.554    24116987.3854   24116990.1764  126735635.058 5  98755063.55542
      3114.191        2426.641
  24030396.108    24030395.7364   24030398.4264  126280605.861 6  98400501.14043
     -3369.445       -2625.552
  24663461.419    24663462.0214   24663465.3994  129607395.549 5 100992794.23542
     -3766.002       -2934.554
 08  5 13  1  6  0.0000000  0 13G 3G 6G 7G10G13G16G21G23G24G25G27G29
                                G31
  22361209.469    22361208.8294   22361212.0474  117508977.223 7  91565458.40044
      3448.931        2687.480
  21229183.833    21229183.4734   21229186.5404  111560152.012 8  86930012.08446
      1652.608        1287.745
  23220716.685    23220716.6144   23220719.3804  122025715.607 6  95084994.62044
      3307.731        2577.452
  23664002.389    23664001.4394   23664006.1324  124355180.535 6  96900161.99642
       730.908         569.545
  21645553.285    21645552.9284   21645554.8864  113748180.140 8  88634962.65245
      -472.640        -368.292
  20378938.439    20378937.8314   20378939.8064  107092081.542 8  83448403.99547
      -683.758        -532.798
  23289286.958    23289286.1404   23289288.1844  122386057.213 6  95365762.52343
      2130.065        1659.800
  22473623.986    22473623.8694   22473624.2734  118099714.297 7  92025772.59844
     -2812.098       -2191.254
  22946575.220    22946574.7824   22946578.7804  120585077.547 6  93962419.93543
      -571.811        -445.565
  22039365.017    22039364.7194   22039367.3394  115817672.606 7  90247561.18845
      2042.777        1591.775
  24099225.750    24099225.2884   24099229.3914  126642299.537 5  98682334.62842
      3108.164        2421.938
  24049653.856    24049653.7004   24049656.1354  126381804.632 6  98479357.30343
     -3377.278       -2631.635
  24684971.616    24684970.4294   24684970.9154  129720416.882 5 101080862.82342
     -3768.947       -2936.845
 08  5 13  1  6 30.0000000  0 13G 3G 6G 7G10G13G16G21G23G24G25G27G29
                                G31
  22341551.343    22341550.2594   22341553.8584  117405670.178 6  91484959.39544
      3438.115        2679.054
  21219797.414    21219796.8664   21219799.8814  111510825.127 8  86891575.54346
      1635.724        1274.587
  23201859.459    23201859.3704   23201861.6984  121926618.331 6  95007776.02744
      3298.665        2570.377
  23659890.355    23659888.5274   23659892.4314  124333567.522 6  96883320.67542
       709.922         553.206
  21648315.522    21648315.3014   21648317.3114  113762696.585 7  88646274.16845
      -495.204        -385.872
  20382890.641    20382890.0174   20382892.1254  107112850.814 8  83464587.83647
      -700.949        -546.195
  23277167.388    23277166.2884   23277168.3374  122322368.126 6  95316134.71543
      2115.733        1648.619
  22489719.963    22489719.2884   22489719.9964  118184298.019 7  92091681.97744
     -2826.882       -2202.766
  22949896.670    22949896.4624   22949900.2824  120602533.850 6  93976022.24543
      -591.923        -461.242
  22027743.161    22027742.3074   22027745.0574  115756598.623 7  90199971.07645
      2028.719        1580.818
  24081498.658    24081498.3414   24081502.6484  126549143.965 5  98609745.91342
      3102.117        2417.221
  24068955.676    24068955.1404   24068958.2254  126483237.493 5  98558395.85243
     -3384.983       -2637.637
  24706492.021    24706493.6004   24706496.8774  129833529.479 5 101169002.53742
     -3771.979       -2939.185
 08  5 13  1  7  0.0000000  0 13G 3G 6G 7G10G13G16G21G23G24G25G27G29
                                G31
  22321954.726    22321953.8964   22321957.3524  117302691.118 7  91404715.97644
      3427.227        2670.561
  21210507.446    21210507.0294   21210510.1874  111462007.428 8  86853535.78446
      1618.808        1261.411
  23183054.275    23183053.9884   23183056.0374  121827795.658 6  94930771.35444
      3289.516        2563.256
  23655896.692    23655895.7764   23655899.3174  124312585.507 6  96866971.04042
       688.922         536.826
  21651206.960    21651206.6824   21651208.7134  113777891.365 8  88658114.25945
      -517.754        -403.442
  20386941.410    20386940.7784   20386942.7434  107134137.392 8  83481174.77247
      -718.109        -559.559
  23265130.514    23265129.4834   23265130.9004  122259112.613 6  95266844.65043
      2101.315        1637.398
  22505900.129    22505899.4454   22505900.2214  118269325.262 7  92157936.97344
     -2841.495       -2214.154
  22953334.310    22953333.7154   22953337.4164  120620594.505 6  93990095.46843
      -612.027        -476.905
  22016201.836    22016201.4904   22016204.2244  115695950.246 7  90152712.62145
      2014.559        1569.786
  24063807.020    24063806.5484   24063810.2164  126456170.614 6  98537299.16442
      3096.065        2412.525
  24088301.598    24088300.9134   24088304.0764  126584902.289 5  98637615.07142
     -3392.559       -2643.553
  24728035.927    24728036.4164   24728038.4524  129946731.985 5 101257212.20741
     -3774.738       -2941.362
 08  5 13  1  7 30.0000000  0 13G 3G 6G 7G10G13G16G21G23G24G25G27G29
                                G31
  22302420.004    22302419.3914   22302423.1354  117200038.421 7  91324726.93744
      3416.340        2662.082
  21201314.227    21201313.8044   21201316.8954  111413696.056 8  86815890.55746
      1601.986        1248.300
  23164299.953    23164299.4594   23164302.5124  121729246.037 6  94853979.48643
      3280.446        2556.196
  23652023.519    23652022.2984   23652025.4434  124292230.694 6  96851110.13342
       668.052         520.561
  21654226.450    21654226.3794   21654228.4504  113793760.065 7  88670479.48645
      -540.098        -420.861
  20391089.761    20391089.1724   20391091.1184  107155937.044 8  83498161.50047
      -735.132        -572.833
  23253174.887    23253174.1714   23253176.2614  122196289.355 6  95217891.46843
      2086.948        1626.188
  22522163.566    22522162.9324   22522163.0854  118354789.148 7  92224532.21544
     -2855.998       -2225.458
  22956884.375    22956884.1964   22956888.2204  120639254.922 6  94004636.03843
      -631.949        -492.423
  22004741.345    22004741.0564   22004743.8044  115635725.868 7  90105784.54945
      2000.446        1558.788
  24046148.883    24046148.3554   24046152.4964  126363377.473 6  98464992.83742
      3090.103        2407.871
  24107691.312    24107690.1484   24107693.1504  126686792.618 5  98717010.10742
     -3399.972       -2649.354
  24749593.958    24749594.9404   24749596.1684  130060018.779 5 101345487.70742
     -3777.550       -2943.560
 08  5 13  1  8  0.0000000  0 13G 3G 6G 7G10G13G16G21G23G24G25G27G29
                                G31
  22282948.879    22282948.3644   22282951.9744  117097717.168 7  91244996.11144
      3405.192        2653.402
  21192217.987    21192217.5034   21192220.5184  111365895.036 8  86778643.00646
      1584.878        1234.974
  23145600.581    23145600.2274   23145601.4774  121630974.424 6  94777404.23743
      3271.062        2548.890
  23648270.794    23648269.0974   23648272.0554  124272506.884 6  96835740.92342
       646.976         504.143
  21657374.720    21657374.7514   21657376.6334  113810304.876 8  88683371.54445
      -562.759        -438.515
  20395336.069    20395335.3684   20395337.3064  107178251.273 8  83515549.23347
      -752.370        -586.262
  23241303.381    23241302.2374   23241304.6934  122133902.764 6  95169278.50943
      2072.221        1614.717
  22538509.499    22538509.0274   22538510.0934  118440689.518 7  92291467.53544
     -2870.542       -2236.785
  22960550.357    22960549.9914   22960553.8114  120658517.229 6  94019645.61343
      -652.095        -508.126
  21993362.938    21993362.3104   21993365.0244  115575929.690 7  90059190.12145
      1986.058        1547.579
  24028526.169    24028525.4734   24028528.7834  126270769.090 5  98392830.48042
      3083.859        2403.018
  24127122.676    24127121.5304   24127125.2344  126788908.730 5  98796581.11142
     -3407.558       -2655.259
  24771168.664    24771167.3314   24771169.7104  130173390.603 5 101433829.33542
     -3780.459       -2945.812
 08  5 13  1  8 30.0000000  0 13G 3G 6G 7G10G13G16G21G23G24G25G27G29
                                G31
  22263542.148    22263541.2784   22263544.8934  116995730.640 6  91165526.10944
      3393.917        2644.616
  21183219.264    21183218.9084   21183221.7534  111318606.403 8  86741794.72946
      1567.734        1221.610
  23126953.337    23126953.1644   23126955.4334  121532983.925 6  94701048.00944
      3261.665        2541.549
  23644637.285    23644636.4274   23644639.3574  124253415.774 6  96820864.71142
       625.778         487.627
  21660652.188    21660651.8584   21660653.7274  113827525.928 7  88696790.54345
      -585.326        -456.104
  20399680.113    20399679.6464   20399681.6054  107201080.423 8  83533338.18247
      -769.561        -599.658
  23229515.148    23229514.2954   23229516.5184  122071955.762 6  95121008.12743
      2057.539        1603.287
  22554937.972    22554937.9454   22554938.8284  118527024.397 7  92358741.43244
     -2885.054       -2248.091
  22964330.112    22964329.7394   22964334.0924  120678381.270 6  94035124.07143
      -672.156        -523.759
  21982065.684    21982065.3644   21982068.1514  115516564.311 7  90012931.40345
      1971.644        1536.343
  24010938.308    24010938.5344   24010942.6434  126178347.952 5  98320814.04042
      3077.581        2398.117
  24146596.994    24146597.4884   24146599.7844  126891249.252 5  98876326.98542
     -3415.092       -2661.107
  24792757.477    24792757.3024   24792760.2614  130286845.904 5 101522236.00142
     -3783.183       -2947.932
 08  5 13  1  9  0.0000000  0 13G 3G 6G 7G10G13G16G21G23G24G25G27G29
                                G31
  22244198.696    22244198.2074   22244200.7764  116894081.698 7  91086319.14944
      3382.653        2635.829
  21174318.497    21174317.8094   21174320.8344  111271831.452 8  86705346.72446
      1550.547        1208.218
  23108359.504    23108359.9974   23108362.2254  121435277.346 6  94624913.04943
      3252.064        2534.069
  23641124.117    23641124.4764   23641126.9204  124234958.178 5  96806482.14741
       604.635         471.185
  21664057.566    21664057.2394   21664059.4684  113845422.508 7  88710735.93545
      -607.859        -473.654
  20404122.363    20404121.7934   20404123.7414  107224424.068 8  83551528.03947
      -786.730        -613.035
  23217811.264    23217810.6354   23217812.4494  122010450.914 6  95073082.22043
      2042.742        1591.734
  22571449.430    22571449.5504   22571450.0374  118613791.057 7  92426351.80044
     -2899.419       -2259.291
  22968224.642    22968224.6124   22968228.4874  120698846.779 6  94051071.21143
      -692.206        -539.385
  21970851.431    21970850.7694   21970853.3964  115457631.364 7  89967009.62845
      1957.165        1525.068
  23993387.742    23993387.0444   23993390.8074  126086116.260 5  98248945.25042
      3071.138        2393.104
  24166114.810    24166113.9794   24166117.1334  126993812.152 6  98956246.09943
     -3422.497       -2666.852
  24814362.965    24814362.9434   24814363.5934  130400384.074 5 101610707.27841
     -3785.989       -2950.119
 08  5 13  1  9 30.0000000  0 13G 3G 6G 7G10G13G16G21G23G24G25G27G29
                                G31
  22224920.025    22224919.6284   22224922.7454  116792772.071 6  91007376.59244
      3371.310        2627.000
  21165515.226    21165514.7124   21165517.7624  111225571.021 8  86669299.66146
      1533.442        1194.890
  23089821.129    23089820.6574   23089823.2784  121337856.176 6  94549000.50843
      3242.542        2526.659
  23637732.598    23637732.3264   23637735.4204  124217134.428 5  96792593.50741
       583.489         454.675
  21667591.264    21667591.1664   21667593.7444  113863993.672 7  88725206.98245
      -630.310        -491.153
  20408662.232    20408661.5784   20408663.5104  107248280.771 8  83570117.67047
      -803.758        -626.304
  23206191.636    23206191.0234   23206192.5524  121949389.567 6  95025501.97543
      2027.962        1580.229
  22588042.764    22588042.3854   22588042.8764  118700986.385 7  92494296.21544
     -2913.643       -2270.370
  22972233.849    22972232.8554   22972237.1954  120719912.405 6  94067485.97743
      -712.164        -554.929
  21959719.509    21959718.9864   21959721.7584  115399132.572 7  89921426.17245
      1942.686        1513.782
  23975873.766    23975873.3754   23975875.3124  125994075.510 6  98177225.18342
      3064.761        2388.153
  24185673.190    24185673.1704   24185675.8184  127096594.317 5  99036336.07943
     -3429.682       -2672.466
  24835985.355    24835984.7754   24835984.4764  130514001.877 5 101699240.68141
     -3788.626       -2952.152
 08  5 13  1 10  0.0000000  0 13G 3G 6G 7G10G13G16G21G23G24G25G27G29
                                G31
  22205707.244    22205706.7684   22205709.5534  116691805.872 7  90928701.63744
      3359.775        2618.008
  21156810.542    21156810.0474   21156813.2364  111179827.552 8  86633655.39246
      1516.133        1181.402
  23071338.314    23071338.2924   23071339.8574  121240724.951 6  94473313.84443
      3232.842        2519.097
  23634461.596    23634461.3304   23634465.0924  124199946.890 5  96779200.58841
       562.344         438.209
  21671253.924    21671253.8454   21671256.4614  113883240.375 7  88740204.43645
      -652.810        -508.685
  20413299.671    20413299.1024   20413301.0574  107272651.253 8  83589107.64947
      -820.923        -639.682
  23194656.814    23194656.5034   23194658.9714  121888776.165 6  94978270.85243
      2012.942        1568.522
  22604716.529    22604716.1254   22604716.2954  118788608.942 7  92562573.55944
     -2927.806       -2281.411
  22976356.979    22976356.3274   22976360.1594  120741578.879 6  94084368.94143
      -732.236        -570.582
  21948670.687    21948670.2464   21948672.8084  115341070.881 7  89876183.31145
      1928.078        1502.398
  23958395.400    23958394.7474   23958397.9364  125902228.982 5  98105656.49442
      3058.239        2383.034
  24205272.222    24205272.7124   24205277.3424  127199594.957 5  99116596.32442
     -3436.989       -2678.164
  24857619.639    24857619.2824   24857622.9394  130627699.392 5 101787836.24941
     -3791.269       -2954.241
 08  5 13  1 10 30.0000000  0 14G 3G 6G 7G10G13G16G19G21G23G24G25G27
                                G29G31
  22186559.021    22186558.5294   22186561.7014  116591183.622 7  90850294.72244
      3348.347        2609.100
  21148204.082    21148203.6234   21148206.6444  111134600.560 8  86598413.55946
      1499.006        1168.058
  23052909.608    23052909.5174   23052911.8904  121143884.325 6  94397853.63043
      3223.179        2511.565
  23631311.187    23631311.0454   23631315.7514  124183394.395 5  96766302.52941
       541.224         421.715
  21675044.852    21675044.5154   21675046.7374  113903160.148 8  88755726.34445
      -675.149        -526.088
  20418034.579    20418034.0234   20418035.9444  107297533.386 8  83608496.32547
      -837.875        -652.890
  25001004.026                                   131381168.919 5
      3960.194
  23183208.160    23183207.7204   23183209.4264  121828610.767 6  94931388.78943
      1998.096        1556.956
  22621470.725    22621470.2904   22621471.4844  118876654.231 7  92631180.27044
     -2941.790       -2292.302
  22980593.676    22980593.2514   22980597.2484  120763843.761 6  94101718.18243
      -752.114        -586.069
  21937705.045    21937704.7564   21937707.4104  115283446.729 7  89831281.38145
      1913.546        1491.074
  23940954.640    23940953.1864   23940957.6874  125810577.043 5  98034239.46142
      3051.851        2378.054
  24224913.997    24224913.8884   24224918.1024  127302810.067 5  99197023.56142
     -3444.052       -2683.698
  24879270.195    24879270.8694   24879273.0734  130741473.078 5 101876491.04142
     -3793.634       -2956.083
 08  5 13  1 11  0.0000000  0 14G 3G 6G 7G10G13G16G19G21G23G24G25G27
                                G29G31
  22167476.582    22167475.9234   22167478.9954  116490904.581 7  90772155.21944
      3336.905        2600.185
  21139695.581    21139694.9714   21139697.9954  111089887.642 8  86563572.33046
      1481.872        1154.708
  23034536.069    23034535.7374   23034538.9724  121047332.735 6  94322618.66943
      3213.540        2504.057
  23628283.151    23628281.5444   23628285.3434  124167474.136 5  96753897.12041
       520.134         405.298
  21678962.874    21678962.5744   21678964.4634  113923748.346 7  88771769.10645
      -697.364        -543.403
  20422866.066    20422865.3824   20422867.2954  107322922.545 8  83628280.10447
      -854.711        -666.005
  24978400.440    24978399.0824   24978400.6894  131262386.254 5 102282397.47141
      3958.582        3084.619
  23171844.149    23171843.4104   23171844.9994  121768891.041 6  94884853.94743
      1983.218        1545.353
  22638304.541    22638304.0684   22638305.1664  118965115.347 7  92700110.98744
     -2955.568       -2303.042
  22984943.440    22984943.0934   22984947.0424  120786702.340 6  94119530.05243
      -771.807        -601.406
  21926822.411    21926821.8504   21926824.6764  115226257.687 7  89786718.51645
      1899.048        1479.779
  23923550.450    23923549.4974   23923553.5734  125719117.832 5  97962972.57542
      3045.399        2373.040
  24244595.677    24244595.1444   24244598.6324  127406233.446 5  99277613.17342
     -3450.830       -2688.970
  24900932.937    24900934.0734   24900935.4904  130855317.274 5 101965200.76942
     -3795.925       -2957.859
 08  5 13  1 11 30.0000000  0 14G 3G 6G 7G10G13G16G19G21G23G24G25G27
                                G29G31
  22148459.884    22148459.3064   22148462.8604  116390971.528 7  90694285.34544
      3325.287        2591.134
  21131285.057    21131284.6094   21131287.5284  111045690.521 8  86529133.02346
      1464.616        1141.255
  23016218.861    23016218.9294   23016220.2764  120951073.122 6  94247611.19343
      3203.774        2496.448
  23625372.567    23625371.9644   23625377.9474  124152187.580 5  96741985.51041
       499.011         388.815
  21683007.521    21683007.4444   21683009.1914  113945005.147 7  88788332.85545
      -719.711        -560.812
  20427793.940    20427793.2934   20427795.2394  107348818.748 8  83648458.96547
      -871.665        -679.224
  24955806.055    24955803.8784   24955806.3914  131143655.640 4 102189880.21441
      3956.807        3083.240
  23160564.927    23160564.5524   23160565.9264  121709620.368 7  94838669.02743
      1968.138        1533.598
  22655217.124    22655216.4674   22655216.9244  119053990.417 7  92769364.29044
     -2969.400       -2313.826
  22989406.329    22989405.8564   22989410.0684  120810154.869 6  94137804.74443
      -791.659        -616.870
  21916023.360    21916022.5664   21916025.0024  115169506.559 8  89742496.86845
      1884.380        1468.348
  23906183.644    23906182.7344   23906186.6724  125627854.083 5  97891858.01942
      3038.761        2367.871
  24264316.594    24264315.7934   24264317.9354  127509863.677 6  99358364.02042
     -3457.769       -2694.367
  24922611.071    24922611.9684   24922613.7834  130969231.124 5 102053964.86742
     -3798.274       -2959.691
 08  5 13  1 12  0.0000000  0 14G 3G 6G 7G10G13G16G19G21G23G24G25G27
                                G29G31
  22129509.969    22129509.1734   22129512.0874  116291387.678 7  90616687.58944
      3313.530        2581.971
  21122973.287    21122972.7804   21122975.7244  111002011.232 8  86495097.22746
      1447.248        1127.729
  22997957.097    22997956.8184   22997959.8954  120855108.842 6  94172833.80843
      3193.784        2488.665
  23622584.863    23622583.9044   23622588.9354  124137535.635 5  96730568.40341
       477.738         372.278
  21687179.843    21687179.6674   21687181.4454  113966930.542 7  88805417.57745
      -742.062        -578.235
  20432818.310    20432817.6384   20432819.6294  107375221.979 8  83669032.89647
      -888.608        -692.418
  24933224.746    24933223.0694   24933224.3014  131024980.206 5 102097405.91441
      3954.868        3081.722
  23149372.223    23149371.6394   23149373.4094  121650801.534 6  94792836.19543
      1953.002        1521.820
  22672207.309    22672207.4954   22672207.2554  119143277.705 7  92838938.83744
     -2983.121       -2324.515
  22993982.683    22993981.9504   22993985.9504  120834201.091 6  94156542.05743
      -811.468        -632.311
  21905307.455    21905306.8554   21905309.8254  115113195.913 7  89698618.46546
      1869.609        1456.838
  23888854.328    23888854.2054   23888856.9874  125536788.453 6  97820897.81742
      3032.102        2362.680
  24284075.429    24284075.4994   24284077.6904  127613698.790 6  99439274.57542
     -3464.568       -2699.650
  24944301.012    24944300.8314   24944303.4074  131083213.339 4 102142782.19342
     -3800.681       -2961.562
 08  5 13  1 12 30.0000000  0 14G 3G 6G 7G10G13G16G19G21G23G24G25G27
                                G29G31
  22110626.182    22110625.9614   22110629.1404  116192156.538 7  90539364.65444
      3301.830        2572.851
  21114760.266    21114759.7724   21114762.7054  110958851.487 8  86461466.27846
      1430.010        1114.297
  22979752.524    22979752.2664   22979755.6324  120759443.515 6  94098289.45343
      3183.806        2480.883
  23619918.486    23619916.1944   23619922.4224  124123520.204 5  96719647.32041
       456.408         355.642
  21691479.378    21691479.1234   21691481.0524  113989524.558 7  88823023.30545
      -764.279        -595.538
  20437939.159    20437938.4084   20437940.4054  107402132.066 8  83690001.85047
      -905.431        -705.531
  24910651.308    24910650.3834   24910652.3954  130906362.870 5 102004976.82441
      3952.901        3080.184
  23138265.410    23138265.0634   23138267.5804  121592437.666 6  94747357.88643
      1937.853        1510.002
  22689276.887    22689276.0664   22689276.7874  119232974.737 7  92908832.64044
     -2996.706       -2335.102
  22998671.056    22998670.4034   22998674.5724  120858840.993 6  94175741.98143
      -831.209        -647.687
  21894676.157    21894675.5594   21894678.1954  115057328.258 8  89655085.23646
      1854.851        1445.337
  23871562.715    23871561.7654   23871566.0084  125445923.588 5  97750094.05042
      3025.525        2357.532
  24303872.670    24303873.7214   24303876.1274  127717737.689 5  99520343.85242
     -3471.292       -2704.889
  24966005.835    24966003.9504   24966006.8354  131197262.974 5 102231651.93641
     -3802.722       -2963.153
 08  5 13  1 13  0.0000000  0 14G 3G 6G 7G10G13G16G19G21G23G24G25G27
                                G29G31
  22091810.678    22091810.2434   22091813.4744  116093279.073 6  90462317.30844
      3289.939        2563.588
  21106645.990    21106645.5824   21106648.4394  110916211.097 8  86428240.02546
      1412.643        1100.763
  22961605.655    22961605.4944   22961607.8974  120664077.802 6  94023978.55644
      3173.795        2473.094
  23617371.679    23617371.0944   23617376.0824  124110140.299 5  96709221.42742
       435.442         339.286
  21695905.190    21695905.0384   21695907.1854  114012784.549 7  88841147.97745
      -786.467        -612.833
  20443155.794    20443155.3164   20443157.2524  107429546.678 8  83711363.87947
      -922.243        -718.628
  24888090.113    24888088.5484   24888090.8144  130787804.173 5 101912593.45941
      3950.972        3078.689
  23127245.832    23127245.0874   23127247.3074  121534529.107 6  94702234.36143
      1922.657        1498.181
  22706422.832    22706421.9744   22706422.5024  119323077.055 6  92979042.23644
     -3010.198       -2345.605
  23003472.001    23003471.2604   23003475.5014  120884072.291 6  94195402.73543
      -850.966        -663.081
  21884129.191    21884128.8974   21884131.7484  115001903.678 7  89611897.26546
      1840.029        1433.789
  23854310.374    23854309.7814   23854313.7404  125355260.048 5  97679447.17042
      3018.710        2352.250
  24323707.713    24323707.7004   24323711.5904  127821976.615 5  99601568.90342
     -3478.020       -2710.132
  24987721.830    24987720.9304   24987720.8154  131311377.031 6 102320572.16741
     -3804.851       -2964.859
 08  5 13  1 13 30.0000000  0 14G 3G 6G 7G10G13G16G19G21G23G24G25G27
                                G29G31
  22073062.840    22073062.3664   22073065.9114  115994759.642 7  90385548.96544
      3278.059        2554.331
  21098631.158    21098630.6344   21098633.6934  110874092.921 8  86395420.67646
      1395.318        1087.262
  22943515.766    22943515.7354   22943516.9524  120569016.033 6  93949904.42443
      3163.677        2465.214
  23614947.162    23614946.5644   23614951.7444  124097397.955 5  96699292.35042
       414.158         322.714
  21700458.565    21700458.4574   21700460.4904  114036711.799 7  88859792.59845
      -808.605        -630.080
  20448468.877    20448468.4014   20448470.4264  107457467.182 8  83733120.09047
      -939.036        -731.714
  24865540.879    24865539.4664   24865542.4444  130669308.462 5 101820259.18641
      3948.839        3077.042
  23116313.803    23116312.8254   23116315.6644  121477079.784 6  94657468.69243
      1907.388        1486.272
  22723645.377    22723644.6254   22723645.9744  119413583.909 7  93049567.00544
     -3023.550       -2356.006
  23008386.420    23008386.0864   23008389.9554  120909895.975 6  94215525.08443
      -870.571        -678.369
  21873667.291    21873666.7074   21873669.3214  114946925.848 7  89569057.40746
      1825.219        1422.245
  23837096.846    23837096.6754   23837099.5074  125264801.698 5  97608960.17843
      3011.901        2346.949
  24343582.209    24343581.4624   24343585.5464  127926414.978 5  99682949.32542
     -3484.501       -2715.209
  25009446.202    25009447.2154   25009449.3104  131425554.930 5 102409542.01441
     -3806.951       -2966.445
 08  5 13  1 14  0.0000000  0 14G 3G 6G 7G10G13G16G19G21G23G24G25G27
                                G29G31
  22054383.749    22054383.2074   22054386.6574  115896600.012 7  90309060.96544
      3265.938        2544.883
  21090715.807    21090715.3094   21090718.2544  110832497.267 8  86363008.48746
      1377.817        1073.623
  22925483.719    22925483.9494   22925485.9614  120474260.056 6  93876068.60143
      3153.416        2457.206
  23612643.780    23612643.0454   23612648.6394  124085293.476 5  96689860.31342
       392.876         306.135
  21705138.666    21705138.6154   21705140.6884  114061304.779 7  88878955.97645
      -830.848        -647.410
  20453878.043    20453877.4314   20453879.5054  107485891.987 8  83755269.28547
      -955.884        -744.844
  24843004.702    24843002.5614   24843006.1654  130550876.973 5 101727974.93441
      3946.636        3075.294
  23105468.499    23105468.2024   23105470.6314  121420090.981 6  94613061.85843
      1891.943        1474.234
  22740944.738    22740943.9194   22740945.0144  119504491.305 6  93120403.88444
     -3036.868       -2366.387
  23013412.631    23013412.1044   23013416.6104  120936310.557 6  94236107.86343
      -890.312        -693.751
  21863290.675    21863290.2034   21863292.8024  114892395.938 7  89526566.57646
      1810.175        1410.527
  23819921.620    23819921.2234   23819925.1334  125174549.417 6  97538633.76043
      3004.993        2341.543
  24363494.924    24363494.4404   24363496.8854  128031049.439 6  99764482.62442
     -3491.042       -2720.298
  25031186.383    25031186.1774   25031188.3874  131539794.403 5 102498559.73742
     -3808.989       -2968.040
 08  5 13  1 14 30.0000000  0 14G 3G 6G 7G10G13G16G19G21G23G24G25G27
                                G29G31
  22035774.228    22035773.4514   22035776.8214  115798805.061 7  90232857.12844
      3253.827        2535.445
  21082900.564    21082900.0664   21082903.0454  110791427.776 8  86331006.27446
      1360.276        1059.955
  22907512.019    22907512.0774   22907514.6474  120379814.618 6  93802474.78244
      3143.073        2449.146
  23610462.729    23610461.9254   23610466.8374  124073829.502 5  96680927.37742
       371.464         289.449
  21709945.414    21709945.4174   21709947.2924  114086564.885 8  88898639.18845
      -853.066        -664.724
  20459383.406    20459382.7924   20459384.8304  107514822.769 8  83777812.73747
      -972.712        -757.955
  24820479.261    24820478.8304   24820481.5244  130432514.670 4 101635744.62041
      3944.291        3073.465
  23094712.691    23094711.9464   23094714.5914  121363567.781 6  94569017.91943
      1876.372        1462.100
  22758319.587    22758319.2504   22758320.2374  119595799.229 6  93191552.89644
     -3050.184       -2376.762
  23018552.491    23018551.5374   23018555.9244  120963317.211 6  94257152.00943
      -910.046        -709.135
  21852999.566    21852999.2384   21853001.9764  114838318.006 7  89484427.92946
      1795.134        1398.802
  23802787.945    23802787.4684   23802790.9364  125084507.737 6  97468471.41743
      2997.970        2336.083
  24383443.713    24383443.3004   24383445.5134  128135880.481 6  99846169.14542
     -3497.490       -2725.346
  25052936.106    25052935.3284   25052939.9824  131654096.523 4 102587626.34642
     -3811.000       -2969.606
 08  5 13  1 15  0.0000000  0 14G 3G 6G 7G10G13G16G19G21G23G24G25G27
                                G29G31
  22017233.500    22017232.9604   22017236.1294  115701372.903 7  90156935.99444
      3241.675        2525.984
  21075184.834    21075184.4094   21075187.3164  110750881.715 8  86299411.92946
      1342.802        1046.346
  22889598.201    22889598.1894   22889600.6254  120285678.656 6  93729122.12244
      3132.692        2441.059
  23608402.173    23608401.4224   23608406.2274  124063002.765 5  96672490.96942
       350.138         272.844
  21714878.419    21714878.2864   21714880.2194  114112487.691 7  88918838.78145
      -875.119        -681.916
  20464984.162    20464983.5534   20464985.5464  107544254.895 8  83800746.86747
      -989.419        -770.976
  24797969.356    24797967.9104   24797971.8864  130314219.774 5 101543566.84441
      3941.968        3071.657
  23084044.864    23084044.3734   23084046.4514  121307507.941 6  94525335.03143
      1860.965        1450.105
  22775770.431    22775770.0654   22775769.5524  119687500.750 7  93263008.61844
     -3063.249       -2386.951
  23023803.440    23023802.7644   23023806.5424  120990911.456 7  94278654.01343
      -929.572        -724.334
  21842794.997    21842794.6124   21842797.1494  114784690.015 8  89442639.89746
      1780.087        1387.080
  23785693.544    23785693.0454   23785696.2074  124994675.088 6  97398471.96443
      2990.946        2330.596
  24403428.476    24403428.6064   24403431.3784  128240902.216 5  99928004.25342
     -3503.943       -2730.329
  25074698.950    25074698.1734   25074701.4364  131768455.565 4 102676737.30341
     -3812.932       -2971.086
 08  5 13  1 15 30.0000000  0 14G 3G 6G 7G10G13G16G19G21G23G24G25G27
                                G29G31
  21998762.310    21998761.9244   21998765.2324  115604306.829 7  90081300.06744
      3229.406        2516.425
  21067569.148    21067568.6414   21067571.6384  110710860.165 8  86268226.26646
      1325.286        1032.691
  22871743.841    22871743.7694   22871746.1994  120191854.500 6  93656012.41844
      3122.253        2432.926
  23606464.410    23606463.3844   23606467.7924  124052814.463 5  96664552.05043
       328.954         256.339
  21719937.546    21719937.3174   21719939.1214  114139072.247 7  88939554.03145
      -897.179        -699.105
  20470680.235    20470679.4974   20470681.5644  107574187.693 8  83824071.12847
     -1006.108        -783.977
  24775472.971    24775472.3324   24775473.3624  130195994.741 5 101451443.48642
      3939.567        3069.831
  23073465.789    23073465.3864   23073467.0434  121251913.456 6  94482014.69443
      1845.377        1437.961
  22793294.964    22793293.9914   22793294.9164  119779593.384 6  93334769.13744
     -3076.254       -2397.079
  23029166.105    23029165.2454   23029169.4394  121019092.668 6  94300613.40143
      -949.114        -739.573
  21832675.367    21832675.0414   21832677.8154  114731513.983 7  89401204.04346
      1764.975        1375.302
  23768638.711    23768638.1604   23768641.8214  124905053.540 6  97328637.02043
      2983.813        2325.051
  24423448.085    24423448.5734   24423452.0054  128346112.295 5 100009986.05542
     -3510.063       -2735.120
  25096472.951    25096472.3664   25096473.9434  131882869.689 6 102765891.21342
     -3814.714       -2972.497
 08  5 13  1 16  0.0000000  0 14G 3G 6G 7G10G13G16G19G21G23G24G25G27
                                G29G31
  21980361.475    21980360.9414   21980364.1544  115507609.204 7  90005951.29244
      3217.083        2506.816
  21060053.232    21060052.7424   21060055.8374  110671364.192 8  86237450.17746
      1307.733        1019.011
  22853950.074    22853949.5244   22853951.5884  120098344.564 6  93583147.56344
      3111.742        2424.731
  23604646.788    23604646.1684   23604650.2504  124043264.338 6  96657110.41943
       307.703         239.771
  21725121.830    21725121.7284   21725123.6204  114166317.309 7  88960783.94845
      -919.160        -716.227
  20476471.116    20476470.6044   20476472.6494  107604620.132 8  83847784.73347
     -1022.715        -796.923
  24752989.264    24752988.0724   24752989.4644  130077841.495 5 101359376.03742
      3937.234        3067.977
  23062974.705    23062974.5594   23062976.9514  121196786.382 6  94439058.58443
      1829.769        1425.796
  22810892.399    22810892.4044   22810892.8654  119872073.910 6  93406831.88544
     -3089.108       -2407.097
  23034640.212    23034639.5694   23034643.7234  121047859.675 6  94323029.26043
      -968.679        -754.814
  21822643.025    21822642.5384   21822645.1044  114678791.297 7  89360121.43546
      1749.849        1363.516
  23751624.360    23751623.7124   23751628.2854  124815644.774 6  97258967.88243
      2976.662        2319.472
  24443505.226    24443504.9994   24443507.3674  128451508.300 5 100092112.77241
     -3516.339       -2740.030
  25118255.676    25118254.7134   25118255.9374  131997337.091 5 102855086.62742
     -3816.371       -2973.777
 08  5 13  1 16 30.0000000  0 14G 3G 6G 7G10G13G16G19G21G23G24G25G27
                                G29G31
  21962031.738    21962031.2954   21962034.2484  115411285.336 7  89930893.75144
      3204.602        2497.090
  21052638.349    21052637.7844   21052640.7854  110632397.869 8  86207086.84246
      1290.124        1005.292
  22836216.151    22836216.2754   22836218.5274  120005154.322 6  93510531.80744
      3101.086        2416.429
  23602951.631    23602950.8544   23602955.5714  124034356.105 6  96650168.97343
       286.320         223.106
  21730432.503    21730432.4434   21730434.2284  114194225.464 7  88982530.56845
      -941.211        -733.414
  20482357.912    20482357.2324   20482359.2914  107635554.571 8  83871889.49347
     -1039.409        -809.927
  24730520.056    24730518.5114   24730519.6544  129959765.491 5 101267368.81741
      3934.633        3065.952
  23052575.297    23052574.4964   23052576.5384  121142131.759 6  94396470.50644
      1814.015        1413.518
  22828565.852    22828565.2554   22828565.4314  119964942.476 7  93479196.99444
     -3101.976       -2417.126
  23040226.274    23040225.4724   23040229.4974  121077214.451 6  94345903.12243
      -988.225        -770.057
  21812697.068    21812696.5444   21812699.7114  114626526.787 7  89319395.86946
      1734.588        1351.630
  23734652.549    23734652.0204   23734655.7534  124726454.095 6  97189468.69443
      2969.367        2313.770
  24463596.365    24463596.3454   24463598.6464  128557091.263 5 100174385.23941
     -3522.474       -2744.781
  25140045.370    25140046.2144   25140046.2404  132111859.342 5 102944324.73841
     -3818.198       -2975.210
 08  5 13  1 17  0.0000000  0 14G 3G 6G 7G10G13G16G19G21G23G24G25G27
                                G29G31
  21943773.458    21943772.6884   21943775.8774  115315336.719 7  89856128.60344
      3192.014        2487.283
  21045323.878    21045323.5214   21045326.4924  110593961.076 8  86177136.13546
      1272.412         991.484
  22818544.473    22818544.1834   22818545.6854  119912285.221 7  93438166.29144
      3090.297        2408.017
  23601378.876    23601377.9374   23601382.1424  124026088.853 6  96643726.96043
       264.934         206.428
  21735868.602    21735868.7914   21735870.8504  114222794.133 7  89004791.87545
      -963.255        -750.592
  20488339.675    20488339.0454   20488341.0694  107666988.851 8  83896383.71047
     -1056.095        -822.935
  24708065.445    24708064.0154   24708065.9684  129841767.768 5 101175422.46941
      3931.910        3063.825
  23042264.778    23042264.2764   23042265.9004  121087950.629 6  94354251.52744
      1798.176        1401.174
  22846311.208    22846310.6354   22846310.7054  120058195.410 7  93551861.62144
     -3114.751       -2427.082
  23045923.299    23045922.6434   23045927.7864  121107154.907 6  94369233.33943
     -1007.768        -785.281
  21802839.037    21802838.5544   21802841.1394  114574721.027 8  89279027.74946
      1719.244        1339.663
  23717721.705    23717721.0754   23717725.0024  124637482.261 6  97120140.03643
      2962.091        2308.116
  24483722.658    24483722.8854   24483726.3804  128662857.216 5 100256800.16841
     -3528.410       -2749.412
  25161848.329    25161848.4344   25161850.7054  132226433.328 5 103033603.16341
     -3819.914       -2976.552
 08  5 13  1 17 30.0000000  0 14G 3G 6G 7G10G13G16G19G21G23G24G25G27
                                G29G31
  21925586.470    21925586.1454   21925589.1774  115219765.112 7  89781657.25844
      3179.428        2477.479
  21038110.437    21038110.0014   21038113.0124  110556054.003 8  86147598.18146
      1254.715         977.698
  22800932.786    22800932.5624   22800934.6514  119819738.868 6  93366052.27144
      3079.448        2399.571
  23599927.340    23599926.1264   23599931.0214  124018462.343 5  96637784.22543
       243.568         189.787
  21741430.502    21741430.3344   21741432.9884  114252021.487 7  89027566.43845
      -985.205        -767.693
  20494416.293    20494415.6764   20494417.6894  107698921.513 8  83921266.26447
     -1072.718        -835.885
  24685626.382    24685624.8084   24685628.0274  129723850.162 5 101083538.74741
      3929.326        3061.803
  23032044.631    23032044.0874   23032045.6024  121034243.954 6  94312402.14744
      1782.301        1388.803
  22864128.916    22864128.3854   22864128.4204  120151828.673 6  93624822.59544
     -3127.461       -2436.981
  23051731.684    23051731.0164   23051735.4184  121137679.367 6  94393018.62443
     -1027.217        -800.423
  21793067.940    21793067.4844   21793070.5534  114523374.904 8  89239017.80646
      1703.876        1327.696
  23700832.907    23700832.1344   23700835.4434  124548730.301 6  97050982.69143
      2954.681        2302.360
  24503884.185    24503884.6374   24503887.7764  128768803.664 5 100339355.75142
     -3534.525       -2754.174
  25183658.701    25183660.9724   25183662.2954  132341056.558 4 103122919.93541
     -3821.576       -2977.860
 08  5 13  1 18  0.0000000  0 13G 3G 6G 7G10G13G16G19G21G23G24G25G27
                                G29
  21907472.358    21907471.6934   21907474.5574  115124573.186 7  89707481.74544
      3166.791        2467.624
  21030998.012    21030997.5324   21031000.4984  110518677.856 8  86118473.90546
      1237.041         963.920
  22783384.516    22783384.3224   22783386.2724  119727518.431 6  93294192.22444
      3068.636        2391.138
  23598597.847    23598597.2484   23598601.6724  124011477.482 6  96632341.51243
       222.122         173.078
  21747117.597    21747117.4824   21747120.0234  114281907.015 7  89050853.86245
     -1007.103        -784.757
  20500587.632    20500587.0574   20500589.0334  107731352.127 8  83946536.86247
     -1089.253        -848.773
  24663202.299    24663202.0274   24663204.4634  129606014.644 5 100991718.89342
      3926.541        3059.643
  23021915.225    23021914.8204   23021916.6754  120981014.539 7  94270924.69144
      1766.408        1376.427
  22882018.176    22882017.8274   22882018.5234  120245839.818 6  93698077.99643
     -3139.939       -2446.698
  23057650.731    23057651.0454   23057655.1804  121168787.153 6  94417258.46243
     -1046.557        -815.515
  21783384.985    21783384.5814   21783387.2794  114472490.601 7  89199367.71146
      1688.492        1315.701
  23683985.382    23683985.0614   23683989.2224  124460200.787 6  96981998.69643
      2947.269        2296.554
  24524079.894    24524079.3694   24524082.7644  128874928.740 5 100422050.56443
     -3540.358       -2758.709
 08  5 13  1 18 30.0000000  0 13G 3G 6G 7G10G13G16G19G21G23G24G25G27
                                G29
  21889430.848    21889429.9964   21889433.1614  115029764.660 7  89633605.00244
      3153.801        2457.510
  21023987.170    21023986.5794   21023989.6734  110481835.254 8  86089765.39446
      1219.199         950.027
  22765897.514    22765897.4724   22765899.9764  119635627.958 6  93222589.29644
      3057.494        2382.465
  23597392.204    23597390.7944   23597394.6394  124005135.818 6  96627399.96143
       200.660         156.364
  21752929.936    21752929.8674   21752932.3114  114312450.934 7  89074654.32145
     -1029.115        -801.908
  20506853.750    20506853.1764   20506855.2374  107764281.290 8  83972195.98347
     -1105.979        -861.799
  24640794.368    24640793.8404   24640797.4784  129488265.160 4 100899966.02941
      3923.531        3057.315
  23011877.743    23011877.0214   23011878.7834  120928265.754 7  94229821.77344
      1750.204        1363.798
  22899979.703    22899979.4154   22899978.9754  120340227.155 6  93771626.54843
     -3152.538       -2456.525
  23063682.492    23063681.8634   23063685.6424  121200478.489 6  94441952.99743
     -1066.128        -830.752
  21773790.391    21773790.0614   21773793.1944  114422071.333 7  89160079.97146
      1672.842        1303.514
  23667182.599    23667181.6394   23667185.4654  124371897.107 6  96913190.68043
      2939.625        2290.612
  24544308.833    24544308.5814   24544311.3114  128981232.064 6 100504884.31643
     -3546.370       -2763.411
 08  5 13  1 19  0.0000000  0 13G 3G 6G 7G10G13G16G19G21G23G24G25G27
                                G29
  21871463.391    21871462.4514   21871465.9394  114935345.156 7  89560031.36244
      3140.815        2447.394
  21017078.269    21017077.7734   21017080.8594  110445529.528 8  86061475.24546
      1201.240         936.031
  22748474.831    22748474.7444   22748477.5394  119544071.771 6  93151246.85244
      3046.235        2373.689
  23596307.567    23596306.5564   23596311.5594  123999439.936 6  96622961.60843
       179.047         139.522
  21758867.962    21758867.7694   21758870.1404  114343654.712 7  89098968.96045
     -1051.114        -819.047
  20513215.283    20513214.5694   20513216.5314  107797710.406 8  83998244.63547
     -1122.629        -874.775
  24618407.004    24618405.3754   24618407.1764  129370606.569 5 100808284.02241
      3920.467        3054.902
  23001931.765    23001931.4564   23001933.3264  120876001.645 7  94189096.55944
      1733.999        1351.167
  22918012.837    22918011.9274   22918012.7864  120434990.549 6  93845468.13143
     -3165.070       -2466.286
  23069824.248    23069824.0344   23069827.1854  121232754.583 6  94467103.21943
     -1085.620        -845.956
  21764285.470    21764284.9594   21764287.3474  114372121.008 8  89121157.65246
      1657.130        1291.273
  23650423.069    23650422.2514   23650425.9624  124283823.651 6  96844562.04243
      2931.850        2284.559
  24564570.524    24564569.3274   24564572.9244  129087712.921 5 100587856.39541
     -3552.384       -2768.110
 08  5 13  1 19 30.0000000  0 13G 3G 6G 7G10G13G16G19G21G23G24G25G27
                                G29
  21853569.717    21853568.9204   21853572.2394  114841313.375 7  89486759.84244
      3127.822        2437.260
  21010271.131    21010270.7464   21010273.9624  110409758.753 8  86033601.90246
      1183.387         922.122
  22731116.241    22731116.0054   22731118.3634  119452849.817 6  93080164.84544
      3035.056        2364.983
  23595346.218    23595345.1424   23595349.9024  123994388.236 6  96619025.22143
       157.657         122.855
  21764930.562    21764930.4044   21764932.8524  114375514.653 7  89123794.88845
     -1072.985        -836.086
  20519671.044    20519670.4084   20519672.3214  107831635.762 8  84024679.96247
     -1139.181        -887.672
  24596033.504    24596031.9294   24596034.4084  129253038.265 5 100716672.35342
      3917.386        3052.490
  22992078.781    22992077.9024   22992079.7964  120824221.599 6  94148748.51244
      1717.863        1338.601
  22936116.485    22936115.3974   22936116.3294  120530124.499 6  93919598.47743
     -3177.340       -2475.850
  23076076.855    23076076.4444   23076080.5544  121265611.960 6  94492706.34743
     -1105.019        -861.039
  21754869.321    21754868.8794   21754871.4234  114322638.590 8  89082599.92246
      1641.526        1279.109
  23633706.600    23633705.4384   23633709.6554  124195979.889 5  96776112.38643
      2924.221        2278.605
  24584865.760    24584865.3534   24584867.9794  129194366.671 4 100670963.14641
     -3558.088       -2772.543
 08  5 13  1 20  0.0000000  0 13G 3G 6G 7G10G13G16G19G21G23G24G25G27
                                G29
  21835750.373    21835749.6394   21835753.0974  114747672.673 7  89413793.07745
      3114.895        2427.187
  21003566.265    21003565.7824   21003569.0294  110374524.169 8  86006146.35246
      1165.685         908.329
  22713821.203    22713820.9054   22713823.6054  119361964.976 6  93009345.52144
      3023.969        2356.330
  23594507.565    23594506.4804   23594510.7074  123989980.456 6  96615590.60143
       136.265         106.173
  21771118.010    21771117.9604   21771119.8074  114408029.634 7  89149131.24545
     -1094.629        -852.957
  20526221.274    20526220.4744   20526222.4404  107866056.762 8  84051501.50947
     -1155.516        -900.401
  24573679.279    24573677.1604   24573679.6004  129135562.953 5 100625133.09741
      3914.353        3050.156
  22982318.241    22982317.0734   22982319.0194  120772927.908 7  94108779.50544
      1701.821        1326.079
  22954289.510    22954289.4114   22954290.0124  120625626.067 6  93994015.30443
     -3189.405       -2485.254
  23082439.966    23082439.3084   23082443.2764  121299049.594 6  94518761.65043
     -1124.150        -875.961
  21745542.326    21745541.9924   21745544.6834  114273626.011 8  89044408.31346
      1626.010        1267.017
  23617034.445    23617033.5974   23617037.2134  124108367.982 6  96707843.37743
      2916.533        2272.623
  24605194.881    24605195.0084   24605196.6484  129301191.496 5 100754203.29141
     -3563.634       -2776.846
 08  5 13  1 20 30.0000000  0 13G 3G 6G 7G10G13G16G19G21G23G24G25G27
                                G29
  21818006.112    21818005.5944   21818008.9184  114654426.820 7  89341133.98045
      3101.516        2416.770
  20996963.950    20996963.4224   20996966.6054  110339828.034 8  85979110.36346
      1147.520         894.170
  22696591.036    22696590.9034   22696593.4184  119271420.768 6  92938791.59744
      3012.352        2347.286
  23593791.698    23593790.4094   23593794.9134  123986218.209 6  96612658.97843
       114.601          89.294
  21777430.129    21777430.0704   21777431.8924  114441199.716 7  89174978.06645
     -1116.651        -870.121
  20532865.555    20532864.9624   20532867.0114  107900974.086 8  84078709.79147
     -1172.266        -913.456
  24551342.446    24551340.6514   24551344.3114  129018184.170 5 100533669.09542
      3910.879        3047.430
  22972650.437    22972649.4044   22972651.1364  120722123.579 6  94069191.74144
      1685.213        1313.149
  22972532.882    22972532.2004   22972532.4544  120721493.391 6  94068717.08443
     -3201.726       -2494.851
  23088912.916    23088912.6984   23088916.6474  121333067.646 6  94545269.23343
     -1143.694        -891.195
  21736305.712    21736305.1744   21736307.6734  114225086.322 8  89006585.18146
      1610.027        1254.564
  23600406.918    23600406.4124   23600410.4244  124020991.032 6  96639757.46443
      2908.495        2266.371
  24625555.693    24625555.6544   24625558.0294  129408186.379 5 100837575.90042
     -3569.385       -2781.340
 08  5 13  1 21  0.0000000  0 13G 3G 6G 7G10G13G16G19G21G23G24G25G27
                                G29
  21800337.660    21800336.8474   21800340.2694  114561578.016 7  89268784.28745
      3088.302        2406.461
  20990464.212    20990463.7144   20990466.8884  110305671.363 8  85952494.76646
      1129.535         880.156
  22679426.900    22679426.5834   22679428.7124  119181220.091 6  92868505.35944
      3000.929        2338.386
  23593198.048    23593197.5744   23593202.0904  123983101.850 6  96610230.62343
        93.128          72.568
  21783866.739    21783866.5014   21783868.4774  114475023.976 7  89201334.62645
     -1138.366        -887.037
  20539604.438    20539603.7874   20539605.7854  107936386.746 8  84106304.06447
     -1188.655        -926.228
  24529026.269    24529025.0534   24529026.1774  128900903.861 5 100442281.54042
      3907.677        3044.910
  22963075.982    22963075.2694   22963076.5814  120671810.309 7  94029986.55444
      1668.934        1300.474
  22990845.149    22990844.5634   22990844.3234  120817723.871 6  94143701.91243
     -3213.741       -2504.217
  23095497.381    23095496.6244   23095500.5534  121367665.144 6  94572228.32943
     -1162.828        -906.115
  21727159.262    21727158.7864   21727161.4454  114177021.388 8  88969131.99046
      1594.252        1242.273
  23583825.048    23583824.5704   23583827.8444  123933851.203 6  96571856.31143
      2900.713        2260.290
  24645948.308    24645947.7354   24645951.4854  129515349.162 6 100921079.35243
     -3574.852       -2785.599
 08  5 13  1 21 30.0000000  0 13G 3G 6G 7G10G13G16G19G21G23G24G25G27
                                G29
  21782745.240    21782744.4294   21782747.8094  114469128.306 7  89196745.57045
      3075.112        2396.194
  20984067.095    20984066.6354   20984069.7024  110272054.476 8  85926299.79646
      1111.704         866.265
  22662327.562    22662327.4464   22662329.8134  119091364.708 6  92798488.18844
      2989.504        2329.484
  23592728.070    23592727.0924   23592732.0814  123980630.995 6  96608305.28443
        71.666          55.841
  21790427.482    21790426.9264   21790428.8024  114509500.649 7  89228199.54345
     -1159.930        -903.839
  20546437.233    20546436.5834   20546438.5834  107972293.292 8  84134283.20347
     -1204.965        -938.933
  24506727.146    24506725.2424   24506727.3564  128783725.179 5 100350973.81541
      3904.438        3042.419
  22953594.943    22953594.4394   22953596.2244  120621989.985 6  93991165.49044
      1652.604        1287.747
  23009225.432    23009225.0514   23009224.6374  120914314.001 6  94218966.94243
     -3225.492       -2513.373
  23102190.566    23102190.2104   23102194.1744  121402840.538 6  94599637.72643
     -1182.002        -921.032
  21718103.391    21718102.8444   21718105.0484  114129431.940 7  88932049.30346
      1578.508        1230.007
  23567287.422    23567287.0094   23567290.8404  123846950.295 5  96504141.32643
      2892.812        2254.146
  24666371.283    24666371.2254   24666374.4924  129622677.107 5 101004711.48842
     -3580.133       -2789.708
 08  5 13  1 22  0.0000000  0 13G 3G 6G 7G10G13G16G19G21G23G24G25G27
                                G29
  21765229.007    21765228.3024   21765231.4864  114377080.233 7  89125019.81045
      3061.434        2385.531
  20977773.022    20977772.4814   20977775.6524  110238978.600 8  85900526.39246
      1093.380         851.978
  22645295.222    22645295.1164   22645297.1714  119001857.663 6  92728742.43844
      2977.607        2320.213
  23592380.508    23592380.1784   23592384.7614  123978806.490 6  96606883.60443
        49.921          38.893
  21797112.026    21797111.9564   21797113.4234  114544628.860 7  89255572.18645
     -1181.881        -920.945
  20553363.855    20553363.2174   20553365.2644  108008693.000 8  84162646.61447
     -1221.658        -951.943
  24484448.180    24484446.6874   24484448.7314  128666649.526 5 100259746.22542
      3900.629        3039.446
  22944209.118    22944208.2944   22944209.9024  120572664.723 6  93952730.15044
      1635.786        1274.649
  23027673.751    23027673.4834   23027672.7684  121011261.385 6  94294510.37343
     -3237.626       -2522.822
  23108994.007    23108993.4214   23108997.3004  121438592.626 6  94627496.50843
     -1201.461        -936.204
  21709138.115    21709137.5204   21709140.5034  114082320.225 8  88895338.89146
      1562.296        1217.371
  23550797.097    23550796.3274   23550799.4944  123760290.679 5  96436614.37842
      2884.454        2247.633
  24686824.271    24686825.3794   24686829.0264  129730168.834 4 101088471.16742
     -3585.904       -2794.204
 08  5 13  1 22 30.0000000  0 13G 3G 6G 7G10G13G16G19G21G23G24G25G27
                                G29
  21747789.781    21747789.1814   21747792.6184  114285437.970 7  89053610.25045
      3048.085        2375.132
  20971582.219    20971581.7964   20971584.8294  110206446.361 8  85875176.62546
      1075.439         838.002
  22628329.240    22628329.2094   22628331.9194  118912703.308 6  92659271.53044
      2966.050        2311.202
  23592157.858    23592156.1564   23592161.3014  123977630.095 6  96605966.92943
        28.563          22.252
  21803920.313    21803920.3494   21803922.1444  114580408.944 7  89283452.77645
     -1203.402        -937.719
  20560384.504    20560383.8984   20560385.9154  108045586.906 8  84191395.11147
     -1237.879        -964.585
  24462188.776    24462187.7394   24462189.0344  128549680.655 5 100168601.68742
      3897.329        3036.861
  22934918.393    22934917.0404   22934918.8054  120523838.044 7  93914683.36744
      1619.356        1261.840
  23046189.035    23046188.9114   23046189.6544  121108564.430 6  94370330.95743
     -3249.157       -2531.811
  23115907.513    23115907.3764   23115910.8614  121474922.075 6  94655805.19743
     -1220.423        -950.981
  21700264.652    21700264.2914   21700266.6964  114035689.644 8  88859003.37446
      1546.464        1205.038
  23534352.926    23534352.6134   23534355.8794  123673876.020 6  96369278.30242
      2876.512        2241.434
  24707311.279    24707311.4874   24707315.6664  129837823.774 4 101172358.00741
     -3591.080       -2798.211
 08  5 13  1 23  0.0000000  0 13G 3G 6G 7G10G13G16G19G21G23G24G25G27
                                G29
  21730427.592    21730427.0704   21730430.6014  114194199.468 7  88982515.31845
      3034.554        2364.583
  20965494.040    20965493.6444   20965496.8374  110174453.830 8  85850247.39546
      1057.462         823.994
  22611430.510    22611430.5244   22611433.1514  118823899.249 6  92590073.59744
      2954.323        2302.066
  23592056.048    23592055.1224   23592059.7444  123977096.747 6  96605551.34143
         7.057           5.499
  21810852.193    21810852.2104   21810853.9004  114616835.101 7  89311836.79645
     -1224.938        -954.495
  20567498.138    20567497.5244   20567499.5904  108082969.485 8  84220524.42347
     -1254.172        -977.280
  24439950.377    24439949.1334   24439951.3234  128432816.456 5 100077538.63641
      3893.690        3034.041
  22925719.928    22925719.6414   22925721.5364  120475506.442 6  93877022.34644
      1602.798        1248.932
  23064772.856    23064772.2154   23064772.3634  121206215.912 6  94446423.01443
     -3260.805       -2540.881
  23122929.269    23122929.0084   23122932.7304  121511823.178 6  94684559.31843
     -1239.535        -965.862
  21691482.171    21691481.6704   21691484.1984  113989536.907 8  88823040.20646
      1530.477        1192.576
  23517955.482    23517954.4804   23517957.5054  123587703.677 6  96302131.02443
      2868.414        2235.130
  24727828.560    24727829.8434   24727829.5624  129945634.555 5 101256366.48641
     -3596.236       -2802.267
 08  5 13  1 23 30.0000000  0 13G 3G 6G 7G10G13G16G19G21G23G24G25G27
                                G29
  21713143.093    21713142.4144   21713145.3094  114103368.025 7  88911737.61245
      3020.814        2353.880
  20959509.170    20959508.6984   20959511.8454  110143002.639 8  85825739.96046
      1039.287         809.840
  22594599.358    22594598.7934   22594601.2224  118735448.565 7  92521150.99444
      2942.365        2292.756
  23592077.168    23592075.9464   23592080.7954  123977207.956 6  96605637.98443
       -14.517         -11.318
  21817906.923    21817906.9534   21817908.4144  114653906.793 7  89340723.82845
     -1246.521        -971.308
  20574704.724    20574704.0884   20574706.0844  108120839.975 8  84250033.89647
     -1270.562        -990.047
  24417732.873    24417731.7504   24417733.6764  128316060.302 5  99986559.91242
      3889.959        3031.146
  22916618.231    22916617.2044   22916619.2924  120427673.710 7  93839750.15744
      1586.004        1235.841
  23083420.401    23083419.6714   23083420.9624  121304213.318 6  94522784.57043
     -3272.416       -2549.941
  23130060.775    23130059.7564   23130063.5494  121549295.192 6  94713758.30143
     -1258.660        -980.785
  21682790.877    21682790.2504   21682792.9304  113943864.429 8  88787451.26046
      1514.304        1179.977
  23501603.745    23501603.2114   23501606.5564  123501776.236 6  96235174.58543
      2860.064        2228.622
  24748374.329    24748374.4424   24748374.6484  130053599.619 6 101340495.17141
     -3601.467       -2806.357
 08  5 13  1 24  0.0000000  0 13G 3G 6G 7G10G13G16G19G21G23G24G25G27
                                G29
  21695936.650    21695936.2104   21695939.2894  114012948.404 7  88841280.80645
      3007.174        2343.252
  20953627.775    20953627.3984   20953630.4394  110112095.911 8  85801656.76946
      1021.163         795.711
  22577836.297    22577835.8974   22577837.6744  118647356.580 6  92452507.91344
      2930.418        2283.441
  23592221.670    23592220.1844   23592224.5034  123977965.910 6  96606228.61443
       -35.992         -28.052
  21825084.201    21825084.0724   21825086.1494  114691624.687 7  89370114.39845
     -1268.019        -988.066
  20582004.461    20582003.7784   20582005.8314  108159200.393 8  84279925.14747
     -1286.773       -1002.675
  24395536.001    24395535.2604   24395536.7664  128199416.903 5  99895669.04242
      3886.211        3028.211
  22907611.334    22907610.7194   22907612.5564  120380343.720 6  93802869.70244
      1569.313        1222.837
  23102134.501    23102134.2994   23102134.5074  121402556.473 6  94599415.57843
     -3283.781       -2558.784
  23137299.456    23137298.8564   23137302.7574  121587339.201 6  94743402.96243
     -1277.599        -995.533
  21674192.067    21674191.6824   21674193.9624  113898676.385 7  88752239.81746
      1498.209        1167.438
  23485299.422    23485298.9684   23485302.5024  123416098.364 6  96168412.61943
      2851.706        2222.118
  24768947.700    24768948.7624   24768951.6034  130161719.833 5 101424744.69942
     -3606.485       -2810.252
 08  5 13  1 24 30.0000000  0 13G 3G 6G 7G10G13G16G19G21G23G24G25G27
                                G29
  21678808.863    21678808.1314   21678811.3254  113922940.869 7  88771145.08245
      2993.390        2332.509
  20947849.760    20947849.2974   20947852.5044  110081732.391 8  85777996.85046
      1003.057         781.601
  22561140.747    22561140.6224   22561142.9234  118559623.746 6  92384144.69744
      2918.456        2274.116
  23592487.816    23592486.6644   23592491.5704  123979368.551 6  96607321.60043
       -57.483         -44.798
  21832384.509    21832384.2874   21832385.8534  114729985.546 7  89400005.97745
     -1289.344       -1004.687
  20589396.886    20589396.1804   20589398.2004  108198047.444 8  84310195.56547
     -1302.979       -1015.318
  24373360.410    24373359.6824   24373362.2214  128082886.321 5  99804866.11742
      3882.550        3025.363
  22898700.573    22898699.9144   22898701.7954  120333515.554 7  93766380.19744
      1552.572        1209.796
  23120913.106    23120912.9654   23120912.8864  121501240.121 6  94676311.89243
     -3295.076       -2567.591
  23144647.203    23144646.4634   23144650.7144  121625952.177 6  94773490.96543
     -1296.550       -1010.296
  21665684.671    21665684.3344   21665687.2274  113853972.109 8  88717405.32746
      1482.083        1154.866
  23469043.345    23469042.2494   23469046.2144  123330669.830 6  96101844.95343
      2843.428        2215.662
  24789552.028    24789551.0104   24789553.2584  130269991.004 4 101509111.77342
     -3611.516       -2814.138
 08  5 13  1 25  0.0000000  0 13G 3G 6G 7G10G13G16G19G21G23G24G25G27
                                G29
  21661759.718    21661759.2414   21661762.1994  113833347.631 7  88701332.18845
      2979.494        2321.684
  20942175.299    20942174.8954   20942178.0504  110051913.025 8  85754761.00246
       984.914         767.464
  22544514.339    22544514.1094   22544516.8124  118472252.316 7  92316063.08244
      2906.316        2264.661
  23592877.772    23592876.6074   23592881.0144  123981416.159 6  96608917.13543
       -79.054         -61.600
  21839806.113    21839806.1754   21839807.5764  114768988.456 7  89430397.86445
     -1310.755       -1021.366
  20596881.692    20596880.9344   20596883.0294  108237380.442 8  84340844.64847
     -1319.183       -1027.935
  24351207.497    24351207.4454   24351207.4264  127966471.221 5  99714153.17142
      3878.666        3022.333
  22889885.397    22889885.2084   22889886.6544  120287191.864 7  93730283.64544
      1535.697        1196.649
  23139756.811    23139756.4494   23139755.6784  121600261.599 6  94753471.49343
     -3306.303       -2576.346
  23152103.201    23152102.4574   23152106.1144  121665132.750 6  94804021.28043
     -1315.443       -1025.047
  21657270.458    21657270.0964   21657272.3714  113809753.686 8  88682949.40746
      1465.829        1142.204
  23452834.552    23452834.0124   23452837.8074  123245492.890 6  96035473.33643
      2834.995        2209.084
  24810182.956    24810182.5044   24810186.1094  130378411.030 4 101593594.71841
     -3616.393       -2817.960
 08  5 13  1 25 30.0000000  0 13G 3G 6G 7G10G13G16G19G21G23G24G25G27
                                G29
  21644789.868    21644789.2204   21644792.5654  113744169.850 7  88631843.02445
      2965.564        2310.826
  20936604.368    20936603.8504   20936607.1914  110022637.201 8  85731948.68046
       966.789         753.346
  22527957.192    22527956.9814   22527959.1604  118385243.364 7  92248263.92444
      2894.213        2255.229
  23593389.881    23593389.1794   23593392.7624  123984107.196 6  96611014.07143
      -100.466         -78.280
  21847350.005    21847349.8334   21847351.6984  114808630.443 7  89461287.71645
     -1332.094       -1037.980
  20604458.191    20604457.7434   20604459.7844  108277196.785 8  84371870.36447
     -1335.285       -1040.481
  24329075.697    24329075.6034   24329078.1054  127850172.024 5  99623530.49842
      3874.650        3019.196
  22881166.639    22881165.9974   22881167.6704  120241373.142 6  93694580.68544
      1518.808        1183.482
  23158663.273    23158662.7674   23158662.9024  121699616.101 6  94830890.59143
     -3317.357       -2584.955
  23159665.957    23159665.5084   23159670.1004  121704878.255 6  94834991.79243
     -1334.363       -1039.781
  21648948.293    21648947.8664   21648950.6474  113766020.754 8  88648871.81146
      1449.593        1129.554
  23436673.771    23436672.9924   23436677.2474  123160568.401 6  95969298.44743
      2826.598        2202.531
  24830842.769    24830843.3714   24830845.4104  130486975.962 5 101678190.75241
     -3621.234       -2821.751
 08  5 13  1 26  0.0000000  0 13G 3G 6G 7G10G13G16G19G21G23G24G25G27
                                G29
  21627899.381    21627898.5884   21627901.8924  113655408.578 7  88562678.41545
      2951.658        2299.999
  20931136.613    20931136.1814   20931139.2504  109993904.273 8  85709559.41646
       948.654         739.213
  22511469.126    22511469.2854   22511471.1804  118298598.135 7  92180748.18044
      2882.000        2245.714
  23594023.941    23594023.6674   23594027.5694  123987440.473 6  96613611.42643
      -121.875         -94.967
  21855014.472    21855014.7184   21855016.5534  114848908.460 7  89492673.17245
     -1353.296       -1054.495
  20612126.711    20612126.0914   20612128.1824  108317494.154 8  84403270.91647
     -1351.343       -1052.992
  24306968.624    24306966.5394   24306969.1284  127733989.742 5  99532998.89642
      3870.676        3016.096
  22872543.710    22872542.7234   22872544.7174  120196059.302 6  93659271.30644
      1501.945        1170.360
  23177633.904    23177632.8234   23177632.2764  121799299.344 6  94908565.85743
     -3328.301       -2593.477
  23167336.913    23167336.3614   23167340.2874  121745186.076 6  94866400.46343
     -1353.037       -1054.367
  21640718.379    21640718.0164   21640720.7774  113722773.640 8  88615172.77146
      1433.366        1116.909
  23420561.606    23420560.9084   23420564.1594  123075896.825 6  95903320.62043
      2818.016        2195.858
  24851528.590    24851528.3544   24851531.5644  130595682.759 5 101762897.35841
     -3626.017       -2825.449
 08  5 13  1 26 30.0000000  0 13G 3G 6G 7G10G13G16G19G21G23G24G25G27
                                G29
  21611088.635    21611088.1674   21611091.1514  113567068.498 7  88493842.00345
      2937.763        2289.165
  20925772.992    20925772.3914   20925775.4294  109965717.216 8  85687595.48446
       930.589         725.135
  22495051.804    22495051.4764   22495053.2424  118212321.664 7  92113519.77544
      2869.840        2236.239
  23594780.704    23594779.9434   23594784.4874  123991417.956 6  96616710.77043
      -143.186        -111.565
  21862800.684    21862800.3424   21862802.0624  114889823.699 7  89524555.18045
     -1374.306       -1070.888
  20619886.763    20619886.1944   20619888.3424  108358274.008 8  84435047.43847
     -1367.213       -1065.360
  24284882.658    24284881.5874   24284882.8894  127617929.212 5  99442562.23342
      3866.803        3013.114
  22864017.343    22864016.4844   22864018.6334  120151254.474 6  93624358.45044
      1485.146        1157.261
  23196663.970    23196663.4814   23196664.3614  121899311.078 6  94986497.06643
     -3338.976       -2601.791
  23175113.797    23175113.7584   23175117.9834  121786057.095 6  94898247.99443
     -1371.640       -1068.801
  21632582.392    21632581.8464   21632584.4834  113680016.527 8  88581855.55246
      1417.199        1104.312
  23404498.234    23404497.6034   23404500.3184  122991482.666 6  95837543.34543
      2809.690        2189.379
  24872241.570    24872241.3174   24872243.6734  130704531.362 5 101847714.50341
     -3630.414       -2828.902
 08  5 13  1 27  0.0000000  0 13G 3G 6G 7G10G13G16G19G21G23G24G25G27
                                G29
  21594357.656    21594357.2204   21594360.6684  113479148.753 7  88425333.11545
      2923.512        2278.062
  20920512.707    20920512.1874   20920515.1304  109938074.081 8  85666055.39546
       912.291         710.877
  22478703.477    22478703.3544   22478705.2394  118126413.272 7  92046578.16344
      2857.321        2226.487
  23595659.860    23595658.6844   23595662.8514  123996036.725 6  96620309.80443
      -164.747        -128.374
  21870706.824    21870706.5974   21870708.6264  114931371.625 7  89556930.18445
     -1395.562       -1087.444
  20627738.177    20627737.4434   20627739.4554  108399532.241 8  84467196.70147
     -1383.358       -1077.939
  24262818.437    24262817.5204   24262820.1954  127501989.933 5  99352219.92542
      3862.490        3009.728
  22855588.560    22855587.3244   22855588.9444  120106958.114 7  93589841.81144
      1467.890        1143.814
  23215757.166    23215756.1644   23215756.4674  121999645.364 6  95064679.57343
     -3349.989       -2610.364
  23182998.660    23182997.5334   23183001.9384  121827486.936 6  94930530.98243
     -1390.397       -1083.409
  21624538.413    21624538.0864   21624540.6784  113637747.792 8  88548918.88946
      1400.688        1091.446
  23388483.308    23388482.7004   23388486.2234  122907325.104 6  95771966.04543
      2800.827        2182.471
  24892981.944    24892980.3164   24892983.6724  130813516.831 4 101932638.24441
     -3635.132       -2832.554
 08  5 13  1 27 30.0000000  0 13G 3G 6G 7G10G13G16G19G21G23G24G25G27
                                G29
  21577709.019    21577708.0604   21577711.4514  113391656.557 7  88357157.38645
      2909.474        2267.123
  20915356.828    20915356.2324   20915359.2734  109910979.755 8  85644942.95946
       894.148         696.741
  22462427.153    22462427.0384   22462429.1294  118040879.617 7  91979928.57444
      2845.040        2216.917
  23596661.560    23596660.4754   23596665.3214  124001301.100 6  96624411.90843
      -186.054        -144.977
  21878734.275    21878733.8034   21878735.5114  114973554.772 7  89589800.14645
     -1416.475       -1103.745
  20635681.027    20635680.2904   20635682.2584  108441272.235 8  84499721.40947
     -1399.167       -1090.257
  24240781.072    24240779.9794   24240781.3124  127386178.144 5  99261977.01442
      3858.328        3006.501
  22847256.076    22847255.6954   22847257.6694  120063175.186 6  93555725.18744
      1451.056        1130.693
  23234911.889    23234911.4244   23234911.8934  122100303.348 6  95143114.34743
     -3360.432       -2618.511
  23190988.982    23190988.5444   23190992.3624  121869478.527 6  94963251.69843
     -1408.880       -1097.821
  21616589.460    21616588.9534   21616591.6514  113595973.301 8  88516367.34046
      1384.408        1078.756
  23372518.535    23372517.9164   23372521.7234  122823430.059 6  95706593.32643
      2792.293        2175.805
  24913746.823    24913745.6434   24913749.7664  130922641.221 4 102017670.18641
     -3639.673       -2836.085
 08  5 13  1 28  0.0000000  0 13G 3G 6G 7G10G13G16G19G21G23G24G25G27
                                G29
  21561140.451    21561139.8614   21561142.9494  113304589.165 7  88289312.66145
      2895.059        2255.892
  20910304.112    20910303.7814   20910306.8054  109884429.180 8  85624254.23246
       875.882         682.507
  22446221.462    22446221.4024   22446223.3034  117955718.218 7  91913569.03944
      2832.408        2207.066
  23597784.541    23597784.0494   23597788.7674  124007205.433 6  96629012.67843
      -207.593        -161.761
  21886880.651    21886880.5274   21886881.9844  115016366.588 7  89623159.98845
     -1437.650       -1120.242
  20643714.329    20643713.5824   20643715.5364  108483487.484 8  84532616.42047
     -1415.164       -1102.725
  24218767.418    24218765.6384   24218766.6294  127270491.096 5  99171831.40742
      3854.005        3003.123
  22839022.338    22839021.2154   22839022.9274  120019902.292 7  93522006.01444
      1433.747        1117.212
  23254126.410    23254125.8424   23254125.8864  122201276.737 6  95221794.90543
     -3371.092       -2626.819
  23199085.316    23199084.9364   23199089.0164  121912025.145 6  94996404.90543
     -1427.548       -1112.365
  21608732.998    21608732.5124   21608735.2464  113554688.994 8  88484197.76146
      1367.879        1065.880
  23356603.814    23356603.1384   23356606.4484  122739794.627 6  95641422.91144
      2783.436        2168.916
  24934537.260    24934536.8844   24934540.5554  131031897.053 5 102102804.48641
     -3644.154       -2839.585
 08  5 13  1 28 30.0000000  0 13G 3G 6G 7G10G13G16G19G21G23G24G25G27
                                G29
  21544653.790    21544653.1384   21544656.4524  113217952.053 7  88221803.25845
      2880.808        2244.785
  20905356.265    20905355.8274   20905358.6764  109858427.292 8  85603993.01546
       857.679         668.323
  22430087.673    22430087.3184   22430089.6014  117870935.528 7  91847504.62744
      2819.836        2197.272
  23599030.987    23599029.8864   23599034.5674  124013753.642 5  96634115.17543
      -228.898        -178.368
  21895147.590    21895147.6334   21895149.0334  115059809.447 7  89657011.57345
     -1458.484       -1136.481
  20651838.552    20651837.9214   20651839.7704  108526180.866 8  84565883.98947
     -1430.996       -1115.062
  24196777.751    24196776.4474   24196777.9674  127154935.328 5  99081788.10942
      3849.613        2999.698
  22830885.569    22830885.1624   22830886.9874  119977145.788 6  93488689.26744
      1416.668        1103.896
  23273401.184    23273400.1274   23273400.4804  122302566.366 6  95300721.85843
     -3381.484       -2634.924
  23207288.201    23207287.2944   23207291.2554  121955129.555 6  95029992.75043
     -1446.033       -1126.779
  21600971.370    21600970.8954   21600973.6304  113513900.614 8  88452414.62446
      1351.432        1053.063
  23340738.179    23340737.7764   23340741.6954  122656424.696 6  95576459.36244
      2774.615        2162.043
  24955353.608    24955353.2804   24955357.4804  131141285.952 5 102188042.57742
     -3648.368       -2842.875
 08  5 13  1 29  0.0000000  0 13G 3G 6G 7G10G13G16G19G21G23G24G25G27
                                G29
  21528249.342    21528248.7884   21528252.0784  113131745.801 7  88154629.57745
      2866.448        2233.590
  20900512.398    20900511.9284   20900514.9304  109832972.782 8  85584158.35646
       839.460         654.125
  22414026.075    22414025.6684   22414028.2234  117786531.836 7  91781735.54144
      2807.272        2187.490
  23600398.957    23600398.2534   23600402.6704  124020943.652 6  96639717.75843
      -250.217        -194.978
  21903533.830    21903533.7474   21903535.6314  115103879.873 7  89691352.15645
     -1479.332       -1152.723
  20660053.343    20660052.5854   20660054.5544  108569349.787 8  84599522.12447
     -1446.760       -1127.346
  24174812.166    24174811.0264   24174813.1954  127039510.841 5  98991847.04242
      3845.322        2996.350
  22822847.515    22822846.7674   22822848.4254  119934904.376 7  93455773.87544
      1399.531        1090.538
  23292735.163    23292734.6164   23292735.1214  122404167.651 6  95379891.67843
     -3391.683       -2642.874
  23215595.771    23215595.5414   23215599.3004  121998788.140 6  95064012.40743
     -1464.379       -1141.068
  21593303.876    21593303.4624   21593305.8574  113473607.837 8  88421017.66046
      1334.937        1040.211
  23324924.199    23324923.6564   23324926.8934  122573320.501 6  95511702.88943
      2765.841        2155.198
  24976193.378    24976193.6974   24976195.7804  131250804.388 5 102273381.63241
     -3652.652       -2846.213
 08  5 13  1 29 30.0000000  0 13G 3G 6G 7G10G13G16G19G21G23G24G25G27
                                G29
  21511927.243    21511926.5614   21511929.7184  113045972.362 7  88087793.12845
      2851.816        2222.192
  20895772.706    20895772.2744   20895775.1504  109808065.728 8  85564750.25246
       821.065         639.792
  22398037.393    22398037.2344   22398038.7864  117702509.368 7  91716263.49444
      2794.313        2177.390
  23601889.479    23601888.3964   23601893.0804  124028774.325 6  96645819.61343
      -271.770        -211.771
  21912039.422    21912039.3404   21912040.9394  115148575.747 7  89726180.11145
     -1500.318       -1169.078
  20668358.282    20668357.5554   20668359.3734  108612992.342 8  84633529.31947
     -1462.703       -1139.771
  24152874.128    24152871.9244   24152874.7914  126924219.228 5  98902009.44442
      3840.800        2992.837
  22814907.287    22814906.9874   22814908.5254  119893180.387 7  93423261.67044
      1382.089        1076.957
  23312127.311    23312127.1194   23312126.9864  122506077.161 6  95459301.67243
     -3402.179       -2651.043
  23224008.426    23224007.9104   23224012.7254  122042999.061 6  95098462.47043
     -1482.922       -1155.531
  21585730.795    21585730.3344   21585733.0984  113433811.500 8  88390007.53046
      1318.188        1027.158
  23309161.314    23309160.4784   23309163.8154  122490483.576 6  95447154.65544
      2756.679        2148.053
  24997059.014    24997058.9194   24997061.7924  131360449.711 4 102358819.55241
     -3657.026       -2849.639
 08  5 13  1 30  0.0000000  0 13G 3G 6G 7G10G13G16G19G21G23G24G25G27
                                G29
  21495688.060    21495687.5844   21495690.8514  112960635.284 7  88021296.73345
      2837.269        2210.852
  20891137.740    20891137.2104   20891140.1404  109783708.124 8  85545770.32446
       802.766         625.529
  22382121.256    22382121.2504   22382123.5714  117618871.601 7  91651091.22644
      2781.460        2167.370
  23603501.439    23603500.4494   23603505.2364  124037246.703 6  96652421.45642
      -293.158        -228.437
  21920663.554    21920663.4694   21920665.8924  115193896.606 7  89761495.06245
     -1521.117       -1185.294
  20676753.026    20676752.5364   20676754.4284  108657108.630 8  84667905.64247
     -1478.416       -1152.014
  24130960.327    24130958.5374   24130961.2154  126809063.809 5  98812277.92242
      3836.209        2989.243
  22807066.619    22807065.9114   22807067.5334  119851976.229 7  93391154.53844
      1364.790        1063.469
  23331578.438    23331577.7024   23331578.7934  122608292.479 6  95538949.92243
     -3412.258       -2658.899
  23232527.078    23232526.3784   23232530.8704  122087761.888 6  95133342.57243
     -1501.298       -1169.843
  21578252.775    21578252.3604   21578254.8524  113394513.773 8  88359385.92546
      1301.583        1014.218
  23293448.924    23293448.3764   23293451.9354  122407917.036 6  95382817.10544
      2747.698        2141.058
  25017947.832    25017946.5674   25017949.7654  131470220.516 5 102444355.19841
     -3661.087       -2852.809
 08  5 13  1 30 30.0000000  0 13G 3G 6G 7G10G13G16G19G21G23G24G25G27
                                G29
  21479532.347    21479531.9264   21479535.3164  112875737.456 7  87955142.59845
      2822.548        2199.387
  20886607.306    20886606.7784   20886609.7434  109759900.979 8  85527219.32546
       784.374         611.196
  22366279.498    22366279.3704   22366281.6314  117535621.606 7  91586221.13744
      2768.483        2157.259
  23605235.689    23605235.3604   23605239.7094  124046361.588 5  96659523.97142
      -314.600        -245.157
  21929406.578    21929406.8924   21929408.3084  115239841.577 7  89797296.34645
     -1541.937       -1201.510
  20685238.335    20685237.6814   20685239.6124  108701698.543 8  84702651.05747
     -1494.255       -1164.355
  24109073.997    24109072.1984   24109073.4594  126694048.402 5  98722655.51742
      3831.403        2985.525
  22799325.332    22799324.6314   22799326.1174  119811293.345 7  93359453.53244
      1347.357        1049.894
  23351087.828    23351087.4754   23351086.7664  122710811.919 6  95618835.23343
     -3422.401       -2666.825
  23241150.704    23241149.8554   23241153.9214  122133075.941 6  95168652.20243
     -1519.691       -1184.169
  21570869.906    21570869.5384   21570872.1104  113355717.519 8  88329155.08446
      1284.792        1001.133
  23277788.946    23277788.5794   23277791.9914  122325623.667 6  95318692.43444
      2738.441        2133.849
  25038860.975    25038859.1694   25038863.2564  131580115.837 5 102529987.88441
     -3665.208       -2856.009
 08  5 13  1 31  0.0000000  0 13G 3G 6G 7G10G13G16G19G21G23G24G25G27
                                G29
  21463461.014    21463460.4174   21463463.5914  112791280.801 7  87889332.21245
      2807.856        2187.939
  20882181.703    20882181.2894   20882184.0814  109736644.151 8  85509097.12346
       766.053         596.920
  22350511.429    22350511.3004   22350513.6584  117452761.245 7  91521654.63944
      2755.457        2147.109
  23607092.455    23607091.1914   23607096.2234  124056117.781 6  96667126.19642
      -335.866        -261.710
  21938268.243    21938267.9764   21938269.6624  115286408.223 7  89833582.05745
     -1562.569       -1217.589
  20693813.138    20693812.5654   20693814.5444  108746760.119 8  84737763.99547
     -1509.906       -1176.549
  24087212.574    24087211.8374   24087214.2824  126579174.214 5  98633143.19942
      3826.744        2981.892
  22791682.789    22791682.0914   22791684.2444  119771133.456 6  93328160.11044
      1329.954        1036.330
  23370652.715    23370652.7074   23370653.1824  122813631.631 6  95698954.47043
     -3432.285       -2674.509
  23249877.105    23249876.9464   23249880.8804  122178938.962 6  95204389.61643
     -1537.961       -1198.415
  21563583.207    21563582.5894   21563584.9534  113317423.376 7  88299315.49246
      1268.086         988.120
  23262181.295    23262180.8114   23262184.2244  122243605.019 6  95254781.84644
      2729.364        2126.767
  25059795.800    25059795.9614   25059798.2284  131690132.967 5 102615715.50041
     -3669.250       -2859.186
 08  5 13  1 31 30.0000000  0 13G 3G 6G 7G10G13G16G19G21G23G24G25G27
                                G29
  21447474.020    21447473.3944   21447476.5714  112707267.809 7  87823867.55445
      2793.002        2176.364
  20877861.080    20877860.6484   20877863.5134  109713938.990 8  85491404.77546
       747.650         582.584
  22334818.595    22334818.2504   22334820.7534  117370293.671 7  91457394.22144
      2742.300        2136.862
  23609071.166    23609070.7084   23609074.7654  124066515.742 6  96675228.51442
      -357.297        -278.419
  21947247.544    21947247.3694   21947249.4604  115333595.367 7  89870351.23445
     -1583.244       -1233.694
  20702477.789    20702477.1324   20702479.1834  108792292.882 8  84773244.08547
     -1525.601       -1188.779
  24065381.056    24065380.4874   24065380.5404  126464444.069 5  98543743.07342
      3821.805        2978.018
  22784140.864    22784139.8084   22784141.7694  119731498.495 6  93297275.74344
      1312.415        1022.664
  23390276.136    23390275.5044   23390275.3644  122916749.016 6  95779305.66843
     -3442.195       -2682.225
  23258708.652    23258708.4724   23258712.1964  122225349.858 6  95240553.93643
     -1556.162       -1212.589
  21556391.589    21556391.2194   21556393.8974  113279633.046 8  88269868.48446
      1251.263         975.012
  23246626.605    23246626.0624   23246629.7444  122161863.411 6  95191087.08444
      2720.029        2119.507
  25080753.353    25080754.1654   25080756.5074  131800270.281 4 102701536.69641
     -3673.259       -2862.278
 08  5 13  1 32  0.0000000  0 13G 3G 6G 7G10G13G16G19G21G23G24G25G27
                                G29
  21431571.765    21431570.9204   21431574.1234  112623699.816 7  87758749.66945
      2778.147        2164.791
  20873645.193    20873644.8804   20873647.7084  109691784.813 8  85474141.79846
       729.267         568.265
  22319200.513    22319200.4374   22319202.5424  117288220.431 7  91393441.04944
      2729.122        2126.587
  23611171.675    23611171.2124   23611175.0964  124077553.589 6  96683829.44742
      -378.596        -295.008
  21956344.560    21956344.6034   21956346.1354  115381400.254 7  89907601.78445
     -1603.787       -1249.706
  20711231.459    20711230.8374   20711232.9824  108838294.332 8  84809089.36447
     -1541.187       -1200.923
  24043576.790    24043575.2974   24043576.3164  126349859.480 6  98454456.43542
      3817.026        2974.292
  22776698.405    22776697.4534   22776699.4844  119692389.601 7  93266801.25444
      1294.798        1008.937
  23409954.428    23409954.4324   23409954.4554  123020160.099 6  95859885.72343
     -3451.904       -2689.783
  23267644.643    23267643.4784   23267646.8924  122272305.786 6  95277142.97843
     -1574.292       -1226.714
  21549296.173    21549295.8114   21549298.6174  113242346.949 8  88240814.38346
      1234.430         961.894
  23231124.209    23231124.0264   23231127.9314  122080399.802 6  95127608.97044
      2710.760        2112.280
  25101735.957    25101735.1674   25101737.2224  131910524.489 5 102787449.05141
     -3677.188       -2865.353
 08  5 13  1 32 30.0000000  0 13G 3G 6G 7G10G13G16G19G21G23G24G25G27
                                G29
  21415754.719    21415754.0284   21415757.0444  112540581.131 7  87693981.87745
      2763.050        2153.023
  20869534.854    20869534.3414   20869537.2114  109670184.443 8  85457310.37046
       710.781         553.856
  22303658.478    22303658.1684   22303660.5364  117206545.889 7  91329798.56644
      2715.765        2116.179
  23613394.444    23613393.5474   23613398.2854  124089233.506 6  96692930.67442
      -400.020        -311.705
  21965558.859    21965559.0394   21965560.6624  115429823.373 7  89945334.08244
     -1624.434       -1265.793
  20720074.884    20720074.1554   20720076.2724  108884765.823 8  84845300.89747
     -1556.927       -1213.192
  24021799.776    24021798.9234   24021800.8414  126235424.545 5  98365286.29543
      3811.861        2970.280
  22769356.935    22769356.0174   22769358.0904  119653809.467 7  93236738.79444
      1277.102         995.148
  23429689.153    23429688.4424   23429689.6024  123123863.928 6  95940693.86543
     -3461.705       -2697.434
  23276683.986    23276683.6574   23276686.8774  122319807.925 6  95314157.62743
     -1592.532       -1240.923
  21542297.679    21542297.2604   21542299.6534  113205568.704 8  88212155.99646
      1217.417         948.639
  23215676.180    23215675.5014   23215679.1974  121999218.697 6  95064351.01744
      2701.245        2104.856
  25122738.558    25122737.4854   25122740.3344  132020895.693 5 102873452.55541
     -3680.979       -2868.294
 08  5 13  1 33  0.0000000  0 13G 3G 6G 7G10G13G16G19G21G23G24G25G27
                                G29
  21400023.501    21400022.8534   21400025.8634  112457913.082 7  87629565.22145
      2748.089        2141.371
  20865529.691    20865529.1854   20865532.0214  109649137.103 8  85440909.90846
       692.418         539.548
  22288192.137    22288192.2574   22288194.4824  117125271.391 7  91266467.80345
      2702.467        2105.823
  23615739.576    23615738.0404   23615741.7274  124101553.841 6  96702530.95842
      -421.272        -328.285
  21974891.233    21974890.8564   21974892.0574  115478861.723 7  89983545.77744
     -1644.829       -1281.686
  20729006.852    20729006.3254   20729008.4294  108931705.001 8  84881876.89647
     -1572.398       -1225.244
  24000052.383    24000050.9444   24000053.7024  126121140.979 5  98276234.31443
      3806.903        2966.418
  22762115.836    22762115.3844   22762117.3664  119615759.045 7  93207089.13244
      1259.546         981.467
  23449478.322    23449477.4544   23449477.9144  123227856.535 6  96021727.05443
     -3471.159       -2704.802
  23285826.751    23285826.4084   23285829.8254  122367853.558 6  95351595.75443
     -1610.483       -1254.908
  21535395.735    21535395.2774   21535398.0774  113169298.514 8  88183893.50946
      1200.539         935.488
  23200282.438    23200281.2974   23200284.6084  121918320.840 6  95001313.73244
      2691.893        2097.582
  25143762.751    25143761.5654   25143763.9754  132131380.982 5 102959545.05941
     -3684.594       -2871.090
 08  5 13  1 33 30.0000000  0 13G 3G 6G 7G10G13G16G19G21G23G24G25G27
                                G29
  21384377.904    21384377.2374   21384380.1434  112375695.278 7  87565499.40145
      2733.068        2129.664
  20861629.346    20861628.8004   20861631.6394  109628640.760 8  85424938.76346
       674.056         525.240
  22272802.163    22272802.1664   22272804.2934  117044396.590 7  91203448.48345
      2689.123        2095.417
  23618204.948    23618203.5364   23618207.4914  124114510.993 5  96712627.45042
      -442.523        -344.823
  21984338.643    21984338.5354   21984340.3224  115528511.175 7  90022233.66544
     -1665.196       -1297.553
  20738027.467    20738026.8684   20738028.9304  108979108.216 8  84918814.44147
     -1587.816       -1237.260
  23978333.820    23978332.1234   23978334.6014  126007008.179 5  98187299.79143
      3801.794        2962.444
  22754976.382    22754975.2584   22754977.1034  119578237.425 7  93177851.51644
      1241.913         967.731
  23469321.199    23469320.6154   23469321.2424  123332132.418 6  96102980.98043
     -3480.526       -2712.100
  23295073.191    23295072.0884   23295075.5934  122416438.344 6  95389454.02543
     -1628.451       -1268.916
  21528590.231    21528589.6664   21528592.4524  113133535.320 8  88156026.09246
      1183.616         922.299
  23184941.323    23184940.4374   23184943.6874  121837705.839 6  94938496.84443
      2682.385        2090.169
  25164807.900    25164808.7954   25164810.6324  132241975.548 5 103045722.68641
     -3688.374       -2874.051
 08  5 13  1 34  0.0000000  0 13G 3G 6G 7G10G13G16G19G21G23G24G25G27
                                G29
  21368818.643    21368817.9894   21368821.1534  112293931.192 7  87501787.15745
      2717.801        2117.766
  20857834.060    20857833.6364   20857836.4954  109608697.231 8  85409398.36846
       655.491         510.775
  22257488.927    22257488.9154   22257491.2454  116963925.707 7  91140743.92345
      2675.545        2084.841
  23620791.434    23620790.2594   23620794.4734  124128106.399 5  96723221.26942
      -463.892        -361.473
  21993902.901    21993902.7794   21993904.4024  115578771.144 7  90061397.27144
     -1685.549       -1313.403
  20747136.367    20747135.8894   20747137.8884  109026975.649 8  84956113.73847
     -1603.373       -1249.380
  23956643.665    23956643.7324   23956644.4674  125893029.667 5  98098485.43143
      3796.639        2958.421
  22747937.022    22747936.1324   22747938.2784  119541246.840 7  93149027.68244
      1224.092         953.842
  23489217.333    23489216.4034   23489217.3894  123436689.969 6  96184454.39443
     -3490.010       -2719.466
  23304419.979    23304419.5844   23304423.8024  122465561.894 6  95427732.11343
     -1646.493       -1282.976
  21521881.703    21521881.2764   21521884.1534  113098281.862 8  88128555.88646
      1166.565         909.012
  23169654.851    23169654.2314   23169658.3724  121757376.921 6  94875902.94244
      2672.765        2082.677
  25185874.377    25185873.1634   25185875.9744  132352678.502 5 103131984.72541
     -3691.970       -2876.868
 08  5 13  1 34 30.0000000  0 13G 3G 6G 7G10G13G16G19G21G23G24G25G27
                                G29
  21353346.102    21353345.5554   21353348.5874  112212623.145 7  87438430.26245
      2702.568        2105.899
  20854144.133    20854143.7444   20854146.6274  109589306.594 8  85394288.77946
       637.074         496.420
  22242253.635    22242253.7184   22242255.3704  116883861.099 7  91078355.92845
      2661.924        2074.221
  23623499.395    23623499.5194   23623502.8014  124142339.580 5  96734312.04442
      -485.148        -378.030
  22003582.498    22003582.3264   22003584.8054  115629639.465 7  90101034.92444
     -1705.822       -1329.215
  20756333.622    20756332.8944   20756334.8624  109075306.233 8  84993773.93547
     -1618.804       -1261.407
  23934984.773    23934983.7134   23934984.2904  125779207.666 5  98009793.02942
      3791.344        2954.294
  22740999.152    22740998.6834   22741000.3534  119504788.897 7  93120618.89344
      1206.314         939.982
  23509167.273    23509166.2324   23509166.9204  123541525.720 6  96266144.62543
     -3499.237       -2726.672
  23313869.643    23313869.1744   23313873.3314  122515222.540 6  95466428.68343
     -1664.385       -1296.925
  21515270.395    21515269.8574   21515272.3644  113063539.093 8  88101483.60046
      1149.491         895.709
  23154424.009    23154423.6964   23154426.7194  121677336.101 6  94813533.49444
      2663.107        2075.148
  25206961.220    25206960.1024   25206962.4724  132463487.757 5 103218329.60241
     -3695.438       -2879.568
 08  5 13  1 35  0.0000000  0 13G 3G 6G 7G10G13G16G19G21G23G24G25G27
                                G29
  21337960.914    21337960.5304   21337963.6524  112131773.888 7  87375430.84445
      2687.281        2093.984
  20850559.840    20850559.4114   20850562.2474  109570470.579 8  85379611.38546
       618.609         482.029
  22227095.863    22227095.5444   22227097.6254  116804205.865 7  91016286.92145
      2648.321        2063.626
  23626330.626    23626328.7574   23626333.0694  124157210.615 5  96745899.88842
      -506.411        -394.622
  22013378.048    22013378.0804   22013380.6534  115681115.327 7  90141145.98344
     -1725.993       -1344.928
  20765618.597    20765617.9874   20765619.9064  109124099.260 8  85031794.45647
     -1634.146       -1273.362
  23913355.912    23913354.1114   23913354.8074  125665545.408 5  97921225.09442
      3786.007        2950.125
  22734163.262    22734162.4214   22734164.2714  119468865.915 6  93092626.98244
      1188.450         926.057
  23529169.005    23529168.5894   23529170.1344  123646637.394 6  96348049.81543
     -3508.272       -2733.705
  23323421.877    23323421.2834   23323425.3774  122565419.150 5  95505542.93043
     -1682.135       -1310.766
  21508756.554    21508756.1744   21508758.8534  113029309.268 8  88074811.02546
      1132.402         882.391
  23139247.521    23139247.0004   23139250.4294  121597586.255 6  94751390.74043
      2653.401        2067.590
  25228067.816    25228067.7074   25228068.8314  132574402.145 4 103304756.31441
     -3698.825       -2882.221
 08  5 13  1 35 30.0000000  0 13G 3G 6G 7G10G13G16G19G21G23G24G25G27
                                G29
  21322663.401    21322662.6604   21322665.6704  112051383.334 7  87312788.85345
      2671.919        2082.016
  20847080.465    20847080.0824   20847082.9404  109552186.920 8  85365364.37046
       600.119         467.621
  22212015.736    22212015.7184   22212017.6594  116724960.059 7  90954536.96245
      2634.613        2052.947
  23629280.722    23629279.9254   23629283.8774  124172716.431 5  96757982.32742
      -527.479        -411.021
  22023288.688    22023288.1744   22023290.8564  115733194.648 7  90181727.27044
     -1746.126       -1360.613
  20774991.105    20774990.3284   20774992.2454  109173351.384 8  85070172.74047
     -1649.470       -1285.300
  23891756.491    23891754.8474   23891756.8664  125552043.061 5  97832781.82242
      3780.595        2945.914
  22727429.065    22727428.3484   22727430.3464  119433477.204 7  93065051.37144
      1170.620         912.169
  23549223.100    23549222.6264   23549223.0284  123752019.894 6  96430166.02343
     -3517.301       -2740.756
  23333074.633    23333074.3664   23333079.0424  122616148.032 6  95545071.90543
     -1699.975       -1324.639
  21502340.488    21502339.9234   21502342.6644  112995591.446 8  88048537.40946
      1115.296         869.061
  23124127.258    23124127.0794   23124130.1804  121518126.902 6  94689474.38443
      2643.653        2059.990
  25249192.015    25249190.1224   25249191.8284  132685417.266 4 103391261.57441
     -3702.049       -2884.725
 08  5 13  1 36  0.0000000  0 12G 3G 6G 7G10G13G16G19G21G23G24G25G27
  21307453.920    21307453.5484   21307456.4924  111971458.803 7  87250509.99245
      2656.379        2069.908
  20843707.473    20843706.9904   20843709.8164  109534461.117 8  85351552.05747
       581.600         453.200
  22197014.852    22197014.7454   22197016.6694  116646131.405 7  90893112.04045
      2620.664        2042.075
  23632352.374    23632351.8734   23632356.0154  124188862.201 5  96770563.46342
      -548.859        -427.672
  22033314.316    22033314.3974   22033316.5274  115785880.504 7  90222781.18144
     -1766.289       -1376.331
  20784451.382    20784450.7524   20784452.7694  109223066.417 8  85108911.72247
     -1664.844       -1297.281
  23870189.352    23870188.6904   23870190.4174  125438707.793 5  97744468.67443
      3775.013        2941.570
  22720797.437    22720796.6654   22720798.9184  119398629.262 7  93037897.13644
      1152.584         898.120
  23569328.724    23569327.9984   23569328.2564  123857675.209 6  96512494.82543
     -3526.325       -2747.787
  23342830.310    23342829.9684   23342834.8094  122667412.527 6  95585018.24643
     -1717.679       -1338.450
  21496022.769    21496022.3784   21496025.0634  112962392.138 8  88022667.81846
      1098.033         855.609
  23109064.142    23109063.5094   23109066.7694  121438965.564 6  94627790.24544
      2633.739        2052.258
 08  5 13  1 36 30.0000000  0 12G 3G 6G 7G10G13G16G19G21G23G24G25G27
  21292333.979    21292333.1834   21292336.3304  111892001.124 7  87188594.90645
      2640.895        2057.840
  20840440.357    20840439.8944   20840442.8264  109517292.472 8  85338173.89146
       563.084         438.766
  22182094.466    22182093.9094   22182095.9234  116567720.679 7  90832012.79945
      2606.767        2031.245
  23635545.669    23635545.4684   23635549.7474  124205645.377 5  96783641.23442
      -569.923        -444.109
  22043454.727    22043454.5464   22043456.9804  115839169.861 7  90264305.35844
     -1786.268       -1391.901
  20793999.501    20793998.8604   20794000.8454  109273242.117 8  85148009.69047
     -1680.076       -1309.151
  23848654.694    23848653.6484   23848655.8274  125325540.357 5  97656286.28443
      3769.536        2937.278
  22714269.095    22714268.4824   22714270.7634  119364321.997 7  93011164.19944
      1134.673         884.160
  23589484.986    23589484.3004   23589485.0634  123963599.185 6  96595032.97643
     -3535.135       -2754.649
  23352687.739    23352687.2364   23352690.8164  122719209.623 6  95625379.62243
     -1735.336       -1352.218
  21489803.733    21489803.3554   21489805.7534  112929711.024 8  87997202.01546
      1080.832         842.203
  23094055.432    23094055.0344   23094058.7424  121360102.642 6  94566338.64243
      2623.980        2044.663
 08  5 13  1 37  0.0000000  0 12G 3G 6G 7G10G13G16G19G21G23G24G25G27
  21277302.672    21277301.6704   21277304.9064  111813010.311 7  87127043.61945
      2625.254        2045.654
  20837278.913    20837278.4604   20837281.4034  109500679.012 8  85325228.32447
       544.566         424.336
  22167252.390    22167252.3214   22167254.5544  116489728.333 7  90771239.56945
      2592.800        2020.363
  23638860.763    23638859.0694   23638864.9394  124223063.305 5  96797213.61942
      -591.174        -460.638
  22053709.512    22053709.4054   22053711.3174  115893058.356 7  90306296.41444
     -1806.177       -1407.404
  20803634.558    20803633.8594   20803635.9084  109323874.929 8  85187463.83647
     -1695.314       -1321.022
  23827151.423    23827150.2724   23827151.0284  125212541.119 6  97568234.92443
      3763.838        2932.867
  22707843.764    22707843.1094   22707844.7544  119330554.617 7  92984851.96144
      1116.630         870.099
  23609690.799    23609690.3774   23609690.9364  124069786.272 6  96677776.16142
     -3543.922       -2761.482
  23362644.749    23362644.2974   23362648.3054  122771535.262 6  95666152.83143
     -1752.861       -1365.851
  21483683.127    21483682.7104   21483685.3794  112897547.463 8  87972139.51546
      1063.523         828.716
  23079105.850    23079104.7954   23079108.4764  121281538.129 6  94505119.55843
      2613.916        2036.813
 08  5 13  1 37 30.0000000  0 12G 3G 6G 7G10G13G16G19G21G23G24G25G27
  21262360.608    21262359.8734   21262362.9024  111734489.941 7  87065858.89245
      2609.411        2033.304
  20834223.481    20834222.9414   20834225.7834  109484622.050 8  85312716.39947
       525.872         409.772
  22152491.453    22152491.3004   22152492.9554  116412157.736 7  90710794.96145
      2578.557        2009.264
  23642296.563    23642294.8514   23642299.8144  124241116.673 5  96811281.18842
      -612.394        -477.195
  22064078.256    22064078.0834   22064079.8634  115947544.865 7  90348753.42744
     -1826.227       -1423.031
  20813356.451    20813355.8504   20813358.0294  109374964.665 8  85227274.03047
     -1710.651       -1332.975
  23805680.182    23805679.3024   23805681.2964  125099713.729 5  97480317.50143
      3757.912        2928.245
  22701520.814    22701520.3704   22701522.1904  119297329.350 6  92958962.11344
      1098.359         855.865
  23629948.155    23629947.7984   23629948.0574  124176234.932 5  96760723.19242
     -3552.705       -2768.335
  23372702.531    23372701.9644   23372705.9164  122824388.941 6  95707337.52243
     -1770.656       -1379.726
  21477661.811    21477661.2414   21477663.6454  112865903.779 8  87947482.10246
      1046.047         815.101
  23064213.322    23064212.6354   23064216.0534  121203275.202 6  94444135.45344
      2603.642        2028.809
 08  5 13  1 38  0.0000000  0 12G 3G 6G 7G10G13G16G19G21G23G24G25G27
  21247508.160    21247507.7234   21247510.8854  111656441.559 7  87005041.97545
      2593.778        2021.121
  20831273.800    20831273.3084   20831276.2044  109469121.704 8  85300638.22946
       507.464         395.425
  22137810.828    22137810.7794   22137812.6284  116335011.142 7  90650680.73545
      2564.519        1998.324
  23645851.743    23645850.8214   23645855.9144  124259804.560 5  96825843.16542
      -633.404        -493.565
  22074560.269    22074559.7244   22074561.3984  116002627.308 7  90391674.81244
     -1845.937       -1438.395
  20823165.321    20823164.6974   20823166.7744  109426509.979 8  85267439.20747
     -1725.702       -1344.702
  23784243.305    23784242.2404   23784243.4734  124987060.041 5  97392535.52542
      3752.281        2923.861
  22695302.033    22695301.1884   22695302.9704  119264647.506 7  92933495.71444
      1080.341         841.826
  23650254.347    23650253.0554   23650253.5654  124282941.360 6  96843871.05943
     -3561.054       -2774.865
  23382859.840    23382860.1644   23382863.2254  122877768.562 6  95748932.02743
     -1788.053       -1393.292
  21471739.066    21471738.5934   21471741.3374  112834780.830 8  87923230.46946
      1028.783         801.649
  23049376.835    23049376.4614   23049380.4974  121125315.514 6  94383387.67644
      2593.620        2020.998
 08  5 13  1 38 30.0000000  0 12G 3G 6G 7G10G13G16G19G21G23G24G25G27
  21232746.645    21232745.9614   21232749.3034  111578868.188 7  86944595.19246
      2577.982        2008.817
  20828430.358    20828429.8854   20828432.8024  109454179.377 8  85288994.86446
       488.913         380.972
  22123211.284    22123211.3264   22123213.3094  116258291.960 7  90590899.58245
      2550.286        1987.237
  23649528.995    23649527.6704   23649532.2684  124279126.686 5  96840899.34941
      -654.463        -509.989
  22085155.629    22085155.0614   22085156.2964  116058304.998 7  90435060.01844
     -1865.660       -1453.760
  20833060.728    20833060.0644   20833062.0834  109478510.580 8  85307959.14046
     -1740.777       -1356.444
  23762839.547    23762838.1244   23762840.2974  124874583.069 5  97304891.23743
      3746.421        2919.294
  22689186.274    22689185.6654   22689187.8644  119232511.564 7  92908454.70044
      1062.221         827.704
  23670607.800    23670607.5344   23670608.4714  124389903.848 6  96927218.38842
     -3569.557       -2781.467
  23393117.891    23393117.9074   23393121.4834  122931673.217 6  95790935.66243
     -1805.427       -1406.825
  21465916.241    21465915.7764   21465917.9744  112804180.822 8  87899386.30646
      1011.411         788.113
  23034601.137    23034600.6724   23034603.4124  121047662.327 6  94322878.71044
      2583.463        2013.091
 08  5 13  1 39  0.0000000  0 12G 3G 6G 7G10G13G16G19G21G23G24G25G27
  21218075.364    21218074.6024   21218077.6464  111501769.265 8  86884518.12145
      2562.011        1996.373
  20825692.728    20825692.1364   20825695.0214  109439792.247 8  85277784.11346
       470.328         366.489
  22108693.504    22108693.5144   22108695.2564  116181999.667 7  90531451.04045
      2535.891        1976.016
  23653326.202    23653325.1574   23653329.0614  124299079.632 5  96856447.11241
      -675.574        -526.439
  22095862.661    22095862.7364   22095863.8364  116114572.754 7  90478905.02344
     -1885.437       -1469.168
  20843041.915    20843041.3434   20843043.3194  109530962.097 8  85348830.38946
     -1755.914       -1368.248
  23741469.635    23741468.5794   23741469.7314  124762282.318 6  97217384.17843
      3740.394        2914.573
  22683175.259    22683174.1064   22683175.9654  119200919.796 6  92883837.72744
      1043.931         813.449
  23691009.690    23691009.4424   23691009.9414  124497116.234 6  97010760.48342
     -3577.906       -2787.969
  23403474.569    23403473.9104   23403478.5234  122986098.566 5  95833345.01343
     -1822.813       -1420.370
  21460192.362    21460191.8464   21460194.4174  112774102.156 8  87875948.39746
       993.897         774.463
  23019882.427    23019881.9004   23019884.2844  120970314.439 6  94262607.59644
      2573.122        2005.036
 08  5 13  1 39 30.0000000  0 12G 3G 6G 7G10G13G16G19G21G23G24G25G27
  21203495.061    21203494.5174   21203497.5284  111425149.978 7  86824814.80845
      2545.925        1983.837
  20823061.176    20823060.6704   20823063.5714  109425964.094 8  85267008.95546
       451.586         351.884
  22094257.853    22094257.7914   22094260.0904  116106139.977 7  90472339.61145
      2521.398        1964.720
  23657243.506    23657242.3264   23657247.0844  124319666.362 5  96872488.71442
      -696.818        -542.976
  22106682.301    22106682.4334   22106683.8934  116171431.860 7  90523210.81944
     -1905.135       -1484.516
  20853109.353    20853108.7684   20853110.7434  109583866.781 8  85390054.82446
     -1771.014       -1380.010
  23720133.507    23720133.4504   23720134.8954  124650163.970 6  97130019.29643
      3734.263        2909.799
  22677267.924    22677266.7594   22677268.6874  119169876.738 7  92859648.32844
      1025.565         799.146
  23711458.468    23711457.7774   23711460.6164  124604579.079 6  97094497.74143
     -3586.281       -2794.504
  23413930.788    23413929.7514   23413935.1404  123041045.935 5  95876161.09843
     -1840.311       -1434.003
  21454568.719    21454568.2264   21454570.7074  112744549.330 8  87852920.22746
       976.309         760.758
  23005222.042    23005221.4574   23005225.4714  120893277.233 6  94202578.63144
      2562.680        1996.896
 08  5 13  1 40  0.0000000  0 12G 3G 6G 7G10G13G16G19G21G23G24G25G27
  21189006.467    21189005.8314   21189008.9014  111349012.445 7  86765486.90045
      2529.978        1971.408
  20820536.074    20820535.5564   20820538.4694  109412694.654 8  85256669.11646
       433.091         337.473
  22079905.386    22079905.1294   22079907.0674  116030715.219 7  90413567.08245
      2506.999        1953.501
  23661281.325    23661280.7104   23661285.0174  124340885.661 5  96889023.23042
      -717.673        -559.218
  22117614.776    22117614.4634   22117616.0514  116228880.040 7  90567975.62344
     -1924.653       -1499.732
  20863262.842    20863262.1754   20863264.1164  109637223.330 8  85431631.34446
     -1785.942       -1391.644
  23698834.189    23698832.2714   23698833.7344  124538229.472 5  97042797.64443
      3728.218        2905.095
  22671465.315    22671464.3074   22671466.1404  119139383.558 7  92835887.40344
      1007.378         784.969
  23731955.535    23731955.6594   23731955.8664  124712289.265 6  97178427.73642
     -3594.333       -2800.768
  23424485.963    23424484.7284   23424489.7124  123096513.283 6  95919382.38943
     -1857.446       -1447.351
  21449045.106    21449044.6834   21449047.4514  112715523.329 8  87830302.56946
       958.857         747.159
  22990622.261    22990621.3524   22990625.4154  120816552.705 6  94142793.30944
      2552.364        1988.860
 08  5 13  1 40 30.0000000  0 12G 3G 6G 7G10G13G16G19G21G23G24G25G27
  21174609.792    21174609.3094   21174612.5594  111273358.726 7  86706536.00446
      2513.736        1958.748
  20818117.240    20818116.8724   20818119.7224  109399984.540 8  85246765.17747
       414.390         322.901
  22065635.482    22065635.2824   22065636.7054  115955727.301 7  90355134.93045
      2492.367        1942.106
  23665440.134    23665438.7574   23665442.7584  124362736.742 5  96906050.03642
      -738.858        -575.737
  22128658.278    22128658.1534   22128660.0654  116286915.367 7  90613197.95944
     -1944.253       -1515.009
  20873501.964    20873501.2894   20873503.3324  109691030.228 8  85473558.76046
     -1801.036       -1403.404
  23677568.528    23677567.8204   23677568.9854  124426481.441 6  96955721.32243
      3721.849        2900.146
  22665767.309    22665766.5454   22665767.7924  119109441.334 7  92812555.80244
       988.906         770.574
  23752499.860    23752499.3244   23752499.2904  124820243.438 6  97262547.84642
     -3602.514       -2807.146
  23435140.297    23435139.2664   23435143.6344  123152498.678 6  95963007.35243
     -1874.697       -1460.801
  21443621.986    21443621.5514   21443624.0354  112687025.422 8  87808096.42346
       941.155         733.366
  22976082.043    22976081.3174   22976084.2444  120740142.797 6  94083253.12644
      2541.769        1980.600
 08  5 13  1 41  0.0000000  0 12G 3G 6G 7G10G13G16G19G21G23G24G25G27
  21160305.902    21160305.0894   21160308.1874  111198189.131 7  86647962.30246
      2497.546        1946.142
  20815804.926    20815804.4344   20815807.2124  109387832.286 8  85237295.88847
       395.790         308.408
  22051449.410    22051449.0814   22051451.1214  115881177.737 7  90297044.37345
      2477.697        1930.673
  23669718.052    23669716.8844   23669720.5334  124385217.275 5  96923567.34442
      -759.871        -592.110
  22139812.657    22139812.6404   22139815.2584  116345534.177 7  90658874.93644
     -1963.670       -1530.128
  20883826.396    20883825.7664   20883827.7524  109745285.063 8  85515835.24746
     -1815.944       -1415.020
  23656339.083    23656337.3614   23656339.5164  124314920.606 5  96868790.90143
      3715.544        2895.228
  22660173.849    22660173.2994   22660175.3004  119080049.966 7  92789653.44044
       970.523         756.250
  23773087.047    23773087.2234   23773087.6794  124928437.357 5  97346854.77842
     -3610.367       -2813.265
  23445891.885    23445891.4394   23445895.3844  123208999.015 6  96007033.57543
     -1891.853       -1474.167
  21438299.705    21438299.1554   21438301.6784  112659055.220 8  87786301.47446
       923.536         719.636
  22961601.713    22961600.9754   22961604.1104  120664048.146 6  94023958.57244
      2531.239        1972.392
